[[{"header":{"parameterUnit":"m.s-1","parameterCategory":1,"la1":30.6,"la2":28.766,"lo1":-90.7593,"lo2":-88.6598,"dy":0.0162,"dx":0.0183,"nx":116,"ny":114,"refTime":"2023-07-03T18:00:00:Z","depth":0,"parameterNumber":2,"parameterNumberName":"U-component_of_WINDS"},"data":[0.0,0.0,0.0,0.0,0.0,0.0,0.0,0.0,0.0,0.0,0.0,0.0,0.0,0.0,0.0,0.0,0.0,0.0,0.0,0.0,0.0,0.0,0.0,0.0,0.0,0.0,0.0,0.0,0.0,0.0,0.0,0.0,0.0,0.0,0.0,0.0,0.0,0.0,0.0,0.0,0.0,0.0,0.0,0.0,0.0,0.0,0.0,0.0,0.0,0.0,0.0,0.0,0.0,0.0,0.0,0.0,0.0,0.0,0.0,0.0,0.0,0.0,0.0,0.0,0.0,0.0,0.0,0.0,0.0,0.0,0.0,0.0,0.0,0.0,0.0,0.0,0.0,0.0,0.0,0.0,0.0,0.0,0.0,0.0,0.0,0.0,0.0,0.0,0.0,0.0,0.0,0.0,0.0,0.0,0.0,0.0,0.0,0.0,0.0,0.0,0.0,0.0,0.0,0.0,0.0,0.0,0.0,0.0,0.0,0.0,0.0,0.0,0.0,0.0,0.0,0.0,0.0,0.0,0.0,0.0,0.0,0.0,0.0,0.0,0.0,0.0,0.0,0.0,0.0,0.0,0.0,0.0,0.0,0.0,0.0,0.0,0.0,0.0,0.0,0.0,0.0,0.0,0.0,0.0,0.0,0.0,0.0,0.0,0.0,0.0,0.0,0.0,0.0,0.0,0.0,0.0,0.0,0.0,0.0,0.0,0.0,0.0,0.0,0.0,0.0,0.0,0.0,0.0,0.0,0.0,0.0,0.0,0.0,0.0,0.0,0.0,0.0,0.0,0.0,0.0,0.0,0.0,0.0,0.0,0.0,0.0,0.0,0.0,0.0,0.0,0.0,0.0,0.0,0.0,0.0,0.0,0.0,0.0,0.0,0.0,0.0,0.0,0.0,0.0,0.0,0.0,0.0,0.0,0.0,0.0,0.0,0.0,0.0,0.0,0.0,0.0,0.0,0.0,0.0,0.0,0.0,0.0,0.0,0.0,0.0,0.0,0.0,0.0,0.0,0.0,0.0,0.0,0.0,0.0,0.0,0.0,0.0,0.0,0.0,0.0,0.0,0.0,0.0,0.0,0.0,0.0,0.0,0.0,0.0,0.0,0.0,0.0,0.0,0.0,0.0,0.0,0.0,0.0,0.0,0.0,0.0,0.0,0.0,0.0,0.0,0.0,0.0,0.0,0.0,0.0,0.0,0.0,0.0,0.0,0.0,0.0,0.0,0.0,0.0,0.0,0.0,0.0,0.0,0.0,0.0,0.0,0.0,0.0,0.0,0.0,0.0,0.0,0.0,0.0,0.0,0.0,0.0,0.0,0.0,0.0,0.0,0.0,0.0,0.0,0.0,0.0,0.0,0.0,0.0,0.0,0.0,0.0,0.0,0.0,0.0,0.0,0.0,0.0,0.0,0.0,0.0,0.0,0.0,0.0,0.0,0.0,0.0,0.0,0.0,0.0,0.0,0.0,0.0,0.0,0.0,0.0,0.0,0.0,0.0,0.0,0.0,0.0,0.0,0.0,0.0,0.0,0.0,0.0,0.0,0.0,0.0,0.0,0.0,0.0,0.0,0.0,0.0,0.0,0.0,0.0,0.0,0.0,0.0,0.0,0.0,0.0,0.0,0.0,0.0,0.0,0.0,0.0,0.0,0.0,0.0,0.0,0.0,0.0,0.0,0.0,0.0,0.0,0.0,0.0,0.0,0.0,0.0,0.0,0.0,0.0,0.0,0.0,0.0,0.0,0.0,0.0,0.0,0.0,0.0,0.0,0.0,0.0,0.0,0.0,0.0,0.0,0.0,0.0,0.0,0.0,0.0,0.0,0.0,0.0,0.0,0.0,0.0,0.0,0.0,0.0,0.0,0.0,0.0,0.0,0.0,0.0,0.0,0.0,0.0,0.0,0.0,0.0,0.0,0.0,0.0,0.0,0.0,0.0,0.0,0.0,0.0,0.0,0.0,0.0,0.0,0.0,0.0,0.0,0.0,0.0,0.0,0.0,0.0,0.0,0.0,0.0,0.0,0.0,0.0,0.0,0.0,0.0,0.0,0.0,0.0,0.0,0.0,0.0,0.0,0.0,0.0,0.0,0.0,0.0,0.0,0.0,0.0,0.0,0.0,0.0,0.0,0.0,0.0,0.0,0.0,0.0,0.0,0.0,0.0,0.0,0.0,0.0,0.0,0.0,0.0,0.0,0.0,0.0,0.0,0.0,0.0,0.0,0.0,0.0,0.0,0.0,0.0,0.0,0.0,0.0,0.0,0.0,0.0,0.0,0.0,0.0,0.0,0.0,0.0,0.0,0.0,0.0,0.0,0.0,0.0,0.0,0.0,0.0,0.0,0.0,0.0,0.0,0.0,0.0,0.0,0.0,0.0,0.0,0.0,0.0,0.0,0.0,0.0,0.0,0.0,0.0,0.0,0.0,0.0,0.0,0.0,0.0,0.0,0.0,0.0,0.0,0.0,0.0,0.0,0.0,0.0,0.0,0.0,0.0,0.0,0.0,0.0,0.0,0.0,0.0,0.0,0.0,0.0,0.0,0.0,0.0,0.0,0.0,0.0,0.0,0.0,0.0,0.0,0.0,0.0,0.0,0.0,0.0,0.0,0.0,0.0,0.0,0.0,0.0,0.0,0.0,0.0,0.0,0.0,0.0,0.0,0.0,0.0,0.0,0.0,0.0,0.0,0.0,0.0,0.0,0.0,0.0,0.0,0.0,0.0,0.0,0.0,0.0,0.0,0.0,0.0,0.0,0.0,0.0,0.0,0.0,0.0,0.0,0.0,0.0,0.0,0.0,0.0,0.0,0.0,0.0,0.0,0.0,0.0,0.0,0.0,0.0,0.0,0.0,0.0,0.0,0.0,0.0,0.0,0.0,0.0,0.0,0.0,0.0,0.0,0.0,0.0,0.0,0.0,0.0,0.0,0.0,0.0,0.0,0.0,0.0,0.0,0.0,0.0,0.0,0.0,0.0,0.0,0.0,0.0,0.0,0.0,0.0,0.0,0.0,0.0,0.0,0.0,0.0,0.0,0.0,0.0,0.0,0.0,0.0,0.0,0.0,0.0,0.0,0.0,0.0,0.0,0.0,0.0,0.0,0.0,0.0,0.0,0.0,0.0,0.0,0.0,0.0,0.0,0.0,0.0,0.0,0.0,0.0,0.0,0.0,0.0,0.0,0.0,0.0,0.0,0.0,0.0,0.0,0.0,0.0,0.0,0.0,0.0,0.0,0.0,0.0,0.0,0.0,0.0,0.0,0.0,0.0,0.0,0.0,0.0,0.0,0.0,0.0,0.0,0.0,0.0,0.0,0.0,0.0,0.0,0.0,0.0,0.0,0.0,0.0,0.0,0.0,0.0,0.0,0.0,0.0,0.0,0.0,0.0,0.0,0.0,0.0,0.0,0.0,0.0,0.0,0.0,0.0,0.0,0.0,0.0,0.0,0.0,0.0,0.0,0.0,0.0,0.0,0.0,0.0,0.0,0.0,0.0,0.0,0.0,0.0,0.0,0.0,0.0,0.0,0.0,0.0,0.0,0.0,0.0,0.0,0.0,0.0,0.0,0.0,0.0,0.0,0.0,0.0,0.0,0.0,0.0,0.0,0.0,0.0,0.0,0.0,0.0,0.0,0.0,0.0,0.0,0.0,0.0,0.0,0.0,0.0,0.0,0.0,0.0,0.0,0.0,0.0,0.0,0.0,0.0,0.0,0.0,0.0,0.0,0.0,0.0,0.0,0.0,0.0,0.0,0.0,0.0,0.0,0.0,0.0,0.0,0.0,0.0,0.0,0.0,0.0,0.0,0.0,0.0,0.0,0.0,0.0,0.0,0.0,0.0,0.0,0.0,0.0,0.0,0.0,0.0,0.0,0.0,0.0,0.0,0.0,0.0,0.0,0.0,0.0,0.0,0.0,0.0,0.0,0.0,0.0,0.0,0.0,0.0,0.0,0.0,0.0,0.0,0.0,0.0,0.0,0.0,0.0,0.0,0.0,0.0,0.0,0.0,0.0,0.0,0.0,0.0,0.0,0.0,0.0,0.0,0.0,0.0,0.0,0.0,0.0,0.0,0.0,0.0,0.0,0.0,0.0,0.0,0.0,0.0,0.0,0.0,0.0,0.0,0.0,0.0,0.0,0.0,0.0,0.0,0.0,0.0,0.0,0.0,0.0,0.0,0.0,0.0,0.0,0.0,0.0,0.0,0.0,0.0,0.0,0.0,0.0,0.0,0.0,0.0,0.0,0.0,0.0,0.0,0.0,0.0,0.0,0.0,0.0,0.0,0.0,0.0,0.0,0.0,0.0,0.0,0.0,0.0,0.0,0.0,0.0,0.0,0.0,0.0,0.0,0.0,0.0,0.0,0.0,0.0,0.0,0.0,0.0,0.0,0.0,0.0,0.0,0.0,0.0,0.0,0.0,0.0,0.0,0.0,0.0,0.0,0.0,0.0,0.0,0.0,0.0,0.0,0.0,0.0,0.0,0.0,0.0,0.0,0.0,0.0,0.0,0.0,0.0,0.0,0.0,0.0,0.0,0.0,0.0,0.0,0.0,0.0,0.0,0.0,0.0,0.0,0.0,0.0,0.0,0.0,0.0,0.0,0.0,0.0,0.0,0.0,0.0,0.0,0.0,0.0,0.0,0.0,0.0,0.0,0.0,0.0,0.0,0.0,0.0,0.0,0.0,0.0,0.0,0.0,0.0,0.0,0.0,0.0,0.0,0.0,0.0,0.0,0.0,0.0,0.0,0.0,0.0,0.0,0.0,0.0,0.0,0.0,0.0,0.0,0.0,0.0,0.0,0.0,0.0,0.0,0.0,0.0,0.0,0.0,0.0,0.0,0.0,0.0,0.0,0.0,0.0,0.0,0.0,0.0,0.0,0.0,0.0,0.0,0.0,0.0,0.0,0.0,0.0,0.0,0.0,0.0,0.0,0.0,0.0,0.0,0.0,0.0,0.0,0.0,0.0,0.0,0.0,0.0,0.0,0.0,0.0,0.0,0.0,0.0,0.0,0.0,0.0,0.0,0.0,0.0,0.0,0.0,0.0,0.0,0.0,0.0,0.0,0.0,0.0,0.0,0.0,0.0,0.0,0.0,0.0,0.0,0.0,0.0,0.0,0.0,0.0,0.0,0.0,0.0,0.0,0.0,0.0,0.0,0.0,0.0,0.0,0.0,0.0,0.0,0.0,0.0,0.0,0.0,0.0,0.0,0.0,0.0,0.0,0.0,0.0,0.0,0.0,0.0,0.0,0.0,0.0,0.0,0.0,0.0,0.0,0.0,0.0,0.0,0.0,0.0,0.0,0.0,0.0,0.0,0.0,0.0,0.0,0.0,0.0,0.0,0.0,0.0,0.0,0.0,0.0,0.0,0.0,0.0,0.0,0.0,0.0,0.0,0.0,0.0,0.0,0.0,0.0,0.0,0.0,0.0,0.0,0.0,0.0,0.0,0.0,0.0,0.0,0.0,0.0,0.0,0.0,0.0,0.0,0.0,0.0,0.0,0.0,0.0,0.0,0.0,0.0,0.0,0.0,0.0,0.0,0.0,0.0,0.0,0.0,0.0,0.0,0.0,0.0,0.0,0.0,0.0,0.0,0.0,0.0,0.0,0.0,0.0,0.0,0.0,0.0,0.0,0.0,0.0,0.0,0.0,0.0,0.0,0.0,0.0,0.0,0.0,0.0,0.0,0.0,0.0,0.0,0.0,0.0,0.0,0.0,0.0,0.0,0.0,0.0,0.0,0.0,0.0,0.0,0.0,0.0,0.0,0.0,0.0,0.0,0.0,0.0,0.0,0.0,0.0,0.0,0.0,0.0,0.0,0.0,0.0,0.0,0.0,0.0,0.0,0.0,0.0,0.0,0.0,0.0,0.0,0.0,0.0,0.0,0.0,0.0,0.0,0.0,0.0,0.0,0.0,0.0,0.0,0.0,0.0,0.0,0.0,0.0,0.0,0.0,0.0,0.0,0.0,0.0,0.0,0.0,0.0,0.0,0.0,0.0,0.0,0.0,0.0,0.0,0.0,0.0,0.0,0.0,0.0,0.0,0.0,0.0,0.0,0.0,0.0,0.0,0.0,0.0,0.0,0.0,0.0,0.0,0.0,0.0,-4.3249,-4.2121,0.0,0.0,0.0,0.0,0.0,0.0,0.0,0.0,0.0,0.0,0.0,0.0,0.0,0.0,0.0,0.0,0.0,0.0,0.0,0.0,0.0,0.0,0.0,0.0,0.0,0.0,0.0,0.0,0.0,0.0,0.0,0.0,0.0,0.0,0.0,0.0,0.0,0.0,-2.34,-2.3195,-2.3428,-2.4335,-2.5226,-2.6043,0.0,0.0,0.0,0.0,0.0,0.0,0.0,0.0,0.0,0.0,0.0,0.0,0.0,0.0,0.0,0.0,0.0,0.0,0.0,0.0,0.0,0.0,0.0,0.0,0.0,0.0,0.0,0.0,0.0,0.0,0.0,0.0,0.0,0.0,0.0,0.0,0.0,0.0,0.0,0.0,0.0,0.0,0.0,0.0,0.0,0.0,0.0,0.0,0.0,0.0,0.0,0.0,0.0,0.0,0.0,0.0,0.0,0.0,0.0,0.0,0.0,0.0,0.0,0.0,0.0,0.0,0.0,0.0,0.0,0.0,-4.4334,-4.3773,0.0,0.0,0.0,0.0,0.0,0.0,0.0,0.0,0.0,0.0,0.0,0.0,0.0,0.0,0.0,0.0,0.0,0.0,0.0,0.0,0.0,0.0,0.0,0.0,0.0,0.0,0.0,0.0,0.0,0.0,0.0,0.0,0.0,0.0,0.0,0.0,0.0,0.0,-2.2779,-2.2192,-2.3048,-2.3933,-2.5053,-2.6323,-2.7206,0.0,0.0,0.0,0.0,0.0,0.0,0.0,0.0,0.0,0.0,0.0,0.0,0.0,0.0,0.0,0.0,0.0,0.0,0.0,0.0,0.0,0.0,0.0,0.0,0.0,0.0,0.0,0.0,0.0,0.0,0.0,0.0,0.0,0.0,0.0,0.0,0.0,0.0,0.0,0.0,0.0,0.0,0.0,0.0,0.0,0.0,0.0,0.0,0.0,0.0,0.0,0.0,0.0,0.0,0.0,0.0,0.0,0.0,0.0,0.0,0.0,0.0,0.0,-4.5249,-4.5605,-4.6308,-4.6308,-4.5918,-4.5215,-4.5102,-4.5297,-4.5558,-4.4215,0.0,0.0,0.0,0.0,0.0,0.0,0.0,0.0,0.0,0.0,0.0,0.0,0.0,0.0,0.0,0.0,0.0,0.0,0.0,0.0,0.0,0.0,-2.4505,-2.4678,-2.4924,-2.5449,0.0,0.0,0.0,0.0,0.0,0.0,0.0,-2.464,-2.3403,-2.2459,-2.11,-2.1,-2.2038,-2.3478,-2.4611,-2.5446,-2.555,-2.6087,-2.6951,0.0,0.0,0.0,0.0,0.0,0.0,0.0,0.0,0.0,0.0,0.0,0.0,0.0,0.0,0.0,0.0,0.0,0.0,0.0,0.0,0.0,0.0,0.0,0.0,0.0,0.0,0.0,0.0,0.0,0.0,0.0,0.0,0.0,0.0,0.0,0.0,0.0,0.0,0.0,0.0,0.0,-4.1181,-4.1086,0.0,0.0,0.0,0.0,0.0,0.0,0.0,0.0,0.0,0.0,0.0,0.0,0.0,-4.6143,-4.7622,-4.7125,-4.6929,-4.704,-4.642,-4.6191,-4.6308,-4.6308,-4.623,-4.6133,-4.6113,0.0,-4.3966,-4.4484,0.0,0.0,0.0,0.0,0.0,0.0,0.0,0.0,0.0,0.0,0.0,0.0,0.0,0.0,0.0,0.0,0.0,0.0,0.0,0.0,0.0,-2.326,-2.3768,-2.4221,-2.4657,-2.5228,0.0,0.0,0.0,0.0,0.0,0.0,0.0,-2.4923,-2.3031,-2.0661,-2.0122,-2.0174,-2.0809,-2.1978,-2.3112,-2.418,-2.4466,-2.5611,-2.7303,-2.7404,0.0,0.0,0.0,0.0,0.0,0.0,0.0,0.0,0.0,0.0,0.0,0.0,0.0,0.0,0.0,0.0,0.0,0.0,0.0,0.0,0.0,0.0,0.0,0.0,0.0,0.0,0.0,0.0,0.0,0.0,0.0,0.0,0.0,0.0,0.0,0.0,0.0,0.0,0.0,-4.1277,-4.3506,-4.2579,-4.3535,-4.3675,0.0,0.0,0.0,0.0,0.0,0.0,0.0,0.0,0.0,-4.6278,-4.6778,-4.7178,-4.7513,-4.7727,-4.7365,-4.6503,-4.6299,-4.6198,-4.6198,-4.6268,-4.6308,-4.6308,-4.6308,-4.5858,-4.511,-4.4993,-4.4663,-4.4181,0.0,0.0,0.0,0.0,-4.393,-4.4002,0.0,0.0,0.0,0.0,0.0,0.0,0.0,0.0,0.0,0.0,0.0,0.0,-2.1425,-2.1674,-2.2079,-2.2833,-2.362,-2.4452,-2.5311,0.0,0.0,0.0,0.0,0.0,-2.6514,-2.4249,-2.1607,-1.8549,-1.8559,-1.8721,-1.9013,-2.0045,-2.1213,-2.2435,-2.312,-2.4894,-2.7379,-2.7558,-2.7143,-2.637,0.0,0.0,0.0,0.0,0.0,0.0,0.0,0.0,0.0,0.0,0.0,0.0,0.0,0.0,0.0,0.0,0.0,0.0,0.0,0.0,0.0,0.0,0.0,0.0,0.0,0.0,0.0,0.0,0.0,0.0,0.0,0.0,0.0,0.0,0.0,0.0,0.0,-4.333,-4.5156,-4.4075,-4.5285,-4.5497,0.0,0.0,0.0,0.0,0.0,0.0,-4.522,-4.5278,-4.5874,-4.7182,-4.7798,-4.7817,-4.7221,-4.7712,-4.7332,-4.6106,-4.6068,-4.6075,-4.6089,-4.62,-4.6268,-4.6308,-4.6308,-4.6308,-4.625,-4.5605,-4.531,-4.5194,-4.453,-4.4235,-4.4202,-4.4715,-4.4896,-4.4897,0.0,0.0,0.0,0.0,0.0,0.0,0.0,0.0,0.0,0.0,0.0,-1.7922,-1.9717,-1.8871,-1.8562,-1.9561,-2.0994,-2.252,-2.4079,-2.482,-2.6221,-2.8597,-2.6301,-2.5446,-2.6469,-2.1741,-1.8087,-1.5704,-1.5692,-1.5911,-1.6341,-1.7786,-1.8982,-2.0019,-2.1071,-2.3369,-2.6476,-2.6541,-2.6501,-2.6382,-2.6186,0.0,0.0,0.0,0.0,0.0,0.0,0.0,0.0,0.0,0.0,0.0,0.0,0.0,0.0,0.0,0.0,0.0,0.0,0.0,0.0,0.0,0.0,0.0,0.0,0.0,0.0,0.0,0.0,0.0,0.0,0.0,0.0,0.0,0.0,0.0,0.0,0.0,0.0,-4.5722,-4.603,0.0,0.0,0.0,0.0,-4.4968,-4.6071,-4.7067,-4.7875,-4.7913,-4.7952,-4.8048,-4.8086,-4.8086,-4.8048,-4.7384,-4.7022,-4.6925,-4.625,-4.5981,-4.6108,-4.6113,-4.6175,-4.6308,-4.6308,-4.6308,-4.6308,-4.625,-4.623,-4.623,-4.6172,-4.6152,-4.6132,-4.6042,-4.5936,-4.5716,0.0,0.0,0.0,0.0,0.0,0.0,0.0,0.0,0.0,-1.7471,-1.6845,-1.6424,-1.6581,-1.5983,-1.5711,-1.6032,-1.7264,-1.8805,-2.062,-2.2633,-2.4337,-2.5659,-2.5177,-2.3675,-2.108,-1.739,-1.5071,-1.4185,-1.3243,-1.3263,-1.4138,-1.4713,-1.5675,-1.693,-1.756,-1.924,-2.1734,-2.3954,-2.5051,-2.5309,-2.5266,-2.5278,0.0,0.0,0.0,0.0,0.0,0.0,0.0,0.0,0.0,0.0,0.0,0.0,0.0,0.0,0.0,0.0,0.0,0.0,0.0,0.0,0.0,0.0,0.0,0.0,0.0,0.0,0.0,0.0,0.0,0.0,0.0,0.0,0.0,0.0,0.0,0.0,0.0,-4.6655,-4.714,0.0,-4.5523,-4.5026,-4.4897,-4.5077,-4.6205,-4.7028,-4.7317,-4.7817,-4.8105,-4.8105,-4.8105,-4.7855,-4.7336,-4.706,-4.6648,-4.6089,-4.5925,-4.5859,-4.5911,-4.6047,-4.614,-4.6136,-4.5662,-4.5469,-4.543,-4.4863,-4.5293,-4.623,-4.5683,-4.5469,-4.5371,-4.4722,-4.4451,-4.4351,0.0,0.0,0.0,0.0,0.0,0.0,0.0,0.0,0.0,-1.5308,-1.4437,-1.3645,-1.3007,-1.2033,-1.1497,-1.1594,-1.2739,-1.4254,-1.6192,-1.9268,-2.1443,-2.2439,-2.2643,-2.0569,-1.5926,-1.3854,-1.2469,-1.1792,-1.0779,-1.0679,-1.1395,-1.1683,-1.2406,-1.3508,-1.4187,-1.5384,-1.713,-1.9968,-2.229,-2.4125,-2.451,-2.5007,-2.5541,0.0,0.0,0.0,0.0,0.0,0.0,0.0,0.0,0.0,0.0,0.0,0.0,0.0,0.0,0.0,0.0,0.0,0.0,0.0,0.0,0.0,0.0,0.0,0.0,0.0,0.0,0.0,0.0,0.0,0.0,0.0,0.0,0.0,0.0,-4.6807,-4.7993,-4.7295,-4.7567,-4.7241,-4.5763,-4.5199,-4.5033,-4.5318,-4.6179,-4.6877,-4.7298,-4.7817,-4.799,-4.7702,-4.7702,-4.7298,-4.6471,-4.6471,-4.6163,-4.5603,-4.5677,-4.5606,-4.5364,-4.5554,-4.5484,-4.5234,-4.4762,-4.4551,-4.4492,-4.3613,-4.3945,-4.4961,-4.4668,-4.4551,-4.4492,-4.3857,-4.3622,-4.347,0.0,0.0,0.0,0.0,0.0,0.0,0.0,0.0,-1.424,-1.2659,-1.0816,-0.9477,-0.9092,-0.705,-0.5823,-0.6251,-0.7461,-0.905,-1.1082,-1.4815,-1.7664,-1.9278,-1.8666,-1.6126,-1.1508,-1.1362,-1.032,-0.8308,-0.8288,-0.818,-0.8101,-0.8648,-0.9217,-0.977,-1.0952,-1.1994,-1.3042,-1.4701,-1.8185,-2.2719,-2.3851,-2.4417,-2.4688,0.0,0.0,0.0,0.0,0.0,0.0,0.0,0.0,0.0,0.0,0.0,0.0,0.0,0.0,0.0,0.0,0.0,0.0,0.0,0.0,0.0,0.0,0.0,0.0,0.0,0.0,0.0,0.0,0.0,0.0,0.0,0.0,0.0,-4.6396,-4.7524,-4.8204,-4.7728,-4.729,-4.6582,-4.545,-4.488,-4.4945,-4.5693,-4.6098,-4.6813,-4.7952,-4.8048,-4.7702,-4.6894,-4.6855,-4.6451,-4.5605,-4.5586,-4.5586,-4.5586,-4.5566,-4.5182,-4.4499,-4.4608,-4.4253,-4.3595,-4.3649,-4.3652,-4.3594,-4.2695,-4.2324,-4.2402,-4.3242,-4.3574,-4.3574,-4.3555,-4.3507,-4.3158,0.0,0.0,0.0,0.0,0.0,0.0,0.0,-1.3215,-1.2084,-1.0052,-0.8418,-0.659,-0.434,-0.3267,-0.237,-0.1623,-0.3026,-0.5494,-0.9047,-1.1628,-1.3947,-1.6007,-1.419,-1.1969,-0.9474,-0.7922,-0.687,-0.6299,-0.556,-0.5207,-0.5144,-0.5065,-0.5319,-0.5853,-0.6194,-0.7334,-0.9032,-1.0301,-1.2896,-1.6586,-2.055,-2.3059,-2.4506,0.0,0.0,0.0,0.0,0.0,0.0,0.0,0.0,0.0,0.0,0.0,0.0,0.0,0.0,0.0,0.0,0.0,0.0,0.0,0.0,0.0,0.0,0.0,0.0,0.0,0.0,0.0,0.0,0.0,0.0,0.0,-4.7219,-4.8713,-4.8247,-4.9258,-4.9896,-4.9449,-4.8253,-4.7105,-4.6265,-4.5436,-4.4833,-4.4522,-4.5883,-4.6493,-4.595,-4.6762,-4.6836,-4.597,-4.5951,-4.5836,-4.5586,-4.5586,-4.5586,-4.5586,-4.4951,-4.4542,-4.4338,-4.384,-4.3507,-4.3287,-4.2871,-4.2675,-4.258,-4.117,-4.0586,-4.0605,-4.0859,-4.0937,-4.0879,-4.0234,-3.99,-3.9578,0.0,0.0,0.0,0.0,0.0,0.0,0.0,-1.1923,-1.0123,-0.7008,-0.5494,-0.3471,-0.0214,0.0567,0.119,0.2123,0.1,-0.1379,-0.5235,-0.8654,-1.1226,-1.2733,-1.0693,-0.872,-0.6857,-0.5099,-0.4022,-0.3655,-0.2804,-0.2343,-0.2169,-0.2147,-0.2221,-0.2427,-0.2786,-0.376,-0.517,-0.597,-0.8242,-1.168,-1.5122,-1.9124,-2.3268,-2.5229,-2.6357,-2.7027,-2.8319,-2.9656,-3.082,-3.0956,0.0,0.0,0.0,0.0,0.0,0.0,0.0,0.0,0.0,0.0,0.0,0.0,0.0,0.0,0.0,0.0,0.0,0.0,0.0,0.0,0.0,0.0,0.0,0.0,-4.8677,-5.0059,-5.022,-5.0887,-5.1247,-5.0971,-4.9006,-4.7506,-4.6994,-4.5549,-4.4587,-4.4463,-4.5375,-4.5757,-4.5321,-4.5975,-4.6124,-4.5605,-4.5586,-4.5413,-4.5047,-4.5047,-4.4893,-4.4547,-4.4047,-4.3605,-4.3239,-4.2872,-4.2504,-4.2121,-4.1481,-4.1211,-4.1097,-3.9469,-3.8809,-3.8848,0.0,0.0,0.0,0.0,-3.7987,-3.7175,0.0,0.0,0.0,0.0,0.0,0.0,0.0,-1.1077,-0.8648,-0.4225,-0.2557,-0.0373,0.3291,0.4205,0.469,0.5123,0.4435,0.2406,-0.119,-0.6107,-0.9021,-0.9328,-0.7759,-0.5987,-0.4111,-0.2652,-0.1605,-0.0801,-0.0139,0.04,0.0738,0.0369,0.0361,0.0538,-0.028,-0.098,-0.1521,-0.1933,-0.4169,-0.7477,-0.8793,-1.3957,-2.1127,-2.4039,-2.5574,-2.6406,-2.8209,-2.9547,-3.053,-3.0841,0.0,0.0,0.0,0.0,0.0,0.0,0.0,0.0,0.0,0.0,0.0,0.0,0.0,0.0,0.0,0.0,0.0,0.0,0.0,0.0,0.0,0.0,0.0,0.0,-4.9591,-5.0835,-5.2089,-5.2228,-5.2106,-5.187,-4.947,-4.776,-4.7496,-4.5429,-4.4401,-4.5007,-4.4781,-4.4919,-4.5513,-4.5586,0.0,0.0,0.0,-4.5066,-4.4316,-4.4201,-4.3816,-4.3104,-4.3008,-4.2547,-4.1797,-4.1724,-4.1267,-4.0498,-3.9825,-3.954,-3.9427,-3.7925,-3.7246,-3.7226,-3.8008,-3.8301,-3.8281,-3.8043,-3.6982,-3.5613,0.0,0.0,0.0,0.0,0.0,0.0,0.0,-1.1582,-0.8588,-0.393,-0.1159,0.1894,0.584,0.7164,0.7537,0.6972,0.5606,0.2784,-0.1959,-0.525,-0.6555,-0.543,-0.4072,-0.2887,-0.19,-0.0148,0.0807,0.0983,0.2186,0.2808,0.2879,0.2814,0.2828,0.2841,0.2214,0.1865,0.1632,0.0664,-0.0711,-0.2474,-0.5278,-1.0965,-1.7997,-2.0316,-2.2691,-2.4954,-2.6181,-2.8252,-3.0447,-3.0559,-3.1728,-3.3204,-3.3317,-3.3715,0.0,0.0,0.0,0.0,0.0,0.0,0.0,0.0,0.0,0.0,0.0,0.0,0.0,0.0,0.0,0.0,0.0,0.0,0.0,-4.8934,-5.0336,-5.1561,-5.3098,-5.2317,-5.1234,-5.0354,-4.9039,-4.7809,-4.6819,-4.5617,-4.483,-4.4726,-4.4896,-4.5052,-4.5201,-4.5438,-4.5586,-4.5586,-4.4913,-4.447,-4.4297,-4.3662,-4.3258,-4.3085,-4.2393,0.0,-4.1758,-4.0438,-3.9721,-3.9538,-3.8868,-3.8572,-3.8507,-3.7647,-3.6894,-3.6269,-3.6445,-3.6504,-3.6405,-3.5568,-3.5048,-3.462,0.0,0.0,0.0,0.0,0.0,0.0,0.0,-1.2695,-0.9401,-0.4966,-0.1866,0.1634,0.6115,0.7232,0.7504,0.7142,0.4841,0.2231,-0.0517,-0.2669,-0.332,-0.2191,-0.0808,0.0158,0.066,0.2582,0.3645,0.3751,0.4726,0.5294,0.546,0.542,0.5363,0.529,0.4812,0.4392,0.3961,0.3483,0.2546,0.1183,-0.0761,-0.5084,-1.0909,-1.5772,-1.9354,-2.2062,-2.3967,-2.6456,-2.891,-2.938,-3.0813,-3.2452,-3.2821,-3.3574,-3.4404,0.0,0.0,0.0,0.0,0.0,0.0,0.0,0.0,0.0,0.0,0.0,0.0,0.0,0.0,-4.0288,-4.2179,0.0,-4.6019,-4.8725,-4.9556,-5.0308,-5.1539,-5.0744,-5.0156,-5.0459,-4.8866,-4.7488,-4.6828,-4.5745,-4.5096,-4.5096,-4.5096,-4.518,-4.5342,-4.5513,-4.5586,-4.5586,-4.5182,-4.4547,-4.3701,-4.3297,-4.2662,-4.1777,-4.1354,-4.0854,-4.0296,-3.9604,-3.9065,-3.8614,-3.7929,-3.7642,-3.7605,-3.6923,-3.6133,-3.5351,-3.5351,-3.5351,-3.5234,-3.4254,-3.3599,-3.3122,0.0,0.0,0.0,0.0,0.0,0.0,0.0,0.0,0.0,-0.7172,-0.4029,-0.0388,0.426,0.5589,0.6233,0.6374,0.361,0.1739,0.1546,0.0274,-0.0055,0.0826,0.2231,0.3106,0.3311,0.5205,0.6339,0.6611,0.7105,0.7554,0.7888,0.7841,0.7764,0.7636,0.7203,0.6723,0.6269,0.6084,0.5368,0.4308,0.3234,0.0589,-0.3474,-1.0232,-1.5095,-1.8718,-2.1481,-2.4252,-2.6719,-2.7656,-2.9272,-3.0976,-3.1524,-3.2535,-3.3674,-3.4282,-3.4741,0.0,0.0,0.0,0.0,0.0,0.0,0.0,0.0,-3.703,-3.7294,-3.9188,-3.9934,-4.0974,-4.3306,-4.4458,-4.5783,-4.8013,-4.8377,-4.8629,-4.9401,-4.8903,-4.8951,-5.03,-4.8521,-4.7077,-4.6797,-4.5763,-4.5243,-4.5568,-4.5302,-4.5243,-4.5586,-4.5586,-4.5586,-4.5586,-4.5432,-4.4624,-4.3104,-4.2931,-4.2066,-4.0489,-4.0489,-4.0027,-3.9142,-3.9065,-3.8671,-3.7963,-3.715,-3.6781,-3.6771,-3.6223,-3.5488,-3.4687,-3.4512,-3.4355,-3.4121,-3.3339,-3.2552,-3.1845,0.0,0.0,0.0,0.0,0.0,0.0,0.0,0.0,0.0,-1.0966,-0.7524,-0.4172,-0.0827,0.2523,0.467,0.5001,0.3133,0.2292,0.3035,0.2309,0.2468,0.3842,0.5136,0.5848,0.5901,0.7327,0.8327,0.8769,0.8957,0.9278,0.9701,0.9636,0.9603,0.9573,0.904,0.9026,0.9268,0.7716,0.7232,0.7399,0.4995,0.2931,0.0929,-0.305,-0.9024,-1.5678,-1.8546,-2.1488,-2.4166,-2.531,-2.7187,-2.9222,-2.9992,-3.1187,-3.2471,-3.3376,-3.3349,-3.3231,-3.4123,-3.4507,-3.5133,-3.7198,-3.6114,-3.5621,0.0,-3.8783,-3.793,-3.9182,-4.0523,-4.1684,-4.2205,-4.3334,-4.4929,-4.7226,-4.7567,-4.7747,-4.8379,-4.7949,-4.7619,-4.7806,-4.7397,-4.6813,-4.6084,-4.5464,-4.5243,-4.5568,-4.5302,-4.5243,-4.5586,-4.5586,-4.5586,-4.5586,-4.4855,-4.4008,-4.3104,-4.2335,-4.147,-4.0489,-4.0489,-4.0431,-4.0258,-3.8815,-3.8111,-3.8009,-3.6612,-3.6052,-3.6112,-3.6035,-3.5488,-3.4629,-3.3848,-3.3105,-3.2441,-3.2231,-3.2034,-3.167,0.0,0.0,0.0,0.0,0.0,0.0,0.0,0.0,0.0,0.0,-1.2595,-0.9994,-0.6781,-0.2457,0.08,0.2309,0.3033,0.3542,0.3923,0.4826,0.5623,0.6236,0.7552,0.8514,0.903,1.004,1.089,1.1608,1.1681,1.1785,1.1979,1.1837,1.174,1.173,1.0811,1.0802,1.1259,0.9294,0.887,0.9292,0.6644,0.4737,0.3052,-0.0106,-0.4375,-0.9461,-1.5168,-1.9198,0.0,-2.3909,-2.5686,-2.7183,-2.7654,-2.8582,-2.9705,-3.0571,-3.1088,-3.1721,-3.3296,-3.3504,-3.3804,-3.5851,-3.5835,-3.5892,-3.7956,-3.7615,-3.7169,-3.8361,-3.9446,-4.0213,-4.0293,-4.2037,-4.3761,-4.4602,-4.5556,-4.6328,-4.6774,-4.6737,-4.6608,-4.6534,-4.6419,-4.624,-4.5927,-4.5592,-4.5438,-4.5586,-4.5476,-4.5438,-4.5586,-4.5586,-4.5586,-4.5586,-4.524,-4.4643,-4.3816,-4.297,-4.1857,-4.0511,-4.0508,-3.9835,-3.8569,-3.818,-3.752,-3.6673,-3.6138,-3.5942,-3.5996,-3.5996,-3.5195,-3.3906,-3.3491,-3.251,-3.1317,-3.1267,-3.1192,-3.0969,0.0,0.0,0.0,0.0,0.0,0.0,0.0,0.0,0.0,0.0,0.0,0.0,0.0,-0.6778,-0.291,-0.0153,0.2517,0.4412,0.5233,0.6956,0.8128,0.8729,0.9921,1.0936,1.1733,1.2332,1.3091,1.3976,1.3882,1.3962,1.4245,1.4091,1.3875,1.3632,1.2829,1.2717,1.3,1.0951,1.0475,1.0816,0.7956,0.6054,0.4556,0.1238,-0.1672,-0.4915,-1.2051,-1.6695,-1.9883,-2.2654,-2.4639,-2.5937,-2.6113,-2.6911,-2.7848,-2.8205,-2.8908,-2.9897,-3.1445,-3.1505,-3.1483,-3.3451,-3.4139,-3.4564,-3.5526,-3.5742,-3.6061,-3.7318,-3.8018,-3.8443,-3.8751,-4.0229,-4.1709,-4.2519,-4.3732,-4.4824,-4.5538,-4.5878,-4.61,-4.623,-4.6175,-4.615,-4.6192,-4.5849,-4.5586,-4.5586,-4.5586,-4.5586,-4.5586,-4.5586,-4.5586,-4.5586,-4.5586,-4.5066,-4.397,-4.3404,-4.209,-4.0077,-4.0159,-3.9138,-3.7236,-3.7559,-3.6977,-3.571,-3.5857,-3.597,-3.5996,-3.5996,-3.4961,-3.3376,-3.3324,-3.2212,-3.0673,-3.0642,-3.0467,-3.0075,0.0,0.0,0.0,0.0,0.0,0.0,0.0,0.0,0.0,0.0,0.0,0.0,0.0,-0.9524,-0.5804,-0.1855,0.1432,0.4541,0.7329,0.8246,0.9533,1.1495,1.2308,1.2984,1.3627,1.3883,1.4485,1.5418,1.505,1.5357,1.631,1.6282,1.5857,1.5111,1.5111,1.493,1.4596,1.2624,1.2076,1.2224,0.8705,0.6835,0.5672,0.157,-0.1301,-0.389,-0.9434,-1.3749,-1.7391,-2.1328,-2.4082,-2.5912,-2.6058,-2.6976,-2.7834,-2.7095,-2.7095,-2.7527,-2.8208,-2.7698,-2.762,-2.9846,-2.9985,-3.016,-3.2396,-3.381,-3.4917,-3.6073,-3.6356,-3.6849,-3.7922,-3.7579,-3.8332,-4.1751,-4.2574,-4.3345,-4.4995,-4.5617,-4.6211,-4.705,-4.7032,-4.6956,-4.6965,-4.6143,-4.5586,-4.5586,-4.5586,-4.5586,-4.5586,-4.5586,-4.5586,-4.5586,-4.5586,-4.4797,-4.3143,-4.3173,-4.1802,-3.905,-3.9317,-3.8678,-3.7293,-3.712,-3.6533,-3.5717,-3.5906,-3.5996,-3.5996,-3.5996,-3.4937,-3.3297,-3.3295,-3.2194,-3.06,-3.0529,-2.9965,-2.9132,0.0,0.0,0.0,0.0,0.0,0.0,0.0,0.0,0.0,0.0,0.0,0.0,0.0,0.0,0.0,0.0,-0.0052,0.4009,0.7376,0.9563,1.1197,1.2357,1.3817,1.4862,1.5463,1.5951,1.6563,1.7278,1.7143,1.7423,1.8079,1.7134,1.6899,1.7224,1.5925,1.5603,1.5904,1.3612,1.2904,1.2993,0.9743,0.7934,0.6838,0.37,0.0706,-0.2514,0.0,-1.2097,-1.6795,-2.173,-2.3813,-2.4365,-2.4681,-2.4682,-2.4413,-2.3751,-2.4152,-2.5012,-2.5617,-2.6382,-2.7372,-2.89,-2.9625,-3.0232,-3.1315,-3.167,-3.1734,-3.1769,-3.1881,-3.2063,-3.234,-3.3756,-3.5769,-3.8337,-4.0134,-4.2004,-4.4232,-4.5286,-4.592,-4.6118,-4.7163,-4.7391,-4.6182,-4.6311,-4.6128,-4.5341,-4.5457,-4.5495,-4.5282,-4.5476,-4.5586,-4.5586,-4.5028,-4.447,-4.3893,-4.2897,-4.1931,-4.0982,-3.9367,-3.8061,-3.7013,-3.6409,-3.6027,-3.5841,-3.5951,-3.5996,-3.5996,-3.5948,-3.4884,-3.3289,-3.3212,-3.2089,-3.0521,-3.0452,-2.989,-2.908,0.0,0.0,0.0,0.0,0.0,0.0,0.0,0.0,0.0,0.0,0.0,0.0,0.0,0.0,0.0,0.0,0.0,0.3308,0.7723,1.0132,1.2015,1.3396,1.4613,1.5591,1.6417,1.6827,1.7306,1.7903,1.8103,1.848,1.8983,1.8125,1.7933,1.8258,1.685,1.6604,1.7009,1.4997,1.4285,1.4247,1.1227,0.9265,0.7856,0.4238,0.0975,0.0,-0.7628,-1.192,-1.5928,-2.1114,-2.3353,-2.3984,-2.405,-2.3185,-2.2235,-2.2387,-2.253,-2.3006,-2.4124,-2.4982,-2.5753,-2.6241,-2.7022,-2.7567,-2.7538,-2.7679,-2.781,-2.7931,-2.8042,-2.8208,-2.8645,-3.0566,-3.2872,-3.5123,-3.7553,-4.002,-4.2622,-4.4071,-4.5271,-4.628,-4.7514,-4.7955,-4.7064,-4.7069,-4.6741,-4.5799,-4.5937,-4.5956,-4.5762,-4.5667,-4.5586,-4.5586,-4.5047,-4.447,-4.3874,-4.2916,-4.1834,-4.0626,-3.8374,-3.6998,-3.6424,-3.5912,-3.5766,-3.5903,-3.5973,-3.5995,-3.5951,-3.5913,-3.4831,-3.3229,-3.3134,-3.201,-3.0462,-3.0425,-3.0044,-2.9525,0.0,0.0,0.0,0.0,0.0,0.0,0.0,0.0,0.0,0.0,0.0,0.0,0.0,0.0,0.0,0.0,0.0,0.0,0.8092,0.9834,1.1818,1.4446,1.4674,1.5289,1.6473,1.6554,1.6873,1.7426,1.7953,1.8505,1.9046,1.9239,1.8985,1.8371,1.8016,1.791,1.791,1.6645,1.6069,1.5757,1.2931,1.0778,0.8595,0.3389,-0.0195,-0.3378,-0.9666,-1.276,-1.4629,-1.9542,-2.2717,-2.4551,-2.4026,-2.2542,-2.1227,-2.2592,-2.2083,-2.1401,-2.3196,-2.3298,-2.2811,-2.2108,-2.2303,-2.2461,-2.1467,-2.2261,-2.3472,-2.4448,-2.4913,-2.5509,-2.6818,-2.796,-2.9697,-3.2419,-3.4911,-3.7498,-4.0349,-4.2174,-4.4341,-4.7242,-4.7957,-4.8488,-4.9087,-4.8211,-4.7363,-4.6877,-4.6819,-4.6799,-4.6838,-4.6049,-4.5586,-4.5586,-4.5509,-4.4701,-4.3124,-4.3032,-4.1374,-3.8121,-3.6534,-3.5718,-3.5611,-3.5667,-3.5772,-3.5907,-3.5973,-3.5951,-3.5903,-3.59,-3.482,-3.3151,-3.3103,-3.2018,-3.0456,-3.0417,-3.0398,-3.0294,0.0,0.0,0.0,0.0,0.0,0.0,0.0,0.0,0.0,0.0,0.0,0.0,0.0,0.0,0.0,0.0,0.0,0.0,0.5006,0.7713,1.01,1.2368,1.4253,1.5602,1.6411,1.7309,1.784,1.8003,1.8141,1.8681,1.9559,1.9076,1.9112,1.968,1.8926,1.8337,1.7767,1.6782,1.5642,1.4446,1.276,1.0679,0.82,0.4638,0.1216,-0.2284,-0.7447,-1.0151,-1.2226,-1.8615,-2.1636,-2.2613,-2.203,-2.0616,-1.9213,-1.9218,-1.8813,-1.8505,-1.9388,-2.0271,-2.0845,-2.0661,-2.0227,-2.0047,-2.0782,-2.0419,-2.0224,-2.1181,-2.1889,-2.2591,-2.3251,-2.5311,-2.7831,-3.085,-3.3254,-3.6043,-3.9491,-4.1499,-4.3167,-4.4571,-4.6316,-4.6982,-4.5941,-4.6683,-4.6904,-4.612,-4.5537,-4.5437,-4.6038,-4.5532,-4.5342,-4.5586,-4.4393,-4.3528,-4.3104,-4.1374,-3.9429,-3.7288,-3.6871,-3.6372,-3.5816,-3.5743,-3.5797,-3.5974,-3.5996,-3.5951,-3.59,-3.5797,-3.5053,-3.3926,-3.3222,-3.2293,-3.1295,-3.0641,-3.0398,-3.0359,0.0,0.0,0.0,0.0,0.0,0.0,0.0,0.0,0.0,0.0,0.0,0.0,0.0,0.0,0.0,0.0,0.0,0.0,0.0,0.413,0.6641,0.8707,1.045,1.1972,1.3283,1.4408,1.511,1.5289,1.6486,1.7494,1.8256,1.8172,1.8716,1.9769,1.86,1.7869,1.7496,1.6658,1.5233,0.0,0.0,1.083,0.788,0.4983,0.1882,-0.1467,-0.5709,-0.8189,-1.0068,-1.409,-1.7544,-2.0232,-2.026,-1.9343,-1.8082,-1.7156,-1.7056,-1.736,-1.7683,-1.8823,-1.96,-1.8442,-1.7912,-1.7516,-1.7105,-1.6884,-1.7085,-1.8033,-1.8832,-1.9762,-2.0738,-2.2553,-2.4777,-2.744,-3.0546,-3.3865,-3.7342,-4.0114,-4.235,-4.3822,-4.5509,-4.6304,-4.5738,-4.6055,-4.6252,-4.611,-4.5499,-4.5315,-4.5787,-4.5333,-4.5201,-4.5362,-4.4245,-4.3085,-4.197,-4.0003,-3.8302,-3.6861,-3.6958,-3.6573,-3.5775,-3.573,-3.5792,-3.595,-3.5995,-3.5927,-3.5807,-3.5723,-3.49,-3.3639,-3.3102,-3.2179,-3.1083,-3.0571,-3.016,-2.989,0.0,0.0,0.0,0.0,0.0,0.0,0.0,0.0,0.0,0.0,0.0,0.0,0.0,0.0,0.0,0.0,0.0,0.0,0.0,0.0,0.0,0.3826,0.4665,0.6112,0.8232,0.932,1.0234,1.1011,1.3549,1.5154,1.5914,1.6735,1.7797,1.9022,1.7611,1.6951,1.6928,1.63,1.4758,1.2871,1.2808,1.0725,0.744,0.0,0.0,-0.0819,-0.4204,-0.636,-0.7753,-0.7873,-1.1935,-1.7026,-1.7862,-1.7625,-1.6797,-1.5503,-1.5724,-1.6459,-1.6544,-1.7515,-1.798,-1.5718,-1.5242,-1.4867,-1.2813,-1.3213,-1.4261,-1.549,-1.6479,-1.7425,-1.8902,-2.0048,-2.1581,-2.4006,-2.7762,-3.154,-3.4932,-3.8526,-4.1598,-4.3668,-4.4804,-4.5688,-4.6431,-4.5623,-4.5345,-4.6052,-4.5723,-4.5565,-4.5714,-4.5266,-4.4979,-4.4834,-4.4268,-4.2739,-4.0181,-3.8907,-3.7696,-3.6568,-3.6726,-3.639,-3.5621,-3.5667,-3.5766,-3.5903,-3.5973,-3.5899,-3.5703,-3.5703,-3.4729,-3.3218,-3.2987,-3.2006,-3.0686,-3.0475,-2.9852,-2.9217,0.0,0.0,0.0,0.0,0.0,0.0,0.0,0.0,0.0,0.0,0.0,0.0,0.0,0.0,0.0,0.0,0.0,0.0,0.0,0.0,0.0,0.0,-0.1174,0.042,0.2422,0.3708,0.5571,0.7973,0.966,1.167,1.392,1.4687,1.5877,1.7376,1.7109,1.6507,1.5644,1.5467,1.41,1.1921,1.122,0.9268,0.6534,0.0,0.0,0.0,-0.248,-0.357,-0.3971,-0.3528,-0.7129,-1.1789,-1.2261,-1.2386,-1.2396,-1.2419,-1.2111,-1.1863,-1.2514,-1.2987,-1.308,-1.2705,-1.1765,-1.1444,-1.2853,-1.2541,-1.2592,-1.4689,-1.6216,-1.7266,-1.759,-1.9047,-2.1247,-2.4452,-2.7476,-3.0771,-3.4681,-3.787,-4.0234,-4.1317,-4.2513,-4.3306,-4.3451,-4.3664,-4.3873,-4.4002,-4.3941,-4.4304,-4.5263,-4.4907,-4.4315,-4.3478,-4.2665,-4.1008,-3.845,-3.8226,-3.7364,-3.5781,-3.5834,-3.5784,-3.5682,-3.5696,-3.5766,-3.5903,-3.5973,-3.5899,-3.5703,-3.5703,-3.5437,-3.4911,-3.3468,-3.2718,-3.2295,-3.091,-2.9852,-2.9217,0.0,0.0,0.0,0.0,0.0,0.0,0.0,0.0,0.0,0.0,0.0,0.0,0.0,0.0,0.0,0.0,0.0,0.0,0.0,0.0,0.0,0.0,0.0,0.0,-0.3671,-0.1905,-0.0247,0.138,0.0,0.6246,0.8504,0.9883,1.1946,1.4463,1.4509,1.399,1.3024,1.3378,1.2054,0.9643,0.9649,0.8133,0.5701,0.0,0.0,0.0,-0.0346,-0.0576,-0.0374,0.1428,-0.0375,-0.3819,-0.6533,-0.7899,-0.8482,-0.829,-0.8497,-0.8736,-0.8641,-0.9163,-0.9803,-0.9836,-0.996,-1.0175,-1.1031,-1.1801,-1.2567,-1.3594,-1.4898,-1.602,-1.6788,-1.8002,-2.0087,-2.3756,-2.6942,-3.0524,-3.4837,-3.8191,-4.0641,-4.1921,-4.2833,-4.3501,-4.3862,-4.4116,-4.4236,-4.4105,-4.4121,-4.4189,-4.4299,-4.4074,-4.3681,-4.3126,-4.1816,-4.0342,-3.8737,-3.8346,-3.7741,-3.6957,-3.6492,-3.625,-3.62,-3.5854,-3.5749,-3.5827,-3.6419,-3.6309,-3.5742,-3.6197,-3.5504,-3.4064,-3.3237,-3.2372,-3.1506,-3.0698,-2.9852,-2.9217,0.0,0.0,0.0,0.0,0.0,0.0,0.0,0.0,0.0,0.0,0.0,0.0,0.0,0.0,0.0,0.0,0.0,0.0,0.0,0.0,0.0,0.0,0.0,0.0,-1.0001,0.0,0.0,-0.5745,-0.2769,0.0,0.0,0.0,0.0,0.0,1.0713,1.095,1.0915,1.1464,1.0372,0.0,0.0,0.7453,0.5339,0.0,0.0,0.0,0.0,0.2051,0.2706,0.5822,0.5749,0.3777,0.0,-0.2621,-0.4249,-0.3938,-0.4621,-0.5364,-0.4962,-0.5937,-0.7109,-0.7461,-0.8572,-0.9458,-0.9324,-1.0997,-1.2648,-1.2698,-1.3828,-1.5259,-1.659,-1.7571,-1.9463,-2.3536,-2.687,-3.057,-3.5269,-3.8688,-4.1328,-4.2971,-4.3704,-4.4261,-4.4731,-4.4736,-4.466,-4.4471,-4.4504,-4.4294,-4.3763,-4.3548,-4.3308,-4.3107,-4.1613,-4.0364,-3.9417,-3.8759,-3.8371,-3.8188,-3.751,-3.7116,-3.6999,-3.6498,-3.6281,-3.6326,-3.7003,-3.6802,-3.6047,-3.634,-3.5163,-3.3152,-3.2788,-3.1789,-3.0541,-3.0189,-2.9517,-2.8883,0.0,0.0,0.0,0.0,0.0,0.0,0.0,0.0,0.0,0.0,0.0,0.0,0.0,0.0,0.0,0.0,0.0,0.0,0.0,0.0,0.0,0.0,0.0,0.0,0.0,0.0,0.0,-1.1466,-0.9851,0.0,0.0,0.0,0.0,0.0,0.0,0.8218,1.0808,1.0933,0.0,0.0,0.0,0.0,0.0,0.0,0.0,0.0,0.0,0.3418,0.4748,0.8148,0.897,0.8566,0.843,0.4937,0.0795,-0.0164,-0.0433,-0.0734,-0.1819,-0.3236,-0.4678,-0.5914,-0.7226,-0.8343,-0.9149,-1.0352,-1.1509,-1.2204,-1.4262,-1.6259,-1.7303,-1.8625,-2.0987,-2.5518,-2.7909,-3.0933,-3.5801,-3.9083,-4.1482,-4.2832,-4.3777,-4.4216,-4.4092,-4.3984,-4.3844,-4.3628,-4.3883,-4.4181,-4.4474,-4.4033,-4.3539,-4.3107,-4.229,-4.1079,-3.9417,-3.932,-3.8914,-3.8208,-3.813,-3.8081,-3.805,-3.8124,-3.8143,-3.8128,-3.7555,-3.7201,-3.695,-3.5371,-3.4497,-3.4012,-3.2432,-3.1571,-3.1016,-2.9516,-2.8395,-2.7777,0.0,0.0,0.0,0.0,0.0,0.0,0.0,0.0,0.0,0.0,0.0,0.0,0.0,0.0,0.0,0.0,0.0,0.0,0.0,0.0,0.0,0.0,0.0,0.0,0.0,0.0,-1.7658,-1.7016,-1.5808,0.0,0.0,0.0,0.0,0.0,0.0,0.2244,0.4221,0.7524,0.0,0.0,0.0,0.0,0.0,0.0,0.0,0.0,0.0,0.0,0.715,1.0177,1.083,1.0345,1.0233,0.7969,0.4813,0.1847,0.0437,-0.0636,-0.2582,-0.419,-0.5696,-0.7845,-0.9095,-1.0113,-1.1046,-1.2639,-1.3887,-1.4083,-1.6001,-1.8227,-1.9788,-2.1202,-2.3455,-2.7539,-2.9499,-3.1918,-3.5899,-3.8323,-4.0611,-4.2965,-4.3893,-4.4669,-4.5388,-4.5344,-4.5049,-4.4554,-4.4608,-4.4713,-4.4896,-4.4211,-4.3827,-4.3835,-4.2632,-4.1687,-4.1024,-4.0023,-3.9649,-3.9864,-3.8782,-3.8536,-3.9041,-3.86,-3.8404,-3.8388,-3.8161,-3.7749,-3.709,-3.5811,-3.461,-3.3442,-3.2193,-3.1232,-3.0433,-2.9766,-2.9235,-2.8866,0.0,0.0,0.0,0.0,0.0,0.0,0.0,0.0,0.0,0.0,0.0,0.0,0.0,0.0,0.0,0.0,0.0,0.0,0.0,0.0,0.0,0.0,0.0,0.0,0.0,0.0,-2.0543,-2.118,-2.0697,-2.0344,0.0,0.0,-1.6126,-1.3543,0.0,0.0,0.0,0.0,0.0,0.0,0.0,0.0,0.0,0.0,0.0,0.0,0.0,0.0,0.0,0.0,0.0,0.8197,0.7561,0.6296,0.4688,0.2324,0.0433,-0.1437,-0.4137,-0.6222,-0.8302,-1.0833,-1.1754,-1.2426,-1.3665,-1.5253,-1.6508,-1.6415,-1.8543,-2.1063,-2.2867,-2.4342,-2.6412,-3.0182,-3.165,-3.3471,-3.6877,-3.8647,-4.0528,-4.3026,-4.3796,-4.4438,-4.5348,-4.5369,-4.5205,-4.4867,-4.4758,-4.4734,-4.4734,-4.3996,-4.3694,-4.3975,-4.2712,-4.1947,-4.1772,-4.0591,-4.0349,-4.0976,-3.9711,-3.9415,-3.9994,-3.9478,-3.9222,-3.9203,-3.8787,-3.8199,-3.7425,-3.5733,-3.4268,-3.2986,-3.1788,-3.0732,-2.987,-2.9639,-2.942,-2.9231,0.0,0.0,0.0,0.0,0.0,0.0,0.0,0.0,0.0,0.0,0.0,0.0,0.0,0.0,0.0,0.0,0.0,0.0,0.0,0.0,0.0,0.0,0.0,0.0,0.0,0.0,-2.3275,-2.3473,-2.437,-2.4778,-2.4613,-2.3605,-2.1623,-1.8783,0.0,0.0,0.0,0.0,0.0,0.0,0.0,0.0,0.0,0.0,0.0,0.0,0.0,0.0,0.0,0.0,0.0,0.0,0.0,-0.0654,-0.0947,0.1168,0.0,-0.267,-0.5998,-0.9154,-1.2133,-1.4492,-1.4974,-1.5161,-1.6617,-1.7665,-1.8514,-1.8879,-2.1838,-2.482,-2.657,-2.7755,-2.9813,-3.3729,-3.4353,-3.5654,-3.9227,-4.0561,-4.1642,-4.2922,-4.3287,-4.3367,-4.3247,-4.3216,-4.3428,-4.3986,-4.3888,-4.3817,-4.3817,-4.3349,-4.3142,-4.3215,-4.249,-4.1753,-4.1016,-4.0996,-4.0996,-4.0996,-4.0976,-4.0976,-4.0996,-4.111,-4.1172,-4.1074,-3.9355,-3.8511,-3.8128,-3.4642,-3.3179,-3.2928,-3.1113,-3.0114,-2.9619,-2.8822,-2.835,-2.8107,0.0,0.0,0.0,0.0,0.0,0.0,0.0,0.0,0.0,0.0,0.0,0.0,0.0,0.0,0.0,0.0,0.0,0.0,0.0,0.0,0.0,0.0,0.0,0.0,0.0,0.0,-2.3912,-2.4657,-2.5096,-2.6025,-2.7347,-2.6246,-2.5453,-2.4742,-2.0302,-1.6819,0.0,0.0,0.0,0.0,0.0,0.0,0.6885,0.0,0.0,0.0,0.0,0.0,0.0,0.0,0.0,0.0,0.0,0.0,0.0,-1.0551,-0.9953,-0.9533,-1.3248,-1.6004,-1.8223,-1.9921,-2.0198,-2.0312,-2.0825,-2.1935,-2.2998,-2.3631,-2.6424,-2.8851,-2.9489,-3.1235,-3.3233,-3.5007,-3.5737,-3.6603,-3.8211,-4.0017,-4.1535,-4.2459,-4.3746,-4.4472,-4.4255,-4.4188,-4.4252,-4.4401,-4.4233,-4.4134,-4.4134,-4.29,-4.2526,-4.3176,-4.2481,-4.2026,-4.1889,-4.1394,-4.1149,-4.1149,-4.1149,-4.1149,-4.1149,-4.1171,-4.1191,-4.1133,-3.998,-3.9077,-3.8225,-3.5928,-3.4454,-3.3473,-3.1692,-3.0734,-3.0223,-2.94,-2.8942,-2.8725,0.0,0.0,0.0,0.0,0.0,0.0,0.0,0.0,0.0,0.0,0.0,0.0,0.0,0.0,0.0,0.0,0.0,0.0,0.0,0.0,0.0,0.0,0.0,0.0,0.0,-2.4187,-2.4571,-2.5059,-2.5806,-2.6676,-2.7615,-2.6968,-2.712,-2.7755,-2.4068,-2.1893,0.0,0.0,0.0,0.0,0.0,0.0,0.1141,0.0,0.0,0.0,0.0,0.0,0.0,0.0,0.0,0.0,0.0,0.0,0.0,0.0,-1.887,-1.7961,-1.9737,-2.1625,-2.343,-2.4677,-2.4466,-2.4248,-2.5218,-2.6072,-2.7028,-2.8536,-3.0651,-3.2455,-3.3244,-3.467,-3.5995,-3.6783,-3.7491,-3.8223,-3.8969,-4.0541,-4.1861,-4.2555,-4.3423,-4.3944,-4.3961,-4.4008,-4.4233,-4.458,-4.399,-4.3691,-4.3835,-4.2283,-4.166,-4.2283,-4.1848,-4.1695,-4.1875,-4.1423,-4.1191,-4.1191,-4.1191,-4.1191,-4.1191,-4.1191,-4.1191,-4.1152,-4.0273,-3.9307,0.0,-3.6391,-3.4942,-3.371,-3.2178,-3.1374,-3.0956,-3.0137,-2.9584,-2.9199,0.0,0.0,0.0,0.0,0.0,0.0,0.0,0.0,0.0,0.0,0.0,0.0,0.0,0.0,0.0,0.0,0.0,0.0,0.0,0.0,0.0,0.0,0.0,0.0,0.0,-2.513,-2.5355,-2.5017,-2.6554,-2.6939,-2.6197,-2.6337,-2.7098,-2.8272,-2.6749,-2.6064,0.0,0.0,0.0,0.0,0.0,0.0,0.0,0.0,0.0,0.0,0.0,0.0,0.0,0.0,0.0,0.0,0.0,0.0,0.0,0.0,0.0,0.0,0.0,-2.6236,-2.7755,-2.8799,-2.7952,-2.7418,-2.9763,-3.0099,0.0,-3.334,-3.4459,-3.554,-3.7418,-3.7874,-3.8167,-3.8901,-3.9465,-4.0186,-4.1087,-4.183,-4.2533,-4.3143,-4.2583,-4.2279,-4.2559,-4.2995,-4.3582,-4.4433,-4.3263,-4.2642,-4.2992,-4.1531,-4.0731,-4.0793,-4.0809,-4.0911,-4.1113,-4.1172,-4.1152,-4.1094,-4.1172,-4.1191,-4.1172,-4.1133,-4.1133,-4.1152,-4.0215,-3.922,-3.815,-3.6287,-3.4866,-3.3758,-3.26,-3.2004,-3.1708,-3.0869,-3.0155,-2.9511,0.0,0.0,0.0,0.0,0.0,0.0,0.0,0.0,0.0,0.0,0.0,0.0,0.0,0.0,0.0,0.0,0.0,0.0,0.0,0.0,0.0,0.0,0.0,0.0,0.0,-2.6561,-2.6691,-2.7017,-2.7355,-2.7695,-2.7976,-2.7667,-2.7995,-2.8798,-2.8126,-2.7714,0.0,0.0,0.0,0.0,0.0,0.0,0.0,0.0,0.0,0.0,-1.743,-1.9891,0.0,0.0,0.0,0.0,0.0,0.0,0.0,0.0,-3.0874,-3.1496,-3.1174,0.0,-3.0319,-3.1599,-3.1976,-3.231,0.0,-3.4172,-3.5018,-3.6876,-3.7472,-3.7837,-3.8387,-3.937,-3.992,-3.9137,-3.9911,-4.0772,-4.1172,-4.183,-4.2533,-4.3143,-4.2911,-4.2455,-4.1863,-4.3015,-4.3759,-4.3623,-4.2921,-4.2374,-4.2126,-4.1202,-4.0731,-4.0793,-4.0908,-4.0714,-4.0215,-4.0879,-4.0818,-4.0054,-4.0837,-4.115,-4.1033,-4.0466,-4.0566,-4.1113,-3.957,-3.8673,-3.8215,-3.7097,-3.5777,-3.4357,-3.3133,-3.2366,-3.181,-3.0643,-2.9762,-2.914,0.0,0.0,0.0,0.0,0.0,0.0,0.0,0.0,0.0,0.0,0.0,0.0,0.0,0.0,0.0,0.0,0.0,0.0,0.0,0.0,0.0,0.0,0.0,-2.6319,-2.7109,-2.7344,-2.7513,-2.7651,-2.7854,-2.7897,-2.7708,-2.7513,-2.799,-2.903,-3.0045,-3.0285,0.0,0.0,0.0,0.0,-2.3358,0.0,0.0,0.0,0.0,0.0,-2.464,-2.5981,0.0,-2.8346,-2.8585,-2.8742,0.0,0.0,0.0,0.0,-3.2704,-3.304,-3.3263,-3.2882,-3.2625,-3.3567,-3.4037,-3.4464,-3.534,-3.5768,-3.6628,-3.881,-3.893,-3.8903,-3.9931,-4.0844,-4.1073,-4.0018,-4.103,-4.2029,-4.2206,-4.1982,-4.2159,-4.3108,-4.2717,-4.2145,-4.1501,-4.2527,-4.3092,-4.2775,-4.212,-4.1738,-4.18,-4.1125,-4.0752,-4.0793,-4.0602,-4.0503,-4.0508,-4.0566,-4.0526,-4.0398,-4.0526,-4.076,-4.1082,-4.0683,-4.0742,-4.1152,-4.0195,-3.922,-3.8254,-3.7658,-3.6344,-3.4597,-3.358,-3.291,-3.2385,-3.1107,-3.0078,-2.9232,0.0,0.0,0.0,0.0,0.0,0.0,0.0,0.0,0.0,0.0,0.0,0.0,0.0,0.0,0.0,0.0,0.0,0.0,0.0,0.0,0.0,0.0,0.0,-2.6882,-2.7326,-2.7998,-2.8283,-2.8184,-2.8498,-2.8228,-2.7452,-2.7383,-2.8084,-2.944,-3.1715,-3.2577,0.0,-3.2436,-3.2274,-3.1843,-3.0359,0.0,0.0,0.0,0.0,0.0,0.0,0.0,0.0,-2.9832,-2.9474,-2.9365,-3.0996,0.0,0.0,0.0,0.0,0.0,-3.3671,-3.4195,-3.4746,-3.5244,-3.5366,-3.558,-3.6399,-3.6684,-3.7488,-3.9932,-3.9665,-3.9573,-4.1442,-4.1936,-4.1764,-4.0948,-4.2043,-4.3168,-4.3501,-4.2377,-4.1835,-4.2763,-4.2316,-4.1747,-4.1302,-4.1883,-4.2199,-4.1902,-4.1216,-4.1016,-4.1572,-4.0992,-4.0618,-4.0618,-4.002,-4.0059,-4.0801,-4.0078,-4.0058,-4.0761,-4.0176,-4.0273,-4.0976,-4.0996,-4.0996,-4.0996,-4.0839,-3.9761,-3.8072,-3.785,-3.6531,-3.4614,-3.3852,-3.3377,-3.2942,-3.1741,-3.0608,-2.9591,0.0,0.0,0.0,0.0,0.0,0.0,0.0,0.0,0.0,0.0,0.0,0.0,0.0,0.0,0.0,0.0,0.0,0.0,0.0,0.0,0.0,0.0,-2.7731,-2.7787,-2.9248,-2.9397,-2.9893,-3.0812,-3.0097,-3.0122,-3.0828,-2.988,-2.9953,-3.0899,-3.157,-3.2135,-3.2619,-3.3388,-3.4047,-3.4483,-3.3708,0.0,0.0,0.0,0.0,0.0,0.0,0.0,0.0,-3.177,-3.1146,-3.0532,-3.1709,0.0,0.0,0.0,0.0,0.0,-3.4516,-3.5613,-3.6781,-3.7308,-3.743,-3.7783,-3.9021,-3.9816,-4.0452,-4.087,-4.0963,-4.1157,-4.1718,-4.1831,-4.1471,-4.0402,-4.146,-4.2876,-4.4163,-4.3523,-4.2506,-4.1475,-4.2072,-4.2021,-4.06,-4.1555,-4.1927,-4.1067,-4.0871,-4.077,-4.0704,-4.0109,-3.9782,-3.9782,-3.9139,-3.8867,-3.9004,-3.8867,-3.8805,-3.8837,-3.9567,-3.9918,-3.9933,-4.0056,-4.0098,-4.0058,-3.9203,-3.8205,-3.7189,-3.7085,-3.6118,-3.4595,-3.3704,-3.3042,-3.25,-3.1556,-3.0721,-2.9887,0.0,0.0,0.0,0.0,0.0,0.0,0.0,0.0,0.0,0.0,0.0,0.0,0.0,0.0,0.0,0.0,0.0,0.0,0.0,0.0,0.0,-2.9236,-2.775,-2.754,-2.8857,-2.8678,-2.8924,-2.9677,-2.8611,-2.8522,-2.9293,-2.9996,-3.1013,-3.2261,-3.3182,-3.4029,-3.4808,-3.5338,-3.6005,-3.668,0.0,0.0,0.0,0.0,0.0,0.0,0.0,0.0,0.0,0.0,-3.1383,-3.1032,-3.1393,0.0,0.0,0.0,0.0,0.0,-3.4195,-3.5076,-3.6326,-3.7464,-3.8209,-3.8938,-3.9857,-4.0342,-4.0812,-4.1577,-4.1559,-4.1589,-4.2181,-4.2414,-4.2683,-4.2962,-4.3093,-4.3412,-4.4185,-4.2875,-4.1595,-4.0867,-4.1145,-4.0925,-3.9734,-4.006,-4.0096,-3.9486,-3.9048,-3.8893,-3.9146,-3.8995,-3.8906,-3.8894,-3.8244,-3.8125,-3.8594,-3.7676,-3.7636,-3.8506,-3.8983,-3.9413,-3.9836,-4.0351,-4.0311,-3.9776,-3.9309,-3.8442,-3.7343,-3.6887,-3.6064,-3.4992,-3.3623,-3.2841,-3.2331,-3.1079,-3.0142,-2.9403,0.0,0.0,0.0,0.0,0.0,0.0,0.0,0.0,0.0,0.0,0.0,0.0,0.0,0.0,0.0,0.0,0.0,0.0,0.0,0.0,-3.032,-2.954,-2.7614,-2.6873,-2.7536,-2.7234,-2.738,-2.7944,-2.6793,-2.6588,-2.732,-2.9631,-3.1627,-3.3376,-3.4665,-3.5892,-3.6991,-3.7343,-3.7846,-3.8396,0.0,0.0,0.0,0.0,0.0,0.0,0.0,0.0,0.0,0.0,0.0,0.0,0.0,0.0,0.0,-3.2393,-3.3358,-3.4164,-3.3496,-3.4176,-3.5387,-3.6575,-3.7934,-3.927,-4.0334,-4.0687,-4.1125,-4.2393,-4.2396,-4.2357,-4.2894,-4.2926,-4.3432,-4.5145,-4.4449,-4.3775,-4.4095,-4.2314,-4.0896,-4.0636,-4.0282,-3.9751,-3.899,-3.8615,-3.8331,-3.8041,-3.7448,-3.7356,-3.7973,-3.8169,-3.8163,-3.7999,-3.751,-3.748,-3.7967,-3.6638,-3.6757,-3.8301,-3.8301,-3.8652,-3.9316,-4.0155,-4.0012,-3.9126,-3.9204,-3.8432,-3.7084,-3.6569,-3.5837,-3.4902,-3.3458,-3.2616,-3.2022,-3.0462,-2.9542,-2.8892,0.0,0.0,0.0,0.0,0.0,0.0,0.0,0.0,0.0,0.0,0.0,0.0,0.0,0.0,0.0,0.0,0.0,0.0,0.0,0.0,-3.0492,-2.9816,-2.7446,-2.5982,-2.561,-2.5558,-2.6103,-2.718,-2.5976,-2.6007,-2.7267,-2.9598,-3.1864,-3.398,-3.4958,-3.6387,-3.8124,-3.8908,-3.9259,-3.9367,-4.0024,0.0,0.0,0.0,0.0,0.0,0.0,0.0,0.0,0.0,0.0,0.0,0.0,0.0,-3.0997,-3.1035,-3.2019,-3.3031,-3.2585,-3.3582,-3.4719,-3.4721,-3.6242,-3.8422,-4.1011,-4.2087,-4.2732,-4.3523,-4.4106,-4.4346,-4.3894,-4.2792,-4.2612,-4.4767,-4.3935,-4.3253,-4.4095,-4.2774,-4.1456,-4.0707,-3.9743,-3.9041,-3.8742,-3.8046,-3.7479,-3.7197,-3.7128,-3.7356,-3.7973,-3.8066,-3.7802,-3.7129,-3.7118,-3.6791,-3.6102,-3.5965,-3.6413,-3.7383,-3.7383,-3.7422,-3.7519,-3.8268,-3.8154,-3.7398,-3.7704,-3.6922,-3.5402,-3.5798,-3.5075,-3.3678,-3.3125,-3.2258,-3.1128,-2.9826,-2.9187,-2.8837,0.0,0.0,0.0,0.0,0.0,0.0,0.0,0.0,0.0,0.0,0.0,0.0,0.0,0.0,0.0,0.0,0.0,0.0,0.0,0.0,-3.1546,-3.0587,-2.7738,-2.5216,-2.3151,-2.2315,-2.2528,-2.3796,-2.4808,-2.6078,-2.7646,-3.0478,-3.331,-3.6017,-3.6809,-3.7858,-3.9078,-3.9267,-3.9676,-4.0227,-4.0424,-3.9976,0.0,0.0,0.0,0.0,0.0,0.0,0.0,0.0,-3.3121,-3.2659,-3.1924,-3.1571,-3.144,-3.1635,-3.2446,-3.3026,-3.1995,-3.3529,-3.53,-3.4644,-3.5783,-3.759,-3.9425,-4.0762,-4.1941,-4.2897,-4.364,-4.3935,-4.3235,-4.3367,-4.3751,-4.4209,-4.4126,-4.3971,-4.379,-4.2394,-4.0763,-3.9174,-3.8011,-3.7184,-3.6812,-3.5839,-3.5457,-3.604,-3.56,-3.5562,-3.616,-3.6257,-3.625,-3.6134,-3.6279,-3.6208,-3.5896,-3.5906,-3.6105,-3.6491,-3.6999,-3.7184,-3.7136,-3.8011,-3.7798,-3.6775,-3.6897,-3.6364,-3.5356,-3.4996,-3.4543,-3.3978,-3.2719,-3.1809,-3.1067,-2.9746,-2.8976,-2.836,0.0,0.0,0.0,0.0,0.0,0.0,0.0,0.0,0.0,0.0,0.0,0.0,0.0,0.0,0.0,0.0,0.0,0.0,-3.1366,-3.2053,-3.2053,-3.116,-2.838,-2.5617,-2.2893,-2.0996,-2.044,-2.136,-2.4319,-2.6581,-2.8203,-3.1393,-3.4224,-3.6684,-3.7787,-3.8761,-3.9617,-3.9429,-3.9876,-4.0721,-4.0623,-4.0256,0.0,0.0,0.0,0.0,0.0,0.0,0.0,0.0,-3.3314,-3.3122,-3.2045,-3.1698,-3.1699,-3.1764,-3.2524,-3.3119,-3.1954,-3.3564,-3.537,-3.4661,-3.547,-3.6791,-3.8122,-3.9582,-4.1073,-4.2601,-4.3212,-4.3325,-4.2936,-4.3451,-4.3905,-4.3739,-4.3816,-4.3666,-4.2921,-4.1138,-3.9349,-3.7934,-3.6389,-3.5393,-3.525,-3.443,-3.4191,-3.4778,-3.4282,-3.4047,-3.4306,-3.4849,-3.5155,-3.5102,-3.584,-3.6126,-3.5843,-3.5864,-3.5866,-3.5883,-3.6415,-3.6657,-3.6644,-3.7241,-3.6984,-3.6092,-3.5983,-3.5609,-3.4995,-3.3988,-3.3286,-3.2781,-3.1689,-3.1107,-3.0712,-2.9436,-2.8721,-2.8289,0.0,0.0,0.0,0.0,0.0,0.0,0.0,0.0,0.0,0.0,0.0,0.0,0.0,0.0,0.0,0.0,0.0,0.0,-3.1272,-3.1672,-3.1778,-3.1441,-2.9438,-2.7372,-2.5377,-2.2115,-2.043,-2.0393,-2.4703,-2.7504,-2.889,-3.2185,-3.4321,-3.5519,-3.7507,-3.8885,-3.9696,-3.9481,-3.9936,-4.0785,-4.074,-4.0703,-4.0618,0.0,0.0,0.0,0.0,0.0,0.0,0.0,-3.4212,-3.3923,-3.2237,-3.1718,-3.1616,-3.1082,-3.2052,-3.319,-3.2585,-3.3598,-3.4779,-3.4567,-3.5064,-3.6045,-3.7567,-3.8946,-4.0527,-4.2788,-4.2951,-4.2864,-4.3391,-4.2837,-4.2561,-4.3351,-4.2818,-4.2079,-4.1487,-3.9045,-3.7248,-3.7193,-3.503,-3.3786,-3.4326,-3.4244,-3.3938,-3.3427,-3.3373,-3.3146,-3.2622,-3.4165,-3.4737,-3.4013,-3.5911,-3.6553,-3.5703,-3.5743,-3.5718,-3.5591,-3.5533,-3.56,-3.5801,-3.5669,-3.5446,-3.5172,-3.4831,-3.4508,-3.4078,-3.2666,-3.1092,-2.9642,-2.9955,-3.0091,-2.993,-2.8649,-2.8536,-2.8718,0.0,0.0,0.0,0.0,0.0,0.0,0.0,0.0,0.0,0.0,0.0,0.0,0.0,0.0,0.0,0.0,0.0,0.0,-3.0663,-3.171,-3.2411,-3.2583,-3.1148,-2.9408,-2.7371,-2.5671,-2.3403,-2.047,-2.4902,-2.8186,-3.033,-3.3103,-3.5487,-3.7479,-3.8052,-3.8812,-3.9617,-3.946,-3.9921,-4.0721,-4.0715,-4.0721,-4.0682,0.0,0.0,0.0,0.0,0.0,0.0,0.0,0.0,0.0,-3.3081,-3.318,-3.3421,-3.2229,-3.3061,-3.4149,-3.3219,-3.4228,-3.5641,-3.5797,-3.6546,-3.7483,-3.8447,-3.8557,-3.9049,-4.1034,-4.2429,-4.3121,-4.2711,-4.291,-4.3103,-4.3021,-4.2595,-4.193,-4.0868,-3.8518,-3.6396,-3.4907,-3.3119,-3.2022,-3.22,-3.2092,-3.2107,-3.2257,-3.2406,-3.243,-3.2314,-3.2925,-3.3191,-3.3015,-3.3868,-3.4503,-3.4842,-3.4875,-3.5145,-3.5679,-3.5557,-3.5534,-3.557,-3.536,-3.51,-3.4831,-3.4492,-3.374,-3.2602,-3.0991,-3.0062,-2.959,-2.9413,-2.9313,-2.9175,-2.7902,-2.7545,-2.7487,0.0,0.0,0.0,0.0,0.0,0.0,0.0,0.0,0.0,0.0,0.0,0.0,0.0,0.0,0.0,0.0,0.0,0.0,0.0,-3.1711,-3.2393,-3.2843,-3.2291,-3.1146,-2.9405,-2.8603,-2.6982,-2.4467,-2.7526,-3.0134,-3.2281,-3.4197,-3.5907,-3.7344,-3.735,-3.7831,-3.8624,-3.8121,-3.8625,-3.9746,-4.0111,-4.0295,-4.031,0.0,0.0,0.0,0.0,0.0,0.0,0.0,0.0,0.0,-3.4588,-3.4588,-3.48,-3.3763,-3.4144,-3.4883,-3.4806,-3.5634,-3.6659,-3.7148,-3.7798,-3.8294,-3.8142,-3.8384,-3.9021,-4.0411,-4.1499,-4.2227,-4.2289,-4.2529,-4.2649,-4.2366,-4.1694,-4.0884,-3.9993,-3.7658,-3.5385,-3.3681,-3.2222,-3.1288,-3.1128,-3.1227,-3.1339,-3.1458,-3.1657,-3.165,-3.1328,-3.1765,-3.2035,-3.2069,-3.2822,-3.3628,-3.449,-3.4398,-3.4575,-3.5022,-3.5353,-3.496,-3.3973,-3.4865,-3.5047,-3.4645,-3.3597,-3.2273,-3.0783,-2.932,-2.8449,-2.7978,-2.7743,-2.7824,-2.7975,-2.7203,-2.7111,-2.7261,0.0,0.0,0.0,0.0,0.0,0.0,0.0,0.0,0.0,0.0,0.0,0.0,0.0,0.0,0.0,0.0,0.0,0.0,0.0,0.0,-3.2141,-3.2622,-3.307,-3.2724,-3.1487,-3.1171,-3.0976,-3.0919,-3.1546,-3.2699,-3.4277,-3.5146,-3.5632,-3.5779,-3.5779,-3.6247,-3.7004,-3.6171,-3.6733,-3.8255,-3.9127,-3.9517,-3.9687,-4.0691,0.0,0.0,0.0,0.0,0.0,0.0,0.0,0.0,-3.6415,-3.5972,-3.5937,-3.5361,-3.5264,-3.5621,-3.692,-3.7426,-3.7775,-3.8604,-3.8917,-3.8696,-3.7187,-3.8248,-3.973,-4.03,-4.0336,-4.0672,-4.1886,-4.1773,-4.1483,-4.1465,-4.0303,-3.925,-3.8868,-3.6453,-3.4237,-3.3027,-3.1916,-3.1075,-3.052,-3.098,-3.1119,-3.0584,-3.0804,-3.0643,-2.9923,-3.0657,-3.1092,-3.1077,-3.2241,-3.3232,-3.4023,-3.3795,-3.3745,-3.3939,-3.4679,-3.3588,-3.102,-3.384,-3.487,-3.4288,-3.2227,-3.0499,-2.8989,-2.7744,-2.6585,-2.5609,-2.5541,-2.5947,-2.659,-2.659,-2.708,-2.7587,0.0,0.0,0.0,0.0,0.0,0.0,0.0,0.0,0.0,0.0,0.0,0.0,0.0,0.0,0.0,0.0,0.0,0.0,0.0,0.0,-3.3705,-3.3838,-3.4372,-3.4526,-3.4244,-3.4774,-3.4753,-3.4108,-3.297,-3.2933,-3.3915,-3.432,-3.4614,-3.4795,-3.4801,-3.5262,-3.6054,-3.6521,-3.723,-3.8073,-3.838,-3.8889,-3.9491,-3.9862,-4.033,0.0,0.0,0.0,0.0,0.0,0.0,0.0,-3.7126,-3.7296,-3.7499,-3.5716,-3.6203,-3.7371,-3.7684,-3.7974,-3.8543,-3.9851,-3.9852,-3.9158,-3.7688,-3.7997,-3.8501,-3.8096,-3.9554,-4.0877,-4.0755,-4.0632,-4.0531,-4.0356,-3.9343,-3.8116,-3.6839,-3.5058,-3.2976,-3.0667,-3.0362,-2.971,-2.8056,-2.8755,-2.895,-2.806,-2.8236,-2.8597,-2.9041,-2.9385,-2.9494,-2.9327,-2.9861,-3.025,-3.0495,-3.0396,-3.1364,-3.3362,-3.2096,-2.9497,-2.594,-3.0299,-3.2214,-3.2041,-3.0776,-2.9815,-2.8924,-2.6851,-2.5841,-2.5541,-2.4949,-2.5186,-2.5845,-2.5845,-2.6302,-2.6911,0.0,0.0,0.0,0.0,0.0,0.0,0.0,0.0,0.0,0.0,0.0,0.0,0.0,0.0,0.0,0.0,0.0,0.0,0.0,0.0,-3.3757,-3.418,-3.4889,-3.5461,-3.5844,-3.6281,-3.6233,-3.5677,-3.4929,-3.4572,-3.4634,-3.4773,-3.4913,-3.5005,-3.4598,-3.487,-3.5676,-3.6142,-3.674,-3.7425,-3.7986,-3.8681,-3.9411,-3.9627,-4.0239,-4.0941,-4.0552,0.0,0.0,0.0,0.0,0.0,0.0,0.0,-3.8053,-3.6515,-3.6426,-3.7075,-3.8098,-3.8501,-3.8994,-4.0753,-4.0391,-3.9423,-3.8618,-3.8267,-3.8006,-3.7667,-3.8648,-3.9607,-3.9713,-3.9563,-3.9192,-3.8402,-3.7557,-3.6493,-3.5039,-3.3402,-3.1617,-2.9569,-2.8963,-2.8228,-2.6993,-2.7323,-2.7458,-2.7078,-2.7395,-2.779,-2.8196,-2.8425,-2.8472,-2.837,-2.8567,-2.8916,-2.9405,-2.8921,-2.9801,-3.198,-3.0104,-2.7443,-2.4339,-2.8392,-2.9586,-2.8427,-2.8335,-2.7886,-2.7052,-2.5454,-2.4679,-2.4475,-2.3731,-2.39,-2.4594,-2.4932,-2.5541,-2.6218,0.0,0.0,0.0,0.0,0.0,0.0,0.0,0.0,0.0,0.0,0.0,0.0,0.0,0.0,0.0,0.0,0.0,0.0,0.0,0.0,0.0,-3.4391,-3.5264,-3.6034,-3.6699,-3.6853,-3.6742,-3.6375,-3.6592,-3.6372,-3.5699,-3.5411,-3.5309,-3.5349,-3.4777,-3.4923,-3.562,-3.5899,-3.6381,-3.7002,-3.7834,-3.8648,-3.9387,-3.961,-4.0223,-4.0988,-4.1149,-4.1191,-4.113,-4.0854,0.0,0.0,0.0,0.0,-3.7916,-3.7172,-3.6444,-3.6339,-3.833,-3.9144,-3.9788,-4.1339,-4.0742,-3.9759,-3.9575,-3.8708,-3.7977,-3.8013,-3.7923,-3.8022,-3.8655,-3.8373,-3.7621,-3.6257,-3.5678,-3.4908,-3.344,-3.1827,-3.0264,-2.8802,-2.7729,-2.6853,-2.6243,-2.6209,-2.6294,-2.6469,-2.687,-2.7178,-2.737,-2.7562,-2.7678,-2.7678,-2.7755,-2.8094,-2.8724,-2.7968,-2.8322,-2.978,-2.8082,-2.6231,-2.4395,-2.6866,-2.7036,-2.5386,-2.5817,-2.5672,-2.5105,-2.4403,-2.3852,-2.3413,-2.2762,-2.2868,-2.3477,-2.4235,-2.4966,-2.5693,0.0,0.0,0.0,0.0,0.0,0.0,0.0,0.0,0.0,0.0,-3.0681,0.0,0.0,0.0,0.0,0.0,0.0,0.0,-3.2852,0.0,0.0,-3.5315,-3.6226,-3.6709,-3.6699,-3.745,-3.7435,-3.6656,-3.6685,-3.6661,-3.6507,-3.5045,-3.4422,-3.4506,-3.5136,-3.5484,-3.5706,-3.7138,-3.779,-3.7834,-3.7959,-3.8532,-3.9345,-3.9537,-4.0123,-4.0864,-4.1105,-4.1128,-4.0906,-4.0125,-3.9754,0.0,0.0,0.0,-3.7036,-3.6805,-3.6738,-3.7031,-3.8355,-4.0285,-4.1827,-4.1456,-4.1174,-4.072,-3.9813,-3.8944,-3.8376,-3.8559,-3.8059,-3.7514,-3.7408,-3.6802,-3.5952,-3.4766,-3.463,-3.396,-3.1961,-3.0737,-2.933,-2.7419,-2.6884,-2.6112,-2.4667,-2.5126,-2.5335,-2.4867,-2.5035,-2.556,-2.6429,-2.6661,-2.6774,-2.6774,-2.69,-2.666,-2.6038,-2.5949,-2.6004,-2.617,-2.5168,-2.47,-2.4684,-2.419,-2.4704,-2.5894,-2.4327,-2.4349,-2.5429,-2.5025,-2.4458,-2.3788,-2.342,-2.3308,-2.3477,-2.4235,-2.4966,-2.5625,0.0,0.0,0.0,0.0,0.0,0.0,0.0,0.0,0.0,0.0,0.0,-3.2382,0.0,0.0,0.0,-3.1225,-3.1891,-3.2526,-3.2872,-3.4552,-3.5316,-3.4795,-3.6055,-3.6993,-3.7411,-3.7796,-3.7815,-3.743,-3.6949,-3.6469,-3.6007,-3.5276,-3.5181,-3.5675,-3.6556,-3.6672,-3.6331,-3.8041,-3.8753,-3.8719,-3.8719,-3.895,-3.9321,-3.951,-4.0085,-4.0769,-4.1015,-4.1328,-4.1474,-4.0568,-4.0209,-3.9898,-3.8517,0.0,0.0,0.0,-3.5792,-3.6134,-3.8068,-4.0181,-4.1939,-4.2413,-4.2502,-4.2252,-4.1337,-3.9996,-3.8816,-3.835,-3.709,-3.6297,-3.699,-3.6159,-3.5141,-3.4423,-3.3999,-3.3223,-3.162,-2.9795,-2.8234,-2.7196,-2.6184,-2.5312,-2.4601,-2.4862,-2.4951,-2.4692,-2.4809,-2.5108,-2.5551,-2.5759,-2.587,-2.587,-2.5971,-2.5854,-2.5489,-2.5486,-2.5374,-2.5157,-2.4657,-2.4454,-2.4469,-2.4603,-2.4527,-2.4266,-2.3406,-2.329,-2.3732,-2.4209,-2.4081,-2.3642,-2.3922,-2.3748,-2.3477,-2.4235,-2.4425,-2.4425,0.0,0.0,0.0,0.0,0.0,0.0,0.0,0.0,0.0,0.0,0.0,0.0,0.0,0.0,0.0,0.0,-3.2545,-3.2987,-3.3218,-3.468,-3.5251,-3.4545,-3.6183,-3.7379,-3.7988,-3.8219,-3.8219,-3.8007,-3.7142,-3.6392,-3.5815,-3.5815,-3.6142,-3.6738,-3.7392,-3.7315,-3.6815,-3.8565,-3.9411,-3.96,-3.9413,-3.9466,-3.9662,-3.9632,-3.996,-4.0482,-4.1007,-4.1369,-4.1498,-4.0707,-4.0331,-3.9951,-3.8362,-3.7742,0.0,0.0,0.0,-3.5907,-3.7773,-3.9727,-4.1576,-4.3092,-4.3307,-4.302,-4.2546,-4.0747,-3.8934,-3.8091,-3.6361,-3.5356,-3.6577,-3.573,-3.4756,-3.4354,-3.3671,-3.2812,-3.1682,-2.9274,-2.7542,-2.7352,-2.5825,-2.4804,-2.4804,-2.4804,-2.4804,-2.4804,-2.4911,-2.5003,-2.5031,-2.5216,-2.533,-2.5346,-2.5427,-2.5463,-2.5511,-2.5467,-2.5233,-2.4861,-2.462,-2.4391,-2.4226,-2.5029,-2.4847,-2.3838,-2.3587,-2.3202,-2.2801,-2.377,-2.4024,-2.3862,-2.4333,-2.4066,-2.346,-2.4002,-2.3866,-2.3477,0.0,0.0,0.0,0.0,0.0,0.0,0.0,0.0,0.0,0.0,0.0,0.0,-3.4103,-3.4199,-3.3833,-3.291,-3.2872,-3.3256,-3.4083,-3.5107,-3.562,-3.5443,-3.723,0.0,-3.8003,-3.8815,-3.8834,-3.8007,-3.7142,-3.668,-3.6642,-3.6642,-3.6661,-3.6699,-3.6757,-3.6738,-3.6815,-3.8565,-3.9738,-4.0369,-3.9676,-3.9894,-4.0556,-3.9935,-3.9671,-3.9823,-4.1182,-4.1075,-4.0239,-3.9889,-3.9357,-3.8746,-3.7812,-3.7526,-3.7489,0.0,0.0,0.0,-3.767,-3.9219,-4.1175,-4.2952,-4.2771,-4.2286,-4.2695,-4.0571,-3.8421,-3.7985,-3.6361,-3.519,-3.5848,-3.5339,-3.4689,-3.4359,-3.368,-3.2879,-3.199,-2.9469,-2.7698,-2.7681,-2.5965,-2.4804,-2.4804,-2.4804,-2.4804,-2.4804,-2.4911,-2.5031,-2.5091,-2.5297,-2.5415,-2.5498,-2.5554,-2.5598,-2.5598,-2.5525,-2.5263,-2.4804,-2.4417,-2.4206,-2.4208,-2.4262,-2.5063,-2.6359,-2.5464,-2.4601,-2.387,-2.4642,-2.4925,-2.4896,-2.4611,-2.4066,-2.3393,-2.3427,-2.3427,-2.341,0.0,0.0,0.0,0.0,0.0,0.0,0.0,0.0,0.0,0.0,0.0,0.0,0.0,-3.5026,-3.468,-3.3814,-3.3718,-3.3622,-3.3372,-3.4786,-3.56,-3.5488,-3.7224,-3.8384,-3.883,-3.9142,-3.8873,-3.8007,-3.7142,-3.6449,-3.593,-3.5958,-3.5987,-3.6064,-3.766,-3.8065,-3.7642,-3.9354,-4.0566,-4.1219,-3.989,-3.9548,-3.9774,-3.9026,-3.9041,-3.9529,-3.9848,-4.0485,-4.1098,-4.059,-4.0028,-3.9513,-3.9199,-3.8487,-3.7563,-3.6515,-3.6002,-3.5913,-3.6656,-3.7802,-3.9115,-4.0487,-4.1011,-4.1097,-4.0707,-3.9694,-3.8408,-3.6927,-3.5912,-3.5274,-3.5139,-3.4951,-3.4622,-3.406,-3.3354,-3.2374,-3.0959,-2.8908,-2.7432,-2.7102,-2.5917,-2.5126,-2.5126,-2.5165,-2.5178,-2.5187,-2.5266,-2.5335,-2.535,-2.5434,-2.5482,-2.5489,-2.5561,-2.5583,-2.5547,-2.5464,-2.5249,-2.4854,-2.4714,-2.4489,-2.4208,-2.4205,-2.452,-2.5041,-2.4801,-2.4144,-2.3319,-2.4304,-2.4499,-2.4286,-2.4747,-2.433,-2.3393,-2.3393,-2.3105,-2.2699,0.0,0.0,0.0,0.0,0.0,0.0,0.0,0.0,0.0,-3.2947,0.0,0.0,0.0,0.0,-3.5276,-3.468,-3.4641,-3.4391,-3.3814,-3.4917,-3.5701,-3.5892,-3.73,-3.8607,-3.9677,-3.97,-3.9307,-3.8477,-3.7591,-3.6626,-3.5574,-3.5611,-3.5639,-3.5727,-3.7669,-3.8029,-3.7282,-3.8689,-3.9942,-4.0882,-3.9522,-3.9533,-4.0274,-3.9445,-3.9554,-4.0135,-4.0087,-4.0469,-4.0932,-4.0384,-3.9714,-3.9073,-3.9057,-3.8403,-3.7424,-3.6245,-3.5442,-3.5114,-3.5885,-3.6386,-3.6994,-3.8249,-3.9046,-3.9414,-3.9022,-3.8536,-3.7744,-3.627,-3.549,-3.4895,-3.435,-3.4304,-3.4205,-3.3863,-3.2923,-3.1742,-3.0333,-2.8616,-2.7298,-2.6767,-2.6125,-2.5736,-2.5736,-2.6058,-2.6277,-2.6265,-2.6054,-2.595,-2.5972,-2.5695,-2.5547,-2.5564,-2.5605,-2.5585,-2.5493,-2.5465,-2.5247,-2.4903,-2.4993,-2.4733,-2.4204,-2.4284,-2.4281,-2.42,-2.4121,-2.3819,-2.3432,-2.395,-2.4003,-2.3846,-2.4381,-2.4126,-2.3359,-2.3122,-2.2733,-2.231,0.0,0.0,0.0,0.0,0.0,0.0,0.0,0.0,-3.2947,-3.3688,0.0,0.0,0.0,0.0,0.0,-3.5493,-3.5512,-3.5545,-3.5493,-3.5581,-3.596,-3.6699,-3.761,-3.8846,-4.0489,-4.0489,-4.0154,-3.9441,-3.8543,-3.7279,-3.5742,-3.573,-3.571,-3.5749,-3.6586,-3.6448,-3.5679,-3.6559,-3.7926,-3.942,-3.8622,-3.9902,-4.219,-4.1238,-4.1159,-4.1577,-4.1915,-4.0973,-3.9525,-3.9204,-3.8267,-3.7209,-3.7173,-3.7173,-3.7101,-3.6768,-3.5987,-3.5237,0.0,0.0,0.0,-3.6434,-3.6944,-3.724,-3.7769,-3.7175,-3.642,-3.6144,-3.5111,-3.4091,-3.3521,-3.3391,-3.3458,-3.3685,-3.2339,-3.1002,-3.0232,-2.8585,-2.7266,-2.6724,-2.6624,-2.6601,-2.6601,-2.7477,-2.8028,-2.7997,-2.729,-2.6891,-2.6932,-2.6113,-2.5654,-2.5703,-2.5703,-2.5634,-2.5493,-2.5508,-2.5309,-2.4915,-2.5194,-2.4924,-2.4233,-2.4482,-2.4458,-2.4184,-2.3707,-2.3827,-2.4292,-2.3647,-2.3519,-2.3715,-2.3482,-2.3359,-2.3274,-2.2564,-2.231,-2.231,0.0,0.0,0.0,0.0,0.0,0.0,-3.3156,-3.4118,-3.4699,0.0,0.0,0.0,-3.5518,-3.5493,-3.5493,-3.5493,-3.6045,-3.6122,-3.5545,-3.6141,-3.6761,-3.7269,-3.7636,-3.8827,-4.1017,-4.0562,-4.0289,-4.0343,-3.8918,-3.7685,-3.6625,-3.6094,-3.5841,-3.5864,-3.615,-3.6102,-3.5908,-3.7316,-3.9246,-4.1159,-3.9112,-3.9902,-4.1995,-3.9113,-3.8773,-3.967,-3.8823,-3.8701,-3.8952,-3.9082,-3.8364,-3.7288,-3.656,-3.6612,-3.6792,-3.5925,-3.5454,-3.5144,-3.4833,0.0,0.0,0.0,0.0,0.0,-3.5319,-3.5976,-3.6289,-3.5524,-3.5643,-3.542,-3.4018,-3.3219,-3.2606,-3.215,-3.1109,-2.9879,-2.8518,-2.735,-2.6403,-2.5826,-2.63,-2.6659,-2.6611,-2.799,-2.8644,-2.8119,-2.8415,-2.8376,-2.7864,-2.7004,-2.626,-2.5652,-2.557,-2.5543,-2.5493,-2.5394,-2.5302,-2.5194,-2.526,-2.5189,-2.4994,-2.482,-2.4549,-2.4184,-2.3559,-2.33,-2.3277,-2.2798,-2.2637,-2.2693,-2.262,-2.2615,-2.2581,-2.2395,-2.231,-2.231,0.0,0.0,0.0,0.0,0.0,0.0,-3.4623,-3.533,-3.5757,0.0,0.0,0.0,-3.6517,-3.593,-3.5641,-3.5968,-3.643,-3.6372,-3.5551,-3.6227,-3.691,-3.7488,-3.7468,-3.8651,-4.1245,-4.0929,-4.072,-4.0701,-3.9441,-3.8213,-3.697,-3.6191,-3.5818,-3.5818,-3.5864,-3.5847,-3.5877,-3.6813,-3.8277,-3.9862,-3.876,-3.9674,-4.1482,-3.9321,-3.9072,-3.9685,-3.7951,-3.765,-3.8007,-3.7628,-3.6908,-3.5908,-3.4675,-3.4753,-3.5229,-3.4644,-3.41,-3.365,-3.3624,-3.3069,-3.2406,-3.2232,0.0,0.0,-3.3128,-3.4141,-3.4866,-3.4129,-3.4747,-3.4889,-3.3167,-3.2979,-3.2614,-3.1217,-3.052,-2.957,-2.7802,-2.6813,-2.6024,-2.5427,-2.6348,-2.7151,-2.7462,-2.9085,-3.0095,-3.0067,-3.0162,-2.9525,-2.7958,-2.7272,-2.6475,-2.5464,-2.5479,-2.5498,-2.5465,-2.5376,-2.5321,-2.5303,-2.5288,-2.5294,-2.5283,-2.495,-2.4642,-2.4316,-2.3692,-2.3305,-2.3106,-2.2539,-2.2303,-2.231,-2.231,-2.218,-2.2032,-2.2237,-2.2077,-2.1811,0.0,0.0,0.0,-3.532,-3.5522,-3.5789,-3.6354,-3.626,-3.6396,0.0,-3.6629,-3.6635,-3.7743,-3.6449,-3.5795,-3.6507,-3.6738,-3.6469,-3.5565,-3.6112,-3.6781,-3.7433,-3.7236,-3.8409,-4.1144,-4.1276,-4.1137,-4.0779,-3.9896,-3.8676,-3.7117,-3.6151,-3.5703,-3.5703,-3.5703,-3.5703,-3.5703,-3.5703,-3.6129,-3.6911,-3.7809,-3.9263,-4.0848,-4.044,-4.0414,-4.031,-3.8174,-3.7199,-3.6726,-3.5422,-3.4491,-3.3654,-3.2201,-3.2314,-3.2959,-3.3116,-3.2396,-3.163,-3.224,-3.1419,-3.0476,-3.0634,-3.1411,0.0,-3.1592,-3.2276,-3.299,-3.2758,-3.3412,-3.3535,-3.1888,-3.2873,-3.3174,-3.0878,-3.0434,-2.973,-2.7897,-2.6897,-2.6159,-2.5602,-2.6846,-2.8068,-2.8898,-3.0584,-3.1992,-3.2871,-3.2029,-3.0275,-2.7555,-2.7121,-2.6381,-2.5192,-2.5331,-2.5408,-2.5364,-2.5372,-2.5363,-2.5303,-2.5303,-2.5303,-2.5293,-2.4949,-2.4714,-2.4591,-2.4004,-2.367,-2.3425,-2.2623,-2.2295,-2.231,-2.231,-2.2049,-2.1718,-2.2106,-2.1721,-2.1166,0.0,0.0,0.0,0.0,0.0,-3.5799,-3.484,-3.6292,-3.7057,-3.574,-3.5614,-3.5984,-3.6858,-3.6084,-3.5551,-3.5718,-3.6969,-3.7103,-3.5603,-3.6848,-3.7517,-3.719,-3.7125,-3.8202,-4.0514,-4.0349,-4.0584,-4.1349,-3.9511,-3.8428,-3.7999,-3.6443,-3.5703,-3.5703,-3.5703,-3.5703,-3.5703,-3.5703,-3.5779,-3.5943,-3.6878,-3.8721,-4.0661,-3.8472,-3.7795,-3.7813,-3.625,-3.5506,-3.5044,-3.3567,-3.2615,-3.1929,-3.1037,-3.1269,-3.1886,-3.1886,-3.171,-3.1693,-3.2223,-3.1825,-3.1156,-3.1123,-3.1055,0.0,-3.2347,-3.2654,-3.3067,-3.4313,-3.4781,-3.4475,-3.2962,-3.3484,-3.3505,-3.1523,-3.0631,-2.9789,-2.8698,-2.7846,-2.7263,-2.7095,-2.8366,-2.9656,-3.0628,-3.2101,-3.3236,-3.3738,-3.221,-3.0165,-2.7693,-2.6961,-2.6041,-2.4851,-2.4828,-2.4956,-2.5158,-2.5274,-2.5313,-2.5303,-2.5303,-2.5303,-2.5293,-2.4949,-2.4785,-2.4741,-2.43,-2.3871,-2.3425,-2.2623,-2.2295,-2.231,-2.231,-2.2237,-2.2135,-2.1823,-2.1628,-2.146,-3.4905,-3.4942,-3.5035,0.0,0.0,0.0,-3.538,-3.6297,-3.7024,-3.6781,-3.7113,-3.7546,-3.795,-3.7257,-3.693,-3.7353,-3.8202,-3.8138,-3.6834,-3.7445,-3.78,-3.7709,-3.7188,-3.7817,-3.9703,-4.0209,-4.0574,-4.0859,-3.998,-3.9101,-3.8218,-3.6842,-3.5676,-3.477,-3.5222,-3.5316,-3.5199,-3.5199,-3.5643,-3.6389,-3.6781,-3.7696,-3.8673,-3.7305,-3.6473,-3.5818,-3.4265,-3.2985,-3.1888,-3.0903,-3.0576,-3.0416,-2.9387,-2.9754,-3.0592,-3.0576,-3.0529,-3.0767,-3.1644,-3.1393,-3.0924,-3.1156,-3.1062,0.0,0.0,-3.1957,-3.2223,-3.2495,-3.3511,-3.3862,-3.229,-3.3372,-3.3891,-3.2035,-3.1233,-3.0581,-2.9809,-2.8474,-2.7701,-2.8103,-2.9045,-3.0104,-3.1242,-3.246,-3.3099,-3.2868,-3.1123,-2.9141,-2.7006,-2.5999,-2.5172,-2.4464,-2.458,-2.4746,-2.4941,-2.508,-2.5152,-2.5152,-2.5253,-2.5303,-2.5303,-2.4986,-2.4831,-2.4775,-2.4356,-2.4065,-2.3786,-2.3058,-2.2686,-2.2586,-2.2366,-2.202,-2.1661,-2.1628,-2.1197,-2.0682,-3.5639,-3.5396,-3.5369,0.0,0.0,0.0,0.0,0.0,-3.706,-3.832,-3.88,-3.9046,-3.9046,-3.8277,-3.8104,-3.8969,-3.8974,-3.8663,-3.8078,-3.7866,-3.7897,-3.8165,-3.7432,-3.7604,-3.8838,-4.0119,-4.0566,-4.0127,-4.0332,-3.9669,-3.8178,-3.712,-3.5703,-3.4088,-3.4727,-3.4927,-3.476,-3.473,-3.5463,-3.6691,-3.6362,-3.6388,-3.6584,-3.6257,-3.5441,-3.4201,-3.233,-3.0495,-2.8862,-2.8509,-2.8651,-2.8858,-2.7881,-2.8233,-2.9079,-2.9305,-2.9251,-2.9386,-3.0593,-3.0514,-3.0253,-3.1021,-3.1089,-3.0985,0.0,0.0,0.0,-3.0849,-3.2197,-3.3089,-3.1716,-3.3287,-3.4205,-3.2424,-3.1918,-3.1485,-3.0746,-2.9119,-2.8318,-2.9125,-2.9698,-3.0524,-3.1837,-3.2737,-3.2548,-3.0836,-2.9333,-2.7521,-2.5282,-2.4359,-2.3907,-2.3879,-2.426,-2.4559,-2.4746,-2.4911,-2.501,-2.501,-2.5203,-2.5303,-2.5284,-2.5069,-2.4962,-2.4865,-2.4391,-2.4192,-2.4133,-2.344,-2.3038,-2.2816,-2.2432,-2.1811,-2.115,-2.1399,-2.0781,-1.9909,-3.5723,-3.5416,-3.5455,-3.6296,0.0,0.0,0.0,0.0,-3.7978,-3.8649,-3.8388,-3.8142,-3.8142,-3.7373,-3.7199,-3.8065,-3.7552,-3.747,-3.8136,-3.8106,-3.7964,-3.7775,-3.7981,-3.8089,-3.8048,-3.928,-3.9912,-3.9854,-3.9644,-3.9084,-3.8178,-3.6934,-3.5844,-3.4952,-3.4813,-3.4849,-3.5056,-3.4795,-3.494,-3.5254,-3.4223,-3.4827,-3.6186,-3.4694,-3.3895,-3.3216,-3.0646,-2.8772,-2.7518,-2.7606,-2.7316,-2.7033,-2.746,-2.7275,-2.7135,-2.8235,-2.8137,-2.7966,-2.8984,-2.9297,-2.9608,-3.0886,-3.0717,-3.0645,-3.2355,0.0,-3.2068,-3.3004,0.0,-3.3475,-3.3181,0.0,0.0,-3.2545,-3.2298,-3.1957,-3.0939,-3.0268,-3.0099,-3.0671,-3.1227,-3.2096,-3.3486,-3.3949,-3.2185,-2.7456,-2.7048,-2.5392,-2.1599,-2.17,-2.2088,-2.2671,-2.3516,-2.4158,-2.4528,-2.4845,-2.501,-2.501,-2.5203,-2.5303,-2.5303,-2.5271,-2.526,-2.5196,-2.45,-2.4192,-2.4115,-2.327,-2.2849,-2.2686,-2.2415,-2.2003,-2.1491,-2.1181,-2.0715,-2.0193,-3.6493,-3.6394,-3.6441,-3.7082,0.0,0.0,0.0,0.0,-3.8397,-3.8137,-3.9163,-3.9714,-3.9218,-3.8873,-3.9025,-3.983,-3.9451,-3.9296,-3.963,-3.9209,-3.9254,-3.9869,-3.9051,-3.8937,-3.9614,-3.9859,-4.003,-4.0161,-4.0076,-3.9435,-3.8236,-3.744,-3.6272,-3.4832,-3.4282,-3.4301,-3.4668,-3.4089,-3.4173,-3.4651,-3.4106,-3.4057,-3.4278,-3.3259,-3.1882,-3.012,-2.7135,-2.5572,-2.4907,-2.5149,-2.5062,-2.5031,-2.6093,-2.6243,-2.6234,-2.7487,-2.7593,-2.7635,-2.8714,-2.9052,-2.942,-3.0864,-3.0649,-3.0518,-3.2195,-3.2173,-3.1882,-3.2192,0.0,0.0,0.0,0.0,0.0,0.0,-3.1857,-3.1433,-3.1502,-3.0976,-3.0903,-3.1712,-3.191,-3.2328,-3.328,-3.1394,-2.8593,-2.4928,-2.2871,-2.0693,-1.82,-1.8911,-2.0294,-2.2251,-2.3471,-2.445,-2.5204,-2.5077,-2.501,-2.501,-2.5203,-2.5303,-2.5303,-2.5291,-2.5076,-2.4643,-2.4335,-2.421,-2.414,-2.3397,-2.3041,-2.2923,-2.2164,-2.1628,-2.1213,-2.0748,-2.033,-1.9945,-3.737,-3.7303,-3.7296,-3.8083,-3.8366,0.0,0.0,-3.8347,-3.9199,-3.8797,-4.0309,-4.1074,-4.0138,-3.9719,-3.991,-4.0881,-4.0198,-3.9898,-4.0328,-3.985,-3.9761,-4.0212,-3.954,-3.9432,-4.0015,-4.0101,-4.0242,-4.044,-4.0508,-3.9897,-3.8636,-3.7926,-3.6673,-3.4994,-3.4383,-3.421,-3.4339,-3.3761,-3.3851,-3.4315,-3.3815,-3.3037,-3.2154,-3.1538,-2.9913,-2.7574,-2.4723,-2.3454,-2.3115,-2.3325,-2.346,-2.3804,-2.4971,-2.5345,-2.5513,-2.6565,-2.6823,-2.7029,-2.7947,-2.8317,-2.8861,-3.0475,-3.0497,-3.0497,-3.1952,-3.1978,-3.1633,-3.161,-3.2094,0.0,0.0,0.0,-3.255,-3.2082,0.0,-3.1105,-3.1709,-3.1511,-3.1643,-3.2609,-3.278,-3.285,-3.291,-2.9818,-2.6428,-2.3163,-2.0035,-1.755,-1.5892,-1.7201,-1.9291,-2.2076,-2.3605,-2.4871,-2.5775,-2.5262,-2.501,-2.501,-2.5203,-2.5303,-2.5303,-2.5195,-2.4816,-2.4199,-2.4188,-2.4208,-2.4151,-2.3477,-2.3189,-2.3093,-2.1982,-2.1324,-2.0926,-2.0483,-2.007,-1.9726,-3.8203,-3.7821,-3.7698,-3.9264,-3.8531,-3.8232,-3.9738,-4.0243,-4.0739,-4.155,-4.1723,-4.1351,-4.0215,-3.8884,-3.8626,-4.0024,-3.8238,-3.7702,-3.934,-3.9414,-3.8698,-3.7112,-3.8991,-3.9353,-3.7839,-3.9377,-4.0308,-4.0509,-4.0625,-4.0306,-3.9524,-3.8214,-3.6996,-3.5847,-3.5572,-3.5018,-3.4312,-3.4339,-3.4326,-3.4168,-3.2679,-3.1347,-3.0197,-2.9314,-2.8118,-2.6559,-2.4464,-2.3454,-2.3036,-2.2808,-2.3101,-2.3729,-2.4388,-2.4612,-2.4747,-2.5305,-2.5532,-2.5639,-2.5982,-2.6623,-2.7649,-2.964,-3.0125,-3.0497,-3.1952,-3.1755,-3.1449,-3.2281,-3.1548,-3.1073,-3.1923,-3.1744,-3.1303,-3.0837,-3.1122,0.0,0.0,-3.1859,-3.259,-3.3469,-3.4187,-3.4107,-3.2829,-3.0788,-2.7418,-2.2319,-1.9819,-1.7461,-1.5056,-1.7094,-1.9443,-2.1909,-2.3919,-2.5298,-2.5978,-2.5342,-2.501,-2.501,-2.5203,-2.5303,-2.5284,-2.4954,-2.4594,-2.4199,-2.4188,-2.4208,-2.4151,-2.3477,-2.3189,-2.3069,-2.188,-2.1247,-2.0926,-2.0483,-2.007,-1.9747,-3.8244,-3.875,-3.9305,-4.035,-4.0063,-4.0056,-4.12,-4.0938,-4.0945,-4.1876,-4.1686,-4.1265,-4.0748,-3.9716,-3.9235,-3.9678,-3.9327,-3.9168,-3.9387,-4.0229,-4.0331,-3.9445,-4.0356,-4.0463,-3.9565,-4.0196,-4.0557,-4.0632,-4.0681,-4.0279,-3.9442,-3.8178,-3.7375,-3.6882,-3.5233,-3.4567,-3.459,-3.3755,-3.3301,-3.298,-3.1413,-3.0266,-2.9332,-2.8011,-2.6877,-2.5756,-2.3759,-2.2459,-2.1722,-2.1781,-2.2031,-2.2458,-2.3131,-2.3625,-2.4026,-2.4594,-2.4746,-2.482,-2.5131,-2.5382,-2.6068,-2.807,-2.8602,-2.911,-3.1106,-3.0615,-3.016,-3.1724,-3.0942,-3.0211,-3.1017,-3.1038,-3.0785,-3.0358,-3.0664,-3.1214,0.0,-3.2738,-3.3489,-3.425,-3.4113,-3.3633,-3.2781,-2.8685,-2.4689,-2.1278,-1.7626,-1.5046,-1.3851,-1.6806,-1.9747,-2.2515,-2.4505,-2.5994,-2.6968,-2.5795,-2.5122,-2.501,-2.5077,-2.508,-2.5038,-2.5102,-2.4782,-2.4204,-2.4208,-2.4192,-2.4151,-2.3477,-2.3283,-2.3259,-2.2032,-2.1293,-2.0894,-2.0174,-1.9823,-2.0032,-3.8167,-3.8957,-3.9764,-4.0828,-4.1108,-4.1479,-4.2363,-4.2033,-4.1878,-4.2486,-4.1712,-4.084,-4.0215,-3.9123,-3.8458,-3.8512,-3.869,-3.8923,-3.9204,-3.9746,-3.9922,-3.9615,-3.9846,-3.9697,-3.9099,-4.0188,-4.0614,-4.0318,-4.0947,-4.0805,-3.9869,-3.8485,-3.7762,-3.7555,-3.5685,-3.4786,-3.4599,-3.3712,-3.3086,-3.2638,-3.1182,-3.0145,-2.9343,-2.7912,-2.6388,-2.484,-2.3278,-2.1971,-2.099,-2.0964,-2.1112,-2.1455,-2.2113,-2.2757,-2.3396,-2.3971,-2.4116,-2.4153,-2.4265,-2.4293,-2.47,-2.638,-2.6806,-2.7446,-2.985,-2.9448,-2.9102,-3.1008,-3.0335,-2.9489,-2.9833,-3.0007,-3.0055,-2.9945,-3.0491,-3.1368,0.0,-3.3138,-3.3579,-3.4016,-3.3563,-3.2879,-3.2071,-2.7767,-2.3872,-2.1069,-1.7611,-1.5448,-1.51,-1.807,-2.1054,-2.3811,-2.5689,-2.6967,-2.765,-2.6395,-2.551,-2.501,-2.4903,-2.4835,-2.479,-2.4869,-2.4642,-2.42,-2.4211,-2.4113,-2.3976,-2.3414,-2.323,-2.319,-2.2231,-2.1702,-2.1374,-2.0478,-2.0218,-2.0714,-3.8042,-3.8604,-3.9276,-4.0792,-4.1616,-4.2373,-4.3319,-4.3339,-4.3241,-4.3347,-4.1732,-4.0069,-3.8703,-3.722,-3.6406,-3.659,-3.6438,-3.6992,-3.8536,-3.7946,-3.7507,-3.7411,-3.7507,-3.7209,-3.6471,-3.9316,-4.0408,-3.9589,-4.1367,-4.1744,-4.0762,-3.9077,-3.8155,-3.7859,-3.6813,-3.5643,-3.4389,-3.4156,-3.3659,-3.2942,-3.1714,-3.0727,-2.9902,-2.8804,-2.6528,-2.387,-2.3056,-2.2019,-2.0926,-2.0483,-2.0508,-2.0827,-2.1455,-2.2099,-2.2742,-2.3325,-2.3505,-2.3483,-2.3341,-2.3313,-2.3528,-2.462,-2.4927,-2.5627,-2.8277,-2.8264,-2.8269,-3.0231,-2.9728,-2.8832,-2.8587,-2.8802,-2.9155,-2.9557,-3.0633,-3.1827,-3.2997,-3.2991,-3.2865,-3.2865,-3.2511,-3.1862,-3.0835,-2.8067,-2.5029,-2.1796,-1.9585,-1.8494,-1.8656,-2.0884,-2.3242,-2.5698,-2.7364,-2.8131,-2.7956,-2.7033,-2.6055,-2.5056,-2.4758,-2.46,-2.4591,-2.4318,-2.42,-2.4202,-2.4192,-2.4016,-2.3671,-2.3346,-2.3091,-2.2886,-2.25,-2.2368,-2.2258,-2.1326,-2.1166,-2.1728,-3.8104,-3.9965,-4.1509,-4.1952,-4.1693,-4.2131,-4.4207,-4.232,-4.1124,-4.2485,-4.0381,-3.8578,-3.8067,-3.7332,-3.6455,-3.5305,-3.6047,-3.6117,-3.4965,-3.6179,-3.6211,-3.4623,-3.6064,-3.6518,-3.563,-3.8244,-3.9583,-3.9449,-4.0727,-4.1061,-4.0548,-3.8954,-3.8156,-3.7985,-3.6414,-3.5353,-3.4641,-3.384,-3.2535,-3.0954,-3.0111,-2.8921,-2.7746,-2.7876,-2.6126,-2.359,-2.3924,-2.2731,-2.0991,-2.0862,-2.0775,-2.0737,-2.0917,-2.1425,-2.1979,-2.2143,-2.2188,-2.2144,-2.1901,-2.1848,-2.205,-2.303,-2.3753,-2.4747,-2.6826,-2.6956,-2.723,-2.9383,-2.8712,-2.8058,-2.9072,-2.9109,-2.9197,-2.9887,-3.092,-3.1934,-3.258,-3.2313,-3.2228,-3.2577,-3.049,-2.9572,-3.1083,-2.7793,-2.5075,-2.3816,-2.1442,-2.0388,-2.1091,-2.3772,-2.5824,-2.6931,-2.7862,-2.843,-2.8574,-2.7058,-2.611,-2.5754,-2.5069,-2.4666,-2.4522,-2.4301,-2.4211,-2.4211,-2.4209,-2.4016,-2.3671,-2.3346,-2.3186,-2.3128,-2.3136,-2.3135,-2.2958,-2.1521,-2.1162,-2.1935,-3.8596,-4.0337,-4.1793,-4.2273,-4.1331,-4.1377,-4.3978,-4.2986,-4.2168,-4.2845,-4.0151,-3.8098,-3.7863,-3.6203,-3.4655,-3.3562,-3.4331,-3.4634,-3.4055,-3.4561,-3.4597,-3.4055,-3.4475,-3.4508,-3.4012,-3.6698,-3.8182,-3.8344,-3.9741,-4.032,-4.0062,-3.8435,-3.7871,-3.8144,-3.6221,-3.5463,-3.5511,-3.3587,-3.2015,-3.0747,-2.9963,-2.877,0.0,-2.8082,-2.6471,-2.3934,-2.4371,-2.299,-2.0991,-2.0991,-2.0677,-2.0318,-2.0617,-2.0976,-2.1321,-2.1605,-2.1695,-2.1624,-2.1181,-2.1172,-2.1401,-2.1859,-2.244,-2.347,-2.5697,-2.623,-2.6671,-2.8424,-2.8232,-2.7898,-2.8218,-2.8679,-2.9386,-3.0646,-3.1384,-3.188,-3.2179,-3.1806,-3.1548,-3.1534,-2.9904,-2.9272,-3.0432,-2.6918,-2.4655,-2.482,-2.3187,-2.2628,-2.365,-2.5914,-2.7448,-2.8105,-2.8889,-2.9127,-2.8812,-2.7483,-2.6489,-2.586,-2.5048,-2.4559,-2.4357,-2.4266,-2.419,-2.419,-2.419,-2.4117,-2.3932,-2.375,-2.3353,-2.2954,-2.4296,-2.4441,-2.3752,-2.2648,-2.2316,-2.292,-3.9294,-4.0344,-4.1338,-4.2281,-4.1084,-4.0765,-4.3136,-4.3648,-4.3563,-4.2982,-3.9914,-3.7655,-3.7317,-3.4419,-3.2274,-3.1707,-3.215,-3.2911,-3.3979,-3.2952,-3.28,-3.3958,-3.2732,-3.2068,-3.2152,-3.4905,-3.6573,-3.6991,-3.858,-3.944,-3.9531,-3.78,-3.7436,-3.8128,-3.6245,-3.5773,-3.6232,-3.3247,-3.1683,-3.1209,-3.0369,-2.9214,-2.8056,-2.859,-2.6943,-2.4382,-2.4334,-2.2895,-2.0991,-2.0991,-2.0413,-1.9794,-2.0393,-2.0535,-2.0563,-2.1183,-2.1347,-2.1227,-2.0608,-2.081,-2.1128,-2.1021,-2.1306,-2.2264,-2.4871,-2.5785,-2.6381,-2.7488,-2.8013,-2.7973,-2.7096,-2.8046,-2.9561,-3.1281,-3.1578,-3.1507,-3.1349,-3.1113,-3.0744,-3.0103,-2.9749,0.0,-2.9403,-2.6246,-2.4617,-2.5621,-2.5155,-2.5201,-2.6165,-2.7561,-2.8634,-2.9153,-2.9916,-2.987,-2.8922,-2.8089,-2.7059,-2.5837,-2.5054,-2.4503,-2.4247,-2.4209,-2.419,-2.4208,-2.4133,-2.4187,-2.43,-2.4275,-2.365,-2.2969,-2.5504,-2.5754,-2.4594,-2.4197,-2.4079,-2.4388,-3.9953,-4.1349,-4.2549,-4.3108,-4.2543,-4.2094,-4.2334,-4.0111,-3.8583,-3.9236,-3.6794,-3.4732,-3.4015,-3.3134,-3.1978,-3.0455,-3.1513,-3.1775,-3.0656,-3.0958,-3.0941,-3.0353,-3.0847,-3.1178,-3.1317,-3.3454,-3.5359,-3.699,-3.7428,-3.8252,-3.9393,-3.7712,-3.7023,-3.7209,-3.6677,-3.5891,-3.4811,-3.2383,-3.1031,-3.0373,-2.9273,-2.825,-2.746,-2.7542,-2.6031,-2.3803,-2.3468,-2.2325,-2.0991,-2.0991,-2.0413,-1.9705,-1.9824,-1.9583,-1.9246,-1.9362,-1.9391,-1.9362,-1.9261,-1.9816,-2.0556,-2.0926,-2.1306,-2.2132,-2.4228,-2.5008,-2.5687,-2.7089,-2.7431,-2.7618,-2.804,-2.8595,-2.9299,-3.0255,-3.0391,-3.0023,-2.897,-2.9303,-2.9403,-2.8812,-2.7535,-2.737,-2.9083,-2.8155,-2.7594,-2.7846,-2.8257,-2.8262,-2.7822,-2.9397,-3.0092,-2.9606,-2.9746,-2.9723,-2.9538,-2.8519,-2.7569,-2.6674,-2.5874,-2.5112,-2.4426,-2.4284,-2.419,-2.417,-2.3787,-2.388,-2.4282,-2.4051,-2.4391,-2.5071,-2.5343,-2.5445,-2.5406,-2.5323,-2.5476,-2.5974,-4.0735,-4.1574,-4.2048,-4.144,-4.107,-4.0389,-3.9038,-3.6852,-3.6046,-3.8043,-3.5877,-3.4008,-3.3616,-3.1812,-3.0429,-2.9932,-3.0353,-3.0442,-2.999,-3.0414,-3.0371,-2.9636,-3.0035,-3.0326,-3.0424,-3.1857,-3.3852,-3.6423,-3.6484,-3.7562,-3.9536,-3.8194,-3.7858,-3.8337,-3.6729,-3.5362,-3.4031,-3.11,-3.008,-3.0275,-2.8652,-2.7711,-2.7246,-2.6919,-2.5384,-2.3365,-2.3173,-2.2054,-2.0616,-2.0616,-2.0039,-1.9281,-1.9281,-1.893,-1.8496,-1.8496,-1.8688,-1.8893,-1.8893,-1.9778,-2.0748,-2.1164,-2.174,-2.2519,-2.3893,-2.4767,-2.5527,-2.6275,-2.6888,-2.7345,-2.7499,-2.832,-2.8839,-2.8416,-2.9008,-2.908,-2.7805,-2.7927,-2.7945,-2.7345,-2.6515,-2.6669,-2.8481,-2.866,-2.8686,-2.8692,-2.9343,-2.944,-2.8648,-3.0259,-3.0881,-3.0188,-2.9869,-2.985,-3.017,-2.839,-2.7231,-2.6742,-2.5504,-2.4709,-2.4339,-2.4057,-2.3937,-2.3917,-2.3512,-2.385,-2.4696,-2.5171,-2.5666,-2.615,-2.6029,-2.6063,-2.6167,-2.6167,-2.6614,-2.7404,-4.1149,-4.1263,-4.0935,-3.954,-3.8936,-3.7973,-3.6026,-3.432,-3.417,-3.6698,-3.4897,-3.3288,-3.3105,-3.0502,-2.8888,-2.9221,-2.9197,-2.9372,-2.9907,-3.0283,-3.0289,-2.9832,-2.9844,-2.9832,-2.9783,-3.0629,-3.2454,-3.5308,-3.5486,-3.6794,-3.9117,-3.8493,-3.8455,-3.8808,-3.6508,-3.4779,-3.3375,-3.0303,-2.9483,-3.0068,-2.8107,-2.7081,-2.6641,-2.6005,-2.4485,-2.2713,-2.264,-2.1604,-2.028,-2.0058,-1.9492,-1.8893,-1.8765,-1.838,-1.7947,-1.7947,-1.8302,-1.8765,-1.8864,-1.9939,-2.1102,-2.1513,-2.2163,-2.2903,-2.3707,-2.4558,-2.5222,-2.5533,-2.629,-2.6894,-2.6724,-2.7418,-2.7775,-2.6843,-2.7571,-2.7952,-2.7011,-2.6871,-2.6629,-2.6046,-2.6199,-2.6737,-2.7673,-2.871,-2.9291,-2.9102,-2.9858,-3.0069,-2.9506,-3.0844,-3.1383,-3.086,-3.0395,-3.0377,-3.0844,-2.8367,-2.693,-2.6594,-2.5144,-2.4335,-2.4094,-2.3816,-2.3671,-2.3566,-2.3236,-2.3763,-2.4981,-2.6026,-2.6556,-2.6691,-2.6691,-2.6691,-2.6708,-2.6877,-2.7503,-2.8447,-4.0653,-4.0234,-3.9846,-3.909,-3.7581,-3.6279,-3.5636,-3.325,-3.1948,-3.3063,-3.208,-3.0989,-3.0198,-2.9212,-2.8298,-2.7499,-2.8417,-2.904,-2.9115,-2.9974,-3.0296,-2.9813,-3.0202,-3.0194,-2.971,-3.0337,-3.1548,-3.3353,-3.4158,-3.5469,-3.7264,-3.789,-3.7538,-3.6323,-3.595,-3.4578,-3.2446,-3.0948,-2.996,-2.9222,-2.7427,-2.5937,-2.4805,-2.4174,-2.2936,-2.1515,-2.1064,-2.0669,-2.0177,-1.9325,-1.8954,-1.8817,-1.8341,-1.7827,-1.7394,-1.7394,-1.7747,-1.8288,-1.8693,-1.9893,-2.1165,-2.1869,-2.2371,-2.2903,-2.3707,-2.3977,-2.4344,-2.5399,-2.5692,-2.5946,-2.6573,-2.571,-2.5304,-2.6505,-2.6251,-2.595,-2.6101,-2.6112,-2.5877,-2.5256,-2.6581,-2.7282,-2.6605,-2.8956,-3.0231,-2.9523,-3.0469,-3.1062,-3.1012,-3.1428,-3.17,-3.1678,-3.1629,-3.1629,-3.1682,-2.9049,-2.7331,-2.6594,-2.5695,-2.4748,-2.3753,-2.3714,-2.3544,-2.3212,-2.2898,-2.3433,-2.4605,-2.5372,-2.6099,-2.6691,-2.6691,-2.6691,-2.6776,-2.7469,-2.7998,-2.867,-3.8541,-3.8581,-3.8209,-3.6862,-3.6312,-3.5436,-3.3511,-3.1895,-3.071,-3.0251,-3.0089,-2.972,-2.8821,-2.826,-2.7884,-2.7743,-2.7708,-2.7827,-2.8209,-2.9084,-2.9527,-2.9334,-2.9465,-2.9705,-3.0054,-2.9815,-3.0857,-3.3216,-3.4666,-3.6209,-3.7858,-3.8125,-3.7165,-3.5156,-3.3862,-3.2529,-3.113,-2.9,-2.8063,-2.7838,-2.5708,-2.4758,-2.4403,-2.3003,-2.166,-2.0513,-2.0667,-2.0181,-1.9383,-1.9043,-1.8688,-1.8341,-1.7787,-1.7229,-1.6879,-1.7188,-1.7866,-1.8631,-1.9141,-2.032,-2.1519,-2.2238,-2.2583,-2.2893,-2.3368,-2.3694,-2.4098,-2.4805,-2.5287,-2.5558,-2.5389,-2.5253,-2.4915,-2.4188,-2.4543,-2.4706,-2.4067,-2.3967,-2.395,-2.3901,-2.4511,-2.5113,-2.5535,-2.767,-2.9077,-2.9195,-3.1274,-3.2368,-3.2011,-3.2051,-3.2571,-3.3688,-3.137,-3.0817,-3.2275,-2.8828,-2.6924,-2.6594,-2.5291,-2.4326,-2.3692,-2.35,-2.3375,-2.3323,-2.3648,-2.4305,-2.522,-2.5964,-2.642,-2.6691,-2.6691,-2.7267,-2.8117,-2.8423,-2.9403,-3.0782,-3.6279,-3.6353,-3.5931,-3.4339,-3.4377,-3.3823,-3.1417,-3.0489,-2.9541,-2.8053,-2.8384,-2.8442,-2.7613,-2.7229,-2.7094,-2.7167,-2.6879,-2.6774,-2.7007,-2.7875,-2.8354,-2.83,-2.8351,-2.872,-2.94,-2.9279,-3.0154,-3.2116,-3.4199,-3.5788,-3.6918,-3.7331,-3.6209,-3.3777,-3.2398,-3.0964,-2.9523,-2.7329,-2.6452,-2.6245,-2.397,-2.3209,-2.3224,-2.1697,-2.0489,-1.9697,-2.0217,-1.9758,-1.8893,-1.8893,-1.865,-1.8263,-1.7706,-1.7146,-1.6866,-1.7518,-1.8349,-1.9163,-1.9773,-2.075,-2.1774,-2.247,-2.2703,-2.2824,-2.2996,-2.3301,-2.3677,-2.4092,-2.4467,-2.4637,-2.4255,-2.4425,-2.4205,-2.2852,-2.3308,-2.3708,-2.3235,-2.2973,-2.3129,-2.3939,-2.4543,-2.5201,-2.5953,-2.7805,-2.9097,-2.9488,-3.1526,-3.2488,-3.1817,-3.217,-3.2844,-3.3927,-3.1201,-3.0411,-3.188,-2.8374,-2.6442,-2.6081,-2.4712,-2.3816,-2.3392,-2.3087,-2.3127,-2.3427,-2.3934,-2.4633,-2.543,-2.6084,-2.6489,-2.669,-2.6691,-2.7555,-2.8782,-2.8952,-3.0144,-3.1812,-3.4055,-3.3527,-3.2908,-3.1831,-3.1485,-3.0944,-2.9708,-2.9128,-2.8205,-2.6548,-2.6853,-2.6965,-2.6193,-2.6074,-2.5726,-2.5014,-2.5841,-2.6131,-2.5473,-2.6374,-2.684,-2.6644,-2.7019,-2.7267,-2.7328,-2.8682,-2.9375,-2.9355,-3.2029,-3.334,-3.3392,-3.4987,-3.4341,-3.1855,-3.2102,-3.0496,-2.7584,-2.6675,-2.5674,-2.4433,-2.2456,-2.1305,-2.0759,-1.9991,-1.9451,-1.908,-1.9605,-1.9404,-1.8893,-1.8893,-1.8893,-1.8817,-1.8263,-1.7706,-1.7504,-1.8489,-1.9178,-1.9768,-2.0573,-2.1178,-2.1774,-2.2495,-2.2695,-2.2695,-2.2721,-2.2695,-2.285,-2.3328,-2.3059,-2.2872,-2.3334,-2.2835,-2.2581,-2.3274,-2.2801,-2.2835,-2.4255,-2.3849,-2.4096,-2.6028,-2.797,-2.8933,-2.85,-3.0219,-3.1169,-3.0722,-3.1028,-3.0891,-3.0166,-3.1621,-3.2156,-3.1451,-3.1384,-3.0999,-3.0246,-2.7824,-2.6023,-2.4901,-2.4111,-2.3369,-2.2695,-2.2426,-2.2699,-2.3393,-2.341,-2.3957,-2.4857,-2.5396,-2.6034,-2.6692,-2.6708,-2.7317,-2.8267,-2.8808,-2.9708,-3.089,-3.094,-3.0821,-3.0612,-3.0181,-2.9521,-2.9012,-2.8892,-2.8057,-2.7101,-2.6136,-2.6523,-2.6286,-2.4769,-2.5232,-2.5433,-2.4933,-2.4759,-2.4633,-2.4469,-2.5077,-2.552,-2.5633,-2.5933,-2.6487,-2.7279,-2.7425,-2.811,-2.9375,-3.1502,-3.2773,-3.3244,-3.367,-3.2613,-3.0371,-3.0469,-2.9042,-2.6505,-2.5365,-2.3877,-2.2171,-2.0322,-1.9735,-1.9933,-1.9282,-1.9009,-1.9059,-1.9544,-1.9362,-1.9006,-1.9636,-1.9621,-1.9477,-1.9924,-1.9273,-1.8464,-1.9141,-1.9863,-2.0556,-2.1163,-2.1702,-2.2186,-2.2608,-2.2563,-2.249,-2.266,-2.2959,-2.3141,-2.2976,-2.3073,-2.321,-2.3363,-2.2801,-2.2395,-2.2615,-2.2462,-2.2462,-2.2936,-2.2959,-2.3431,-2.484,-2.5758,-2.6435,-2.6844,-2.8378,-2.9287,-2.9158,-3.1479,-3.2931,-3.3033,-3.2122,-3.139,-3.0865,-2.9373,-2.8755,-2.9021,-2.6411,-2.4933,-2.4545,-2.3743,-2.3117,-2.2695,-2.2426,-2.2699,-2.3393,-2.3056,-2.3577,-2.4625,-2.5046,-2.5481,-2.6017,-2.6505,-2.7555,-2.8774,-2.8943,-3.023,-3.1964,-2.8853,-2.8878,-2.882,-2.8729,-2.8362,-2.8111,-2.8207,-2.7522,-2.6848,-2.6481,-2.6443,-2.6033,-2.4906,-2.4828,-2.4803,-2.4544,-2.4147,-2.3737,-2.3325,-2.3736,-2.4028,-2.4039,-2.4412,-2.5094,-2.6084,-2.6274,-2.719,-2.8839,-3.0761,-3.1905,-3.227,-3.2078,-3.1191,-2.9704,-2.9099,-2.7717,-2.5747,-2.422,-2.2587,-2.0948,-1.9307,-1.9069,-1.9599,-1.8946,-1.8798,-1.9068,-1.9743,-1.9628,-1.931,-2.023,-2.0366,-2.0215,-2.0813,-2.0454,-1.9932,-2.0237,-2.0701,-2.1209,-2.1702,-2.2077,-2.2349,-2.25,-2.2426,-2.2349,-2.25,-2.2638,-2.2701,-2.2565,-2.2625,-2.2778,-2.2958,-2.2615,-2.231,-2.231,-2.231,-2.2349,-2.2453,-2.2616,-2.3405,-2.5283,-2.5679,-2.6271,-2.7536,-2.8268,-2.8574,-2.8393,-3.0307,-3.226,-3.4065,-3.2592,-3.1084,-2.9737,-2.8358,-2.7702,-2.7785,-2.5825,-2.4506,-2.3837,-2.3177,-2.2755,-2.2537,-2.2388,-2.2699,-2.3393,-2.3103,-2.3443,-2.4242,-2.4946,-2.5247,-2.538,-2.632,-2.7621,-2.9011,-2.9157,-3.0612,-3.2517,-2.7705,-2.7618,-2.7547,-2.7547,-2.779,-2.7897,-2.7558,-2.7282,-2.7106,-2.7075,-2.6461,-2.6031,-2.6018,-2.4758,-2.3895,-2.387,-2.3819,-2.332,-2.2214,-2.2468,-2.2495,-2.2152,-2.2675,-2.334,-2.4089,-2.5262,-2.6545,-2.7902,-2.9835,-3.0758,-3.069,-3.036,-3.0023,-2.9616,-2.8027,-2.6554,-2.516,-2.3257,-2.1792,-2.0617,-1.9224,-1.912,-1.9703,-1.9047,-1.8865,-1.9168,-2.0127,-2.0152,-1.9854,-2.0797,-2.1118,-2.1086,-2.1134,-2.1383,-2.1672,-2.1612,-2.1612,-2.1748,-2.218,-2.231,-2.231,-2.231,-2.231,-2.2282,-2.2254,-2.1928,-2.1764,-2.218,-2.1928,-2.1794,-2.2209,-2.231,-2.231,-2.231,-2.231,-2.2426,-2.266,-2.2833,-2.402,-2.6868,-2.729,-2.8082,-2.9947,-2.9458,-2.8866,-2.854,-2.8146,-2.9608,-3.3414,-3.2787,-3.1005,-2.8201,-2.804,-2.7531,-2.6462,-2.5732,-2.4537,-2.2851,-2.2477,-2.231,-2.231,-2.231,-2.2682,-2.3325,-2.3279,-2.3438,-2.377,-2.4993,-2.523,-2.4957,-2.6269,-2.7672,-2.9047,-2.9506,-3.0867,-3.255,-2.6962,-2.6926,-2.6903,-2.6903,-2.6536,-2.625,-2.6337,-2.5798,-2.526,-2.4912,-2.5167,-2.5114,-2.438,-2.3964,-2.3672,-2.3544,-2.2983,-2.2624,-2.2565,-2.2446,-2.2446,-2.2548,-2.2686,-2.3176,-2.4008,-2.436,-2.5657,-2.7902,-2.9153,-3.005,-3.0608,-2.977,-2.9052,-2.8369,-2.7073,-2.5583,-2.3987,-2.2345,-2.1007,-1.9834,-1.8763,-1.8747,-1.9439,-1.9558,-1.9982,-2.0578,-2.1066,-2.0974,-2.0814,-2.1871,-2.2046,-2.1955,-2.2513,-2.2556,-2.2334,-2.179,-2.1853,-2.2163,-2.2282,-2.231,-2.231,-2.231,-2.231,-2.2209,-2.1853,-2.1974,-2.2061,-2.1823,-2.1957,-2.218,-2.2282,-2.231,-2.231,-2.231,-2.2463,-2.2652,-2.2747,-2.3731,-2.489,-2.6224,-2.7164,-2.8105,-2.9177,-2.8622,-2.8599,-2.9621,-2.9403,-3.0005,-3.1725,-3.0869,-2.9344,-2.7128,-2.6711,-2.6026,-2.4935,-2.3698,-2.2877,-2.2449,-2.2338,-2.231,-2.231,-2.231,-2.2412,-2.2535,-2.2178,-2.2595,-2.3499,-2.4064,-2.4746,-2.5547,-2.6961,-2.8146,-2.9115,-3.0075,-3.1304,-3.255,-2.6691,-2.6691,-2.6691,-2.6691,-2.6185,-2.5812,-2.5983,-2.5419,-2.4777,-2.42,-2.4757,-2.4788,-2.3635,-2.3614,-2.3586,-2.3346,-2.2699,-2.226,-2.2214,-2.2243,-2.226,-2.2214,-2.2385,-2.2873,-2.3605,-2.3763,-2.4949,-2.7212,-2.8193,-2.893,-2.9444,-2.8653,-2.8051,-2.7625,-2.6201,-2.4868,-2.3666,-2.224,-2.1245,-2.0486,-1.9936,-2.0019,-2.0572,-2.0773,-2.1075,-2.1456,-2.1857,-2.1888,-2.1848,-2.2608,-2.2753,-2.2686,-2.3076,-2.3069,-2.2848,-2.2468,-2.2395,-2.2473,-2.2473,-2.2473,-2.2436,-2.2321,-2.231,-2.2237,-2.1974,-2.2106,-2.2237,-2.1957,-2.2106,-2.231,-2.231,-2.2581,-2.2699,-2.2361,-2.3138,-2.3728,-2.356,-2.4623,-2.5801,-2.6777,-2.6945,-2.7543,-2.8865,-2.8029,-2.788,-2.9006,-2.8771,-2.8746,-2.9123,-2.8648,-2.753,-2.5754,-2.5648,-2.5253,-2.4464,-2.3039,-2.231,-2.231,-2.231,-2.2496,-2.2801,-2.2462,-2.2682,-2.3274,-2.2668,-2.3013,-2.3951,-2.4458,-2.5245,-2.625,-2.7589,-2.8802,-2.9883,-3.0964,-3.2204,-3.3426,-2.6691,-2.6657,-2.659,-2.659,-2.6191,-2.5852,-2.5779,-2.5281,-2.4689,-2.4087,-2.4474,-2.4398,-2.3312,-2.3442,-2.3537,-2.3216,-2.2717,-2.2243,-2.179,-2.213,-2.2186,-2.1774,-2.2118,-2.2598,-2.3259,-2.3653,-2.4721,-2.6504,-2.7314,-2.7826,-2.799,-2.7358,-2.7043,-2.6925,-2.5374,-2.4351,-2.3708,-2.2604,-2.1968,-2.1693,-2.1693,-2.1836,-2.2087,-2.2148,-2.2161,-2.2146,-2.2607,-2.2743,-2.2743,-2.3194,-2.3323,-2.3277,-2.3277,-2.3277,-2.3277,-2.3212,-2.2996,-2.2772,-2.2721,-2.2669,-2.2573,-2.2377,-2.231,-2.231,-2.231,-2.231,-2.231,-2.231,-2.231,-2.2344,-2.2462,-2.2987,-2.3274,-2.2868,-2.4121,-2.5075,-2.4792,-2.5619,-2.6571,-2.7442,-2.6848,-2.6995,-2.8594,-2.7687,-2.7234,-2.7844,-2.7547,-2.7137,-2.6703,-2.6708,-2.6117,-2.4876,-2.5229,-2.5026,-2.4189,-2.2937,-2.2378,-2.253,-2.2496,-2.2852,-2.3528,-2.2919,-2.3308,-2.4472,-2.3905,-2.4088,-2.4819,-2.5479,-2.6277,-2.7178,-2.8308,-2.9584,-3.0922,-3.1912,-3.3087,-3.4274,-2.6691,-2.6367,-2.612,-2.612,-2.5689,-2.5182,-2.4712,-2.4138,-2.3533,-2.301,-2.3024,-2.2936,-2.2562,-2.309,-2.3357,-2.3126,-2.3084,-2.2898,-2.2565,-2.2608,-2.2608,-2.2538,-2.2381,-2.273,-2.3588,-2.476,-2.5886,-2.6996,-2.7256,-2.7412,-2.7489,-2.6504,-2.5882,-2.5579,-2.4581,-2.3928,-2.359,-2.2999,-2.2737,-2.2684,-2.2479,-2.2456,-2.2548,-2.2883,-2.3014,-2.3041,-2.3397,-2.3351,-2.3194,-2.3837,-2.3876,-2.361,-2.361,-2.361,-2.3566,-2.3282,-2.3165,-2.3069,-2.2772,-2.2537,-2.2349,-2.231,-2.231,-2.231,-2.231,-2.231,-2.231,-2.231,-2.231,-2.2496,-2.3105,-2.3325,-2.3765,-2.4915,-2.5276,-2.5641,-2.625,-2.6752,-2.6856,-2.6403,-2.7118,-2.7611,-2.7562,-2.7656,-2.7773,-2.788,-2.7547,-2.7137,-2.6703,-2.6708,-2.6607,-2.637,-2.6439,-2.5219,-2.266,-2.2412,-2.2728,-2.3566,-2.3338,-2.3613,-2.4337,-2.4218,-2.4286,-2.4506,-2.4758,-2.5236,-2.5962,-2.6433,-2.7437,-2.8805,-2.9629,-3.0508,-3.142,-3.2583,-3.3196,-3.3533,-2.6367,-2.6156,-2.5888,-2.5615,-2.5144,-2.4712,-2.443,-2.3664,-2.2831,-2.2239,-2.2498,-2.251,-2.1973,-2.2807,-2.3389,-2.3414,-2.345,-2.3392,-2.3236,-2.2898,-2.2634,-2.2473,-2.2377,-2.2651,-2.3414,-2.4226,-2.4893,-2.5442,-2.5314,-2.5431,-2.5721,-2.5113,-2.4833,-2.4838,-2.4147,-2.3786,-2.3618,-2.3223,-2.3154,-2.3323,-2.3351,-2.3396,-2.3494,-2.3787,-2.3824,-2.3774,-2.3917,-2.3876,-2.3795,-2.4094,-2.4094,-2.3976,-2.3976,-2.3976,-2.3896,-2.3566,-2.3212,-2.2898,-2.2746,-2.25,-2.231,-2.231,-2.231,-2.231,-2.231,-2.231,-2.231,-2.231,-2.231,-2.2412,-2.275,-2.346,-2.3951,-2.3849,-2.586,-2.7187,-2.6538,-2.7611,-2.827,-2.7745,-2.6904,-2.679,-2.7781,-2.7155,-2.7004,-2.7826,-2.7725,-2.7369,-2.6724,-2.6708,-2.6454,-2.5898,-2.4876,-2.4075,-2.3477,-2.3219,-2.36,-2.4543,-2.4181,-2.4374,-2.5067,-2.4661,-2.4915,-2.5709,-2.6143,-2.6757,-2.7487,-2.8329,-2.9337,-3.0414,-3.0999,-3.1685,-3.2481,-3.3234,-3.4087,-3.4882,-2.6085,-2.5815,-2.5449,-2.4918,-2.4496,-2.4101,-2.3803,-2.304,-2.2263,-2.176,-2.201,-2.2189,-2.1944,-2.2745,-2.3499,-2.3977,-2.3943,-2.3842,-2.3762,-2.3293,-2.2822,-2.2398,-2.2371,-2.2729,-2.3454,-2.3746,-2.3949,-2.4085,-2.384,-2.3819,-2.4045,-2.3969,-2.4062,-2.4302,-2.3979,-2.3816,-2.3795,-2.3544,-2.361,-2.3903,-2.4044,-2.4174,-2.4284,-2.4426,-2.4375,-2.419,-2.419,-2.419,-2.419,-2.419,-2.419,-2.419,-2.4113,-2.4151,-2.4094,-2.361,-2.3063,-2.2625,-2.2669,-2.25,-2.231,-2.231,-2.231,-2.231,-2.231,-2.231,-2.231,-2.231,-2.231,-2.2361,-2.253,-2.3613,-2.4282,-2.359,-2.6539,-2.8516,-2.7278,-2.8375,-2.9144,-2.8664,-2.676,-2.6039,-2.7486,-2.6712,-2.6552,-2.7561,-2.7632,-2.7379,-2.6721,-2.6521,-2.6151,-2.5562,-2.388,-2.3523,-2.4655,-2.4296,-2.4513,-2.5309,-2.5113,-2.5389,-2.6116,-2.571,-2.615,-2.7267,-2.7823,-2.8373,-2.8966,-3.0101,-3.0993,-3.1721,-3.2068,-3.269,-3.3379,-3.368,-3.4559,-3.5509,-2.6013,-2.5221,-2.4333,-2.3746,-2.3636,-2.326,-2.2072,-2.1838,-2.1725,-2.161,-2.1226,-2.1518,-2.3008,-2.308,-2.3547,-2.4795,-2.4613,-2.4301,-2.4006,-2.393,-2.3545,-2.2721,-2.2669,-2.3196,-2.4293,-2.4335,-2.436,-2.4366,-2.4342,-2.3969,-2.3287,-2.357,-2.3735,-2.3777,-2.4036,-2.417,-2.417,-2.4151,-2.4247,-2.4442,-2.4459,-2.4478,-2.4478,-2.4495,-2.4375,-2.419,-2.419,-2.419,-2.419,-2.419,-2.419,-2.4151,-2.3837,-2.3937,-2.4016,-2.3045,-2.2563,-2.2388,-2.2634,-2.25,-2.231,-2.231,-2.231,-2.231,-2.231,-2.231,-2.231,-2.231,-2.231,-2.2513,-2.319,-2.3951,-2.5036,-2.6674,-2.7806,-2.8766,-2.9677,-2.9068,-2.8233,-2.7521,-2.6935,-2.6273,-2.5425,-2.6803,-2.75,-2.6916,-2.6862,-2.6817,-2.6713,-2.6041,-2.5964,-2.6573,-2.5535,-2.5036,-2.5152,-2.5118,-2.5261,-2.5575,-2.6218,-2.6928,-2.7654,-2.8349,-2.874,-2.8878,-2.968,-3.0026,-3.0158,-3.0975,-3.1785,-3.2517,-3.2562,-3.3038,-3.3762,-3.3807,-3.3623,-3.3533,-2.56,-2.4653,-2.3676,-2.3098,-2.2696,-2.2271,-2.1744,-2.139,-2.1144,-2.1099,-2.126,-2.1833,-2.3171,-2.3438,-2.4242,-2.5903,-2.5113,-2.4613,-2.4833,-2.4319,-2.3611,-2.2746,-2.2695,-2.2911,-2.3335,-2.336,-2.3579,-2.4104,-2.3423,-2.3284,-2.3624,-2.346,-2.35,-2.3714,-2.4054,-2.419,-2.4209,-2.4321,-2.4705,-2.5254,-2.5373,-2.5639,-2.5928,-2.5445,-2.5116,-2.4869,-2.4373,-2.419,-2.419,-2.419,-2.419,-2.417,-2.4054,-2.4094,-2.4036,-2.3236,-2.2669,-2.2321,-2.2426,-2.2388,-2.231,-2.231,-2.231,-2.231,-2.231,-2.231,-2.231,-2.231,-2.231,-2.253,-2.3257,-2.4206,-2.5109,-2.5825,-2.7967,-2.9267,-2.846,-2.8804,-2.8763,-2.7725,-2.6673,-2.6126,-2.6454,-2.669,-2.6726,-2.6446,-2.6848,-2.6809,-2.607,-2.6182,-2.6404,-2.6691,-2.6351,-2.6114,-2.6114,-2.6416,-2.6851,-2.7407,-2.8164,-2.8663,-2.8939,-2.9459,-2.9431,-2.9098,-3.0867,-3.1367,-3.1053,-3.2365,-3.3073,-3.3348,-3.3348,-3.3532,-3.3807,-3.3807,-3.3879,-3.396,-2.5047,-2.4253,-2.3233,-2.2484,-2.2263,-2.2027,-2.1444,-2.1209,-2.1073,-2.1073,-2.1269,-2.2039,-2.3696,-2.3923,-2.4737,-2.6605,-2.5832,-2.5318,-2.5484,-2.4403,-2.3498,-2.288,-2.2678,-2.2746,-2.3076,-2.2819,-2.3039,-2.384,-2.2866,-2.2765,-2.3511,-2.329,-2.3305,-2.3566,-2.3996,-2.419,-2.4227,-2.4669,-2.5084,-2.5466,-2.6123,-2.6486,-2.6558,-2.5929,-2.5579,-2.5293,-2.4483,-2.419,-2.419,-2.419,-2.419,-2.419,-2.419,-2.4054,-2.3795,-2.3346,-2.2946,-2.2598,-2.2361,-2.2649,-2.2936,-2.2699,-2.2479,-2.2361,-2.2598,-2.2479,-2.231,-2.231,-2.2496,-2.2801,-2.3308,-2.444,-2.531,-2.5426,-2.7701,-2.9039,-2.7806,-2.8677,-2.9093,-2.8283,-2.7283,-2.6791,-2.7083,-2.6999,-2.6697,-2.6212,-2.6662,-2.6547,-2.5658,-2.6302,-2.6691,-2.6691,-2.6911,-2.7114,-2.7265,-2.7587,-2.8126,-2.8858,-2.9589,-2.9936,-2.997,-3.052,-3.0497,-3.0149,-3.216,-3.2666,-3.2175,-3.3429,-3.3899,-3.3807,-3.3807,-3.3807,-3.3825,-3.4082,-3.4175,-3.4167,-2.4313,-2.3869,-2.2994,-2.181,-2.2585,-2.2787,-2.0955,-2.1211,-2.1602,-2.1602,-2.1152,-2.1904,-2.478,-2.4591,-2.4936,-2.6744,-2.6891,-2.6544,-2.5744,-2.4115,-2.3189,-2.3189,-2.2624,-2.2801,-2.388,-2.3023,-2.2948,-2.3687,-2.2981,-2.2604,-2.2619,-2.3024,-2.3189,-2.323,-2.3896,-2.4208,-2.4264,-2.5262,-2.5351,-2.4955,-2.6563,-2.6736,-2.5992,-2.5777,-2.5579,-2.5291,-2.4483,-2.419,-2.419,-2.419,-2.419,-2.419,-2.4208,-2.3753,-2.3206,-2.3206,-2.331,-2.3241,-2.253,-2.3376,-2.4337,-2.3579,-2.2852,-2.2513,-2.3224,-2.2835,-2.231,-2.231,-2.2885,-2.3393,-2.341,-2.4611,-2.5751,-2.6135,-2.7093,-2.7947,-2.8349,-2.8733,-2.8975,-2.8975,-2.8975,-2.8383,-2.686,-2.7722,-2.7791,-2.6298,-2.6194,-2.6014,-2.5641,-2.6302,-2.6691,-2.6708,-2.7435,-2.8049,-2.8528,-2.8528,-2.8893,-2.9606,-3.0352,-3.0716,-3.0733,-3.1798,-3.233,-3.2364,-3.3562,-3.3923,-3.3616,-3.4085,-3.4087,-3.3788,-3.3788,-3.3807,-3.3899,-3.4697,-3.44,-3.3616,-2.3107,-2.233,-2.1414,-2.0819,-2.1142,-2.1125,-1.9989,-2.0466,-2.0977,-2.1011,-2.1589,-2.2745,-2.4697,-2.5313,-2.624,-2.7813,-2.7224,-2.6245,-2.5014,-2.4158,-2.3432,-2.2865,-2.2625,-2.264,-2.2962,-2.2899,-2.324,-2.3967,-2.3552,-2.3358,-2.3391,-2.3596,-2.3406,-2.2873,-2.3544,-2.3837,-2.3933,-2.5312,-2.5816,-2.5786,-2.7377,-2.7766,-2.7233,-2.6319,-2.5918,-2.5647,-2.4327,-2.3996,-2.419,-2.419,-2.419,-2.43,-2.485,-2.4545,-2.4078,-2.4658,-2.4507,-2.4133,-2.3883,-2.4154,-2.4337,-2.3579,-2.3224,-2.3122,-2.3342,-2.2835,-2.2462,-2.297,-2.3482,-2.4059,-2.4808,-2.5764,-2.6557,-2.6901,-2.7678,-2.8061,-2.7687,-2.793,-2.8163,-2.8163,-2.8163,-2.8197,-2.8281,-2.8099,-2.7572,-2.6618,-2.6073,-2.5941,-2.6336,-2.6573,-2.6945,-2.7469,-2.8014,-2.9109,-3.0872,-3.0635,-3.0656,-3.0868,-3.1628,-3.1777,-3.1495,-3.2582,-3.278,-3.2398,-3.4112,-3.4237,-3.319,-3.3634,-3.3651,-3.3332,-3.3014,-3.3417,-3.4142,-3.4042,-3.3668,-3.3241,-2.2233,-2.1663,-2.091,-2.0379,-2.0841,-2.0952,-1.9901,-2.0667,-2.1394,-2.1458,-2.2774,-2.4213,-2.548,-2.7075,-2.8193,-2.8524,-2.7369,-2.6023,-2.4617,-2.377,-2.3038,-2.2437,-2.2459,-2.265,-2.3014,-2.308,-2.3463,-2.4216,-2.3694,-2.3418,-2.3401,-2.3413,-2.3259,-2.2923,-2.3459,-2.3774,-2.401,-2.5667,-2.6169,-2.604,-2.8013,-2.8278,-2.7416,-2.66,-2.6077,-2.5637,-2.4714,-2.4511,-2.4667,-2.4667,-2.4667,-2.4814,-2.5621,-2.5375,-2.488,-2.5366,-2.5236,-2.4864,-2.4591,-2.4946,-2.5186,-2.4441,-2.4036,-2.3833,-2.3833,-2.3477,-2.3265,-2.3574,-2.4156,-2.4871,-2.5706,-2.6329,-2.6827,-2.7046,-2.7446,-2.7583,-2.712,-2.7504,-2.7789,-2.7789,-2.8349,-2.8805,-2.8958,-2.8822,-2.8281,-2.7215,-2.6725,-2.6556,-2.6691,-2.6979,-2.7402,-2.8066,-2.9212,-3.0693,-3.2449,-3.2373,-3.2444,-3.2745,-3.2403,-3.2231,-3.2291,-3.2753,-3.2882,-3.2838,-3.4284,-3.4358,-3.3453,-3.3681,-3.3457,-3.2908,-3.292,-3.3395,-3.4059,-3.4375,-3.4228,-3.3934,-2.1484,-2.144,-2.0995,-2.0155,-2.1165,-2.1626,-2.0226,-2.133,-2.236,-2.2469,-2.4353,-2.6002,-2.6887,-2.9315,-3.0327,-2.8934,-2.7341,-2.5808,-2.4391,-2.3125,-2.2329,-2.2009,-2.2243,-2.2786,-2.3635,-2.3447,-2.3665,-2.4389,-2.3544,-2.3096,-2.3087,-2.2902,-2.2943,-2.3212,-2.3544,-2.3912,-2.4372,-2.6061,-2.6413,-2.6005,-2.835,-2.8293,-2.6822,-2.6638,-2.6038,-2.5344,-2.5271,-2.5273,-2.5291,-2.5326,-2.5383,-2.5529,-2.6347,-2.6141,-2.5605,-2.565,-2.5663,-2.5558,-2.4864,-2.5676,-2.6539,-2.5879,-2.5154,-2.463,-2.4594,-2.4557,-2.4428,-2.4199,-2.4949,-2.5768,-2.6161,-2.651,-2.6758,-2.6691,-2.6691,-2.6691,-2.6691,-2.7283,-2.7739,-2.7909,-2.9161,-2.9786,-2.9228,-2.9736,-2.9499,-2.8009,-2.7926,-2.7621,-2.6928,-2.7554,-2.8169,-2.8774,-3.0855,-3.2506,-3.3599,-3.3723,-3.4145,-3.4765,-3.277,-3.2254,-3.2993,-3.2519,-3.2739,-3.3541,-3.4201,-3.4303,-3.4047,-3.4116,-3.3519,-3.2594,-3.3318,-3.3653,-3.39,-3.5256,-3.5496,-3.5152,-2.0181,-1.9735,-1.919,-1.8748,-1.9547,-1.9877,-1.8839,-2.0469,-2.1941,-2.2426,-2.477,-2.6656,-2.738,-2.9506,-3.0351,-2.9,-2.6992,-2.5106,-2.3507,-2.3111,-2.2664,-2.2034,-2.2686,-2.3181,-2.3396,-2.3483,-2.3812,-2.4389,-2.4033,-2.3883,-2.393,-2.3722,-2.3484,-2.3212,-2.3544,-2.4097,-2.4798,-2.5616,-2.6226,-2.673,-2.7904,-2.7599,-2.641,-2.6267,-2.5679,-2.4856,-2.4284,-2.4251,-2.4499,-2.4817,-2.5139,-2.5539,-2.6408,-2.6579,-2.6496,-2.6819,-2.6705,-2.642,-2.6268,-2.6454,-2.6657,-2.6488,-2.605,-2.5611,-2.5426,-2.4898,-2.4625,-2.5159,-2.5699,-2.6186,-2.6533,-2.6916,-2.7051,-2.6758,-2.6691,-2.6691,-2.6691,-2.6843,-2.7385,-2.8586,-2.9025,-2.9617,-3.0615,-3.0362,-2.9719,-2.8805,-2.8738,-2.8653,-2.8501,-2.8636,-2.9466,-3.1116,-3.2018,-3.3603,-3.6027,-3.5061,-3.4624,-3.4783,-3.2792,-3.2354,-3.3301,-3.2634,-3.305,-3.4269,-3.4421,-3.4168,-3.3607,-3.4185,-3.3831,-3.2941,-3.3299,-3.4014,-3.4844,-3.4826,-3.4755,-3.4729,-1.9384,-1.8836,-1.8425,-1.8757,-1.9233,-1.9412,-1.8884,-2.0658,-2.2332,-2.3096,-2.6031,-2.8148,-2.8338,-3.0774,-3.1301,-2.8615,-2.6217,-2.4123,-2.2439,-2.2123,-2.1963,-2.1873,-2.2286,-2.269,-2.3006,-2.3284,-2.36,-2.3884,-2.3354,-2.3289,-2.3675,-2.3429,-2.3368,-2.3455,-2.361,-2.4248,-2.5178,-2.5852,-2.6596,-2.7372,-2.78,-2.7585,-2.6973,-2.6494,-2.5808,-2.5132,-2.5521,-2.5648,-2.5691,-2.6139,-2.6157,-2.6165,-2.7005,-2.7155,-2.7023,-2.7243,-2.7036,-2.6691,-2.6691,-2.6691,-2.6657,-2.6401,-2.6405,-2.6264,-2.5714,-2.5395,-2.5329,-2.5797,-2.6182,-2.6541,-2.6918,-2.6987,-2.6922,-2.6725,-2.6691,-2.6826,-2.7182,-2.7232,-2.7672,-2.8876,-2.9296,-2.9973,-3.1089,-3.1157,-3.0835,-3.0091,-3.0362,-3.026,-2.955,-2.9854,-3.0626,-3.1861,-3.3459,-3.4993,-3.6453,-3.6308,-3.6127,-3.5918,-3.3355,-3.2617,-3.3428,-3.2359,-3.2619,-3.3981,-3.3981,-3.3761,-3.3457,-3.4201,-3.3981,-3.3231,-3.3752,-3.4304,-3.489,-3.4982,-3.503,-3.5057,-1.907,-1.8556,-1.8294,-1.9105,-1.938,-1.9392,-1.9313,-2.1082,-2.2786,-2.3784,-2.7182,-2.9429,-2.9261,-3.1367,-3.128,-2.7496,-2.4868,-2.2712,-2.1114,-2.0772,-2.0887,-2.1476,-2.17,-2.2146,-2.2791,-2.2985,-2.3142,-2.3266,-2.2607,-2.2719,-2.3493,-2.3135,-2.3406,-2.4176,-2.3922,-2.4538,-2.5844,-2.6227,-2.7016,-2.7989,-2.786,-2.7787,-2.7732,-2.7053,-2.63,-2.5768,-2.7024,-2.724,-2.6989,-2.7447,-2.7194,-2.6806,-2.7478,-2.75,-2.7303,-2.721,-2.6971,-2.6691,-2.6691,-2.6691,-2.6624,-2.6227,-2.6369,-2.648,-2.6084,-2.6064,-2.6158,-2.6168,-2.6447,-2.6808,-2.7147,-2.6939,-2.6691,-2.6691,-2.681,-2.7114,-2.7705,-2.7943,-2.8315,-2.9076,-2.9939,-3.0717,-3.1326,-3.2053,-3.2222,-3.1613,-3.2121,-3.1935,-3.0734,-3.1241,-3.1832,-3.2466,-3.4742,-3.6143,-3.6468,-3.7224,-3.7438,-3.7081,-3.4303,-3.3165,-3.3609,-3.2171,-3.2332,-3.3778,-3.3643,-3.3592,-3.3643,-3.4387,-3.4295,-3.3828,-3.4559,-3.4848,-3.4873,-3.543,-3.5622,-3.5622,-1.9685,-1.9092,-1.8655,-1.8744,-1.8822,-1.8822,-1.8822,-2.0523,-2.2306,-2.3723,-2.6673,-2.8851,-2.9334,-2.8575,-2.7127,-2.4786,-2.2366,-2.0404,-1.9064,-1.9547,-2.0126,-2.07,-2.1756,-2.2574,-2.3216,-2.253,-2.2499,-2.3155,-2.3369,-2.4065,-2.5156,-2.4443,-2.4855,-2.6146,-2.4736,-2.5381,-2.7383,-2.6119,-2.6833,-2.8796,-2.8081,-2.7787,-2.7787,-2.7677,-2.7145,-2.6423,-2.6304,-2.6025,-2.5791,-2.622,-2.6498,-2.6722,-2.6828,-2.7051,-2.7241,-2.6873,-2.6758,-2.6691,-2.6691,-2.6691,-2.6691,-2.6624,-2.601,-2.5767,-2.7192,-2.7128,-2.6648,-2.6139,-2.6403,-2.6725,-2.6791,-2.6725,-2.6691,-2.6691,-2.7249,-2.7671,-2.7772,-2.8399,-2.911,-2.9871,-3.1157,-3.2019,-3.2121,-3.2814,-3.322,-3.3119,-3.3186,-3.3169,-3.2966,-3.3051,-3.3622,-3.4787,-3.5218,-3.6217,-3.7998,-3.7248,-3.6859,-3.6819,-3.5729,-3.4824,-3.4137,-3.2884,-3.3448,-3.5284,-3.4641,-3.4336,-3.4404,-3.5165,-3.5301,-3.5123,-3.5842,-3.6136,-3.6111,-3.5732,-3.5622,-3.5622,-1.9755,-1.9607,-1.9409,-1.98,-1.953,-1.927,-1.9307,-2.0381,-2.1678,-2.3044,-2.5855,-2.7919,-2.8438,-2.685,-2.4825,-2.2585,-2.0576,-1.9238,-1.8696,-1.9285,-2.0142,-2.1164,-2.238,-2.3115,-2.3358,-2.3483,-2.3565,-2.3551,-2.326,-2.3744,-2.4896,-2.4933,-2.5554,-2.6576,-2.586,-2.6135,-2.709,-2.6374,-2.6943,-2.8264,-2.7457,-2.7677,-2.8407,-2.7734,-2.7222,-2.6843,-2.6277,-2.6234,-2.6498,-2.645,-2.6539,-2.6685,-2.6723,-2.6808,-2.6939,-2.6758,-2.6691,-2.6691,-2.6691,-2.6691,-2.6624,-2.6367,-2.657,-2.6824,-2.6934,-2.7619,-2.796,-2.7183,-2.7178,-2.7199,-2.6776,-2.6691,-2.6826,-2.7249,-2.7604,-2.8076,-2.8975,-2.9397,-3.004,-3.119,-3.1884,-3.2442,-3.2865,-3.3575,-3.4015,-3.4015,-3.4404,-3.4455,-3.4032,-3.4421,-3.472,-3.4839,-3.6253,-3.6911,-3.6781,-3.9259,-3.9868,-3.8642,-3.6563,-3.4549,-3.2728,-3.2998,-3.4024,-3.5535,-3.4675,-3.4327,-3.4395,-3.5239,-3.5535,-3.5506,-3.5805,-3.5941,-3.5941,-3.5711,-3.5622,-3.5622]},{"header":{"parameterUnit":"m.s-1","parameterCategory":1,"la1":30.6,"la2":28.766,"lo1":-90.7593,"lo2":-88.6598,"dy":0.0162,"dx":0.0183,"nx":116,"ny":114,"refTime":"2023-07-03T18:00:00:Z","depth":0,"parameterNumber":3,"parameterNumberName":"V-component_of_WINDS"},"data":[0.0,0.0,0.0,0.0,0.0,0.0,0.0,0.0,0.0,0.0,0.0,0.0,0.0,0.0,0.0,0.0,0.0,0.0,0.0,0.0,0.0,0.0,0.0,0.0,0.0,0.0,0.0,0.0,0.0,0.0,0.0,0.0,0.0,0.0,0.0,0.0,0.0,0.0,0.0,0.0,0.0,0.0,0.0,0.0,0.0,0.0,0.0,0.0,0.0,0.0,0.0,0.0,0.0,0.0,0.0,0.0,0.0,0.0,0.0,0.0,0.0,0.0,0.0,0.0,0.0,0.0,0.0,0.0,0.0,0.0,0.0,0.0,0.0,0.0,0.0,0.0,0.0,0.0,0.0,0.0,0.0,0.0,0.0,0.0,0.0,0.0,0.0,0.0,0.0,0.0,0.0,0.0,0.0,0.0,0.0,0.0,0.0,0.0,0.0,0.0,0.0,0.0,0.0,0.0,0.0,0.0,0.0,0.0,0.0,0.0,0.0,0.0,0.0,0.0,0.0,0.0,0.0,0.0,0.0,0.0,0.0,0.0,0.0,0.0,0.0,0.0,0.0,0.0,0.0,0.0,0.0,0.0,0.0,0.0,0.0,0.0,0.0,0.0,0.0,0.0,0.0,0.0,0.0,0.0,0.0,0.0,0.0,0.0,0.0,0.0,0.0,0.0,0.0,0.0,0.0,0.0,0.0,0.0,0.0,0.0,0.0,0.0,0.0,0.0,0.0,0.0,0.0,0.0,0.0,0.0,0.0,0.0,0.0,0.0,0.0,0.0,0.0,0.0,0.0,0.0,0.0,0.0,0.0,0.0,0.0,0.0,0.0,0.0,0.0,0.0,0.0,0.0,0.0,0.0,0.0,0.0,0.0,0.0,0.0,0.0,0.0,0.0,0.0,0.0,0.0,0.0,0.0,0.0,0.0,0.0,0.0,0.0,0.0,0.0,0.0,0.0,0.0,0.0,0.0,0.0,0.0,0.0,0.0,0.0,0.0,0.0,0.0,0.0,0.0,0.0,0.0,0.0,0.0,0.0,0.0,0.0,0.0,0.0,0.0,0.0,0.0,0.0,0.0,0.0,0.0,0.0,0.0,0.0,0.0,0.0,0.0,0.0,0.0,0.0,0.0,0.0,0.0,0.0,0.0,0.0,0.0,0.0,0.0,0.0,0.0,0.0,0.0,0.0,0.0,0.0,0.0,0.0,0.0,0.0,0.0,0.0,0.0,0.0,0.0,0.0,0.0,0.0,0.0,0.0,0.0,0.0,0.0,0.0,0.0,0.0,0.0,0.0,0.0,0.0,0.0,0.0,0.0,0.0,0.0,0.0,0.0,0.0,0.0,0.0,0.0,0.0,0.0,0.0,0.0,0.0,0.0,0.0,0.0,0.0,0.0,0.0,0.0,0.0,0.0,0.0,0.0,0.0,0.0,0.0,0.0,0.0,0.0,0.0,0.0,0.0,0.0,0.0,0.0,0.0,0.0,0.0,0.0,0.0,0.0,0.0,0.0,0.0,0.0,0.0,0.0,0.0,0.0,0.0,0.0,0.0,0.0,0.0,0.0,0.0,0.0,0.0,0.0,0.0,0.0,0.0,0.0,0.0,0.0,0.0,0.0,0.0,0.0,0.0,0.0,0.0,0.0,0.0,0.0,0.0,0.0,0.0,0.0,0.0,0.0,0.0,0.0,0.0,0.0,0.0,0.0,0.0,0.0,0.0,0.0,0.0,0.0,0.0,0.0,0.0,0.0,0.0,0.0,0.0,0.0,0.0,0.0,0.0,0.0,0.0,0.0,0.0,0.0,0.0,0.0,0.0,0.0,0.0,0.0,0.0,0.0,0.0,0.0,0.0,0.0,0.0,0.0,0.0,0.0,0.0,0.0,0.0,0.0,0.0,0.0,0.0,0.0,0.0,0.0,0.0,0.0,0.0,0.0,0.0,0.0,0.0,0.0,0.0,0.0,0.0,0.0,0.0,0.0,0.0,0.0,0.0,0.0,0.0,0.0,0.0,0.0,0.0,0.0,0.0,0.0,0.0,0.0,0.0,0.0,0.0,0.0,0.0,0.0,0.0,0.0,0.0,0.0,0.0,0.0,0.0,0.0,0.0,0.0,0.0,0.0,0.0,0.0,0.0,0.0,0.0,0.0,0.0,0.0,0.0,0.0,0.0,0.0,0.0,0.0,0.0,0.0,0.0,0.0,0.0,0.0,0.0,0.0,0.0,0.0,0.0,0.0,0.0,0.0,0.0,0.0,0.0,0.0,0.0,0.0,0.0,0.0,0.0,0.0,0.0,0.0,0.0,0.0,0.0,0.0,0.0,0.0,0.0,0.0,0.0,0.0,0.0,0.0,0.0,0.0,0.0,0.0,0.0,0.0,0.0,0.0,0.0,0.0,0.0,0.0,0.0,0.0,0.0,0.0,0.0,0.0,0.0,0.0,0.0,0.0,0.0,0.0,0.0,0.0,0.0,0.0,0.0,0.0,0.0,0.0,0.0,0.0,0.0,0.0,0.0,0.0,0.0,0.0,0.0,0.0,0.0,0.0,0.0,0.0,0.0,0.0,0.0,0.0,0.0,0.0,0.0,0.0,0.0,0.0,0.0,0.0,0.0,0.0,0.0,0.0,0.0,0.0,0.0,0.0,0.0,0.0,0.0,0.0,0.0,0.0,0.0,0.0,0.0,0.0,0.0,0.0,0.0,0.0,0.0,0.0,0.0,0.0,0.0,0.0,0.0,0.0,0.0,0.0,0.0,0.0,0.0,0.0,0.0,0.0,0.0,0.0,0.0,0.0,0.0,0.0,0.0,0.0,0.0,0.0,0.0,0.0,0.0,0.0,0.0,0.0,0.0,0.0,0.0,0.0,0.0,0.0,0.0,0.0,0.0,0.0,0.0,0.0,0.0,0.0,0.0,0.0,0.0,0.0,0.0,0.0,0.0,0.0,0.0,0.0,0.0,0.0,0.0,0.0,0.0,0.0,0.0,0.0,0.0,0.0,0.0,0.0,0.0,0.0,0.0,0.0,0.0,0.0,0.0,0.0,0.0,0.0,0.0,0.0,0.0,0.0,0.0,0.0,0.0,0.0,0.0,0.0,0.0,0.0,0.0,0.0,0.0,0.0,0.0,0.0,0.0,0.0,0.0,0.0,0.0,0.0,0.0,0.0,0.0,0.0,0.0,0.0,0.0,0.0,0.0,0.0,0.0,0.0,0.0,0.0,0.0,0.0,0.0,0.0,0.0,0.0,0.0,0.0,0.0,0.0,0.0,0.0,0.0,0.0,0.0,0.0,0.0,0.0,0.0,0.0,0.0,0.0,0.0,0.0,0.0,0.0,0.0,0.0,0.0,0.0,0.0,0.0,0.0,0.0,0.0,0.0,0.0,0.0,0.0,0.0,0.0,0.0,0.0,0.0,0.0,0.0,0.0,0.0,0.0,0.0,0.0,0.0,0.0,0.0,0.0,0.0,0.0,0.0,0.0,0.0,0.0,0.0,0.0,0.0,0.0,0.0,0.0,0.0,0.0,0.0,0.0,0.0,0.0,0.0,0.0,0.0,0.0,0.0,0.0,0.0,0.0,0.0,0.0,0.0,0.0,0.0,0.0,0.0,0.0,0.0,0.0,0.0,0.0,0.0,0.0,0.0,0.0,0.0,0.0,0.0,0.0,0.0,0.0,0.0,0.0,0.0,0.0,0.0,0.0,0.0,0.0,0.0,0.0,0.0,0.0,0.0,0.0,0.0,0.0,0.0,0.0,0.0,0.0,0.0,0.0,0.0,0.0,0.0,0.0,0.0,0.0,0.0,0.0,0.0,0.0,0.0,0.0,0.0,0.0,0.0,0.0,0.0,0.0,0.0,0.0,0.0,0.0,0.0,0.0,0.0,0.0,0.0,0.0,0.0,0.0,0.0,0.0,0.0,0.0,0.0,0.0,0.0,0.0,0.0,0.0,0.0,0.0,0.0,0.0,0.0,0.0,0.0,0.0,0.0,0.0,0.0,0.0,0.0,0.0,0.0,0.0,0.0,0.0,0.0,0.0,0.0,0.0,0.0,0.0,0.0,0.0,0.0,0.0,0.0,0.0,0.0,0.0,0.0,0.0,0.0,0.0,0.0,0.0,0.0,0.0,0.0,0.0,0.0,0.0,0.0,0.0,0.0,0.0,0.0,0.0,0.0,0.0,0.0,0.0,0.0,0.0,0.0,0.0,0.0,0.0,0.0,0.0,0.0,0.0,0.0,0.0,0.0,0.0,0.0,0.0,0.0,0.0,0.0,0.0,0.0,0.0,0.0,0.0,0.0,0.0,0.0,0.0,0.0,0.0,0.0,0.0,0.0,0.0,0.0,0.0,0.0,0.0,0.0,0.0,0.0,0.0,0.0,0.0,0.0,0.0,0.0,0.0,0.0,0.0,0.0,0.0,0.0,0.0,0.0,0.0,0.0,0.0,0.0,0.0,0.0,0.0,0.0,0.0,0.0,0.0,0.0,0.0,0.0,0.0,0.0,0.0,0.0,0.0,0.0,0.0,0.0,0.0,0.0,0.0,0.0,0.0,0.0,0.0,0.0,0.0,0.0,0.0,0.0,0.0,0.0,0.0,0.0,0.0,0.0,0.0,0.0,0.0,0.0,0.0,0.0,0.0,0.0,0.0,0.0,0.0,0.0,0.0,0.0,0.0,0.0,0.0,0.0,0.0,0.0,0.0,0.0,0.0,0.0,0.0,0.0,0.0,0.0,0.0,0.0,0.0,0.0,0.0,0.0,0.0,0.0,0.0,0.0,0.0,0.0,0.0,0.0,0.0,0.0,0.0,0.0,0.0,0.0,0.0,0.0,0.0,0.0,0.0,0.0,0.0,0.0,0.0,0.0,0.0,0.0,0.0,0.0,0.0,0.0,0.0,0.0,0.0,0.0,0.0,0.0,0.0,0.0,0.0,0.0,0.0,0.0,0.0,0.0,0.0,0.0,0.0,0.0,0.0,0.0,0.0,0.0,0.0,0.0,0.0,0.0,0.0,0.0,0.0,0.0,0.0,0.0,0.0,0.0,0.0,0.0,0.0,0.0,0.0,0.0,0.0,0.0,0.0,0.0,0.0,0.0,0.0,0.0,0.0,0.0,0.0,0.0,0.0,0.0,0.0,0.0,0.0,0.0,0.0,0.0,0.0,0.0,0.0,0.0,0.0,0.0,0.0,0.0,0.0,0.0,0.0,0.0,0.0,0.0,0.0,0.0,0.0,0.0,0.0,0.0,0.0,0.0,0.0,0.0,0.0,0.0,0.0,0.0,0.0,0.0,0.0,0.0,0.0,0.0,0.0,0.0,0.0,0.0,0.0,0.0,0.0,0.0,0.0,0.0,0.0,0.0,0.0,0.0,0.0,0.0,0.0,0.0,0.0,0.0,0.0,0.0,0.0,0.0,0.0,0.0,0.0,0.0,0.0,0.0,0.0,0.0,0.0,0.0,0.0,0.0,0.0,0.0,0.0,0.0,0.0,0.0,0.0,0.0,0.0,0.0,0.0,0.0,0.0,0.0,0.0,0.0,0.0,0.0,0.0,0.0,0.0,0.0,0.0,0.0,0.0,0.0,0.0,0.0,0.0,0.0,0.0,0.0,0.0,0.0,0.0,0.0,0.0,0.0,0.0,0.0,0.0,0.0,0.0,0.0,0.0,0.0,0.0,0.0,0.0,0.0,0.0,0.0,0.0,0.0,0.0,0.0,0.0,0.0,0.0,0.0,0.0,0.0,0.0,0.0,0.0,0.0,0.0,0.0,0.0,0.0,0.0,0.0,0.0,0.0,0.0,0.0,0.0,0.0,0.0,0.0,0.0,0.0,0.0,0.0,0.0,0.0,0.0,0.0,0.0,0.0,0.0,0.0,0.0,0.0,0.0,0.0,0.0,0.0,0.0,0.0,0.0,0.0,0.0,0.0,0.0,0.0,0.0,0.0,0.0,0.0,0.0,0.0,0.0,0.0,0.0,0.0,0.0,0.0,0.0,0.0,0.0,0.0,0.0,0.0,0.0,0.0,0.0,0.0,0.0,0.0,0.0,0.0,0.0,0.0,0.0,0.0,0.0,0.0,0.0,0.0,0.0,0.0,0.0,0.0,0.0,-0.3594,-0.452,0.0,0.0,0.0,0.0,0.0,0.0,0.0,0.0,0.0,0.0,0.0,0.0,0.0,0.0,0.0,0.0,0.0,0.0,0.0,0.0,0.0,0.0,0.0,0.0,0.0,0.0,0.0,0.0,0.0,0.0,0.0,0.0,0.0,0.0,0.0,0.0,0.0,0.0,1.1099,1.0327,0.9585,0.6749,0.4278,0.2164,0.0,0.0,0.0,0.0,0.0,0.0,0.0,0.0,0.0,0.0,0.0,0.0,0.0,0.0,0.0,0.0,0.0,0.0,0.0,0.0,0.0,0.0,0.0,0.0,0.0,0.0,0.0,0.0,0.0,0.0,0.0,0.0,0.0,0.0,0.0,0.0,0.0,0.0,0.0,0.0,0.0,0.0,0.0,0.0,0.0,0.0,0.0,0.0,0.0,0.0,0.0,0.0,0.0,0.0,0.0,0.0,0.0,0.0,0.0,0.0,0.0,0.0,0.0,0.0,0.0,0.0,0.0,0.0,0.0,0.0,-0.2323,-0.3157,0.0,0.0,0.0,0.0,0.0,0.0,0.0,0.0,0.0,0.0,0.0,0.0,0.0,0.0,0.0,0.0,0.0,0.0,0.0,0.0,0.0,0.0,0.0,0.0,0.0,0.0,0.0,0.0,0.0,0.0,0.0,0.0,0.0,0.0,0.0,0.0,0.0,0.0,1.3085,1.2175,1.0081,0.8182,0.6246,0.4346,0.1485,0.0,0.0,0.0,0.0,0.0,0.0,0.0,0.0,0.0,0.0,0.0,0.0,0.0,0.0,0.0,0.0,0.0,0.0,0.0,0.0,0.0,0.0,0.0,0.0,0.0,0.0,0.0,0.0,0.0,0.0,0.0,0.0,0.0,0.0,0.0,0.0,0.0,0.0,0.0,0.0,0.0,0.0,0.0,0.0,0.0,0.0,0.0,0.0,0.0,0.0,0.0,0.0,0.0,0.0,0.0,0.0,0.0,0.0,0.0,0.0,0.0,0.0,0.0,0.0691,0.0,0.0,0.0,0.0,-0.0099,-0.1181,-0.178,-0.2089,-0.2995,0.0,0.0,0.0,0.0,0.0,0.0,0.0,0.0,0.0,0.0,0.0,0.0,0.0,0.0,0.0,0.0,0.0,0.0,0.0,0.0,0.0,0.0,0.8318,0.7663,0.5697,0.3463,0.0,0.0,0.0,0.0,0.0,0.0,0.0,1.1164,1.2972,1.4795,1.5051,1.4098,1.209,1.0886,0.9571,0.8084,0.3137,0.0569,-0.0294,0.0,0.0,0.0,0.0,0.0,0.0,0.0,0.0,0.0,0.0,0.0,0.0,0.0,0.0,0.0,0.0,0.0,0.0,0.0,0.0,0.0,0.0,0.0,0.0,0.0,0.0,0.0,0.0,0.0,0.0,0.0,0.0,0.0,0.0,0.0,0.0,0.0,0.0,0.0,0.0,0.0,1.0267,0.7986,0.0,0.0,0.0,0.0,0.0,0.0,0.0,0.0,0.0,0.0,0.0,0.0,0.0,0.7308,0.6375,0.4745,0.3384,0.2157,0.0709,0.0,0.0,0.0,0.0,0.0,-0.0201,0.0,-0.1824,-0.2039,0.0,0.0,0.0,0.0,0.0,0.0,0.0,0.0,0.0,0.0,0.0,0.0,0.0,0.0,0.0,0.0,0.0,0.0,0.0,0.0,0.0,1.1345,1.0769,0.9602,0.7597,0.5018,0.0,0.0,0.0,0.0,0.0,0.0,0.0,1.2905,1.5028,1.688,1.6735,1.5832,1.4102,1.2946,1.1335,0.9221,0.61,0.3429,0.1073,-0.1436,0.0,0.0,0.0,0.0,0.0,0.0,0.0,0.0,0.0,0.0,0.0,0.0,0.0,0.0,0.0,0.0,0.0,0.0,0.0,0.0,0.0,0.0,0.0,0.0,0.0,0.0,0.0,0.0,0.0,0.0,0.0,0.0,0.0,0.0,0.0,0.0,0.0,0.0,0.0,1.3213,1.2168,1.0222,0.9552,0.8589,0.0,0.0,0.0,0.0,0.0,0.0,0.0,0.0,0.0,0.816,0.8248,0.8001,0.7525,0.6177,0.5083,0.4273,0.2123,0.1109,0.1109,0.0303,0.0,0.0,0.0,-0.03,-0.0787,-0.0785,-0.1462,-0.2605,0.0,0.0,0.0,0.0,-0.5686,-0.5891,0.0,0.0,0.0,0.0,0.0,0.0,0.0,0.0,0.0,0.0,0.0,0.0,1.3258,1.3412,1.3006,1.2013,0.9784,0.6839,0.3164,0.0,0.0,0.0,0.0,0.0,1.1805,1.5152,1.7419,1.8712,1.8398,1.7611,1.6383,1.5037,1.3191,1.0942,0.9459,0.6554,0.2576,0.012,-0.2136,-0.4177,0.0,0.0,0.0,0.0,0.0,0.0,0.0,0.0,0.0,0.0,0.0,0.0,0.0,0.0,0.0,0.0,0.0,0.0,0.0,0.0,0.0,0.0,0.0,0.0,0.0,0.0,0.0,0.0,0.0,0.0,0.0,0.0,0.0,0.0,0.0,0.0,0.0,1.4288,1.3698,1.2016,1.1081,1.0086,0.0,0.0,0.0,0.0,0.0,0.0,0.7974,0.7984,0.8089,0.8319,0.8428,0.8431,0.8326,0.7131,0.6336,0.607,0.3626,0.2314,0.2012,0.1008,0.0303,0.0,0.0,0.0,0.0,0.0,-0.0494,-0.1381,-0.1361,-0.1931,-0.2897,-0.4306,-0.5016,-0.5513,0.0,0.0,0.0,0.0,0.0,0.0,0.0,0.0,0.0,0.0,0.0,1.3081,1.4791,1.4612,1.4437,1.4674,1.1757,0.8364,0.479,0.2993,0.1891,0.1436,0.4815,0.8886,1.3487,1.7842,2.0088,2.01,2.0085,1.9737,1.9049,1.7402,1.5998,1.4746,1.2976,0.9205,0.4134,0.1798,-0.0405,-0.254,-0.4794,0.0,0.0,0.0,0.0,0.0,0.0,0.0,0.0,0.0,0.0,0.0,0.0,0.0,0.0,0.0,0.0,0.0,0.0,0.0,0.0,0.0,0.0,0.0,0.0,0.0,0.0,0.0,0.0,0.0,0.0,0.0,0.0,0.0,0.0,0.0,0.0,0.0,0.0,1.2358,1.1157,0.0,0.0,0.0,0.0,0.9763,0.8851,0.8299,0.8442,0.8448,0.8455,0.8472,0.8479,0.8479,0.8472,0.7082,0.6295,0.6282,0.4657,0.3215,0.2013,0.1913,0.1209,0.0,0.0,0.0,0.0,0.0,0.0,-0.0101,-0.0101,-0.0101,-0.0302,-0.1708,-0.3011,-0.4301,0.0,0.0,0.0,0.0,0.0,0.0,0.0,0.0,0.0,1.4085,1.5034,1.614,1.7626,1.8066,1.7915,1.7043,1.4941,1.1922,0.7812,0.6012,0.4896,0.4409,0.7219,1.1739,1.8083,2.0542,2.1826,2.1948,2.1296,2.0521,1.9639,1.8169,1.6736,1.5378,1.4347,1.1964,0.8507,0.564,0.2688,-0.0387,-0.3046,-0.5546,0.0,0.0,0.0,0.0,0.0,0.0,0.0,0.0,0.0,0.0,0.0,0.0,0.0,0.0,0.0,0.0,0.0,0.0,0.0,0.0,0.0,0.0,0.0,0.0,0.0,0.0,0.0,0.0,0.0,0.0,0.0,0.0,0.0,0.0,0.0,0.0,0.0,1.2501,1.2191,0.0,1.2198,1.0395,0.9441,0.9993,0.8981,0.8292,0.8343,0.8431,0.8482,0.8482,0.8482,0.8438,0.8347,0.7875,0.7493,0.7403,0.5944,0.5022,0.4522,0.2816,0.1712,0.1208,0.0398,0.0,0.0,0.0,0.0,0.0,0.0,0.0,-0.0198,-0.1464,-0.233,-0.3004,0.0,0.0,0.0,0.0,0.0,0.0,0.0,0.0,0.0,1.6061,1.7359,1.8695,2.0221,2.0634,2.0424,1.9488,1.7614,1.4825,1.0922,0.919,0.8177,0.7781,1.1228,1.5641,2.1039,2.2388,2.2966,2.2773,2.2101,2.1301,2.0347,1.9252,1.8135,1.6982,1.6393,1.5052,1.2967,1.0284,0.6444,0.1899,-0.1017,-0.3793,-0.6309,0.0,0.0,0.0,0.0,0.0,0.0,0.0,0.0,0.0,0.0,0.0,0.0,0.0,0.0,0.0,0.0,0.0,0.0,0.0,0.0,0.0,0.0,0.0,0.0,0.0,0.0,0.0,0.0,0.0,0.0,0.0,0.0,0.0,0.0,1.2761,1.2636,1.1902,1.2412,1.2879,1.3014,1.1584,1.0708,1.0775,0.9605,0.8794,0.834,0.8431,0.8462,0.8411,0.8411,0.834,0.8194,0.8194,0.814,0.7939,0.7132,0.641,0.5872,0.3685,0.2384,0.1876,0.0586,0.0,0.0,0.0,0.0,0.0,0.0,0.0,-0.0097,-0.0957,-0.1619,-0.2373,0.0,0.0,0.0,0.0,0.0,0.0,0.0,0.0,1.6166,1.8079,1.9216,2.0557,2.2363,2.2024,2.1733,2.198,1.9563,1.6844,1.3995,1.2486,1.1636,1.1526,1.666,2.0365,2.2106,2.3295,2.3455,2.252,2.2465,2.2026,2.1242,2.075,2.0225,1.9703,1.9161,1.8294,1.7073,1.529,1.0765,0.4416,0.1302,-0.1654,-0.4409,0.0,0.0,0.0,0.0,0.0,0.0,0.0,0.0,0.0,0.0,0.0,0.0,0.0,0.0,0.0,0.0,0.0,0.0,0.0,0.0,0.0,0.0,0.0,0.0,0.0,0.0,0.0,0.0,0.0,0.0,0.0,0.0,0.0,1.018,1.1629,1.213,1.0581,1.1681,1.2918,1.4004,1.2763,1.1938,1.2243,1.0961,0.9631,0.8563,0.8472,0.8411,0.8269,0.8262,0.8191,0.8041,0.8038,0.8038,0.8038,0.8035,0.7257,0.5858,0.459,0.3289,0.1808,0.0571,0.0095,0.0095,0.0,0.0,0.0,0.0,0.0,0.0,0.0,-0.0854,-0.2356,0.0,0.0,0.0,0.0,0.0,0.0,0.0,1.6466,1.8,2.0609,2.137,2.2248,2.3707,2.3248,2.2552,2.1834,1.9948,1.8111,1.649,1.4883,1.4633,1.6007,1.9264,2.1704,2.3157,2.3506,2.357,2.3304,2.15,2.0501,2.0255,1.8903,1.8102,1.7751,1.7614,1.7277,1.6809,1.6248,1.4197,1.0823,0.541,0.1108,-0.2252,0.0,0.0,0.0,0.0,0.0,0.0,0.0,0.0,0.0,0.0,0.0,0.0,0.0,0.0,0.0,0.0,0.0,0.0,0.0,0.0,0.0,0.0,0.0,0.0,0.0,0.0,0.0,0.0,0.0,0.0,0.0,1.1227,1.0465,1.0586,1.0246,1.0151,1.0849,1.0918,1.1854,1.4145,1.2068,1.1282,1.3294,1.0593,0.9037,0.9558,0.8772,0.8258,0.8106,0.8102,0.8082,0.8038,0.8038,0.8038,0.8038,0.7926,0.7654,0.7221,0.5772,0.4957,0.4454,0.2247,0.1304,0.1208,0.0359,0.0,0.0,0.0,0.0,0.0,0.0,-0.1306,-0.3202,0.0,0.0,0.0,0.0,0.0,0.0,0.0,1.8013,1.9656,2.2058,2.2885,2.3574,2.4472,2.3606,2.2703,2.2046,2.0816,1.9717,1.8877,1.8247,1.841,1.9514,2.1447,2.2866,2.3716,2.3736,2.3407,2.2755,2.1301,2.0177,1.941,1.8489,1.7772,1.7272,1.7593,1.7691,1.7596,1.7712,1.6993,1.536,1.0886,0.6306,0.1831,-0.0495,-0.2596,-0.4402,-0.4485,-0.5363,-0.6621,-0.7432,0.0,0.0,0.0,0.0,0.0,0.0,0.0,0.0,0.0,0.0,0.0,0.0,0.0,0.0,0.0,0.0,0.0,0.0,0.0,0.0,0.0,0.0,0.0,0.0,1.0903,0.973,0.9194,0.7946,0.7659,0.9102,0.9415,1.0315,1.2592,1.2098,1.1843,1.2226,1.0789,0.9622,0.9221,0.8521,0.8133,0.8041,0.8038,0.8007,0.7943,0.7943,0.7916,0.7855,0.7767,0.7689,0.7624,0.6216,0.5596,0.5359,0.2901,0.1799,0.1705,0.0517,0.0,0.0,0.0,0.0,0.0,0.0,-0.1742,-0.3334,0.0,0.0,0.0,0.0,0.0,0.0,0.0,1.9089,2.0877,2.2795,2.3828,2.4431,2.4585,2.3256,2.2305,2.219,2.156,2.1113,2.0962,2.1838,2.2328,2.2244,2.3189,2.379,2.3927,2.3739,2.2952,2.1587,2.1308,2.0367,1.8794,1.8805,1.8375,1.7609,1.8338,1.8705,1.8806,1.92,1.9001,1.8276,1.6538,1.2403,0.6967,0.3915,0.162,0.0,-0.0862,-0.2455,-0.4359,-0.6135,0.0,0.0,0.0,0.0,0.0,0.0,0.0,0.0,0.0,0.0,0.0,0.0,0.0,0.0,0.0,0.0,0.0,0.0,0.0,0.0,0.0,0.0,0.0,0.0,1.0654,0.8393,0.6858,0.5144,0.4559,0.6254,0.7393,0.8529,0.9987,1.2173,1.2522,1.0391,1.1165,1.0681,0.8333,0.8038,0.0,0.0,0.0,0.7946,0.7814,0.7794,0.7726,0.76,0.7584,0.7502,0.737,0.6236,0.5708,0.5422,0.3047,0.1986,0.1894,0.0579,0.0,0.0,0.0,0.0,-0.0167,-0.1328,-0.2262,-0.3037,0.0,0.0,0.0,0.0,0.0,0.0,0.0,1.8626,2.0606,2.3482,2.4132,2.4066,2.3423,2.2213,2.1283,2.0837,2.0214,2.0456,2.1846,2.3202,2.4044,2.4243,2.4013,2.3948,2.4144,2.2656,2.1743,2.1442,1.9959,1.9072,1.8705,1.8024,1.7606,1.7446,1.7714,1.8127,1.8659,1.9012,1.9166,1.9118,1.8256,1.5161,1.0814,0.8624,0.571,0.2678,0.1601,-0.074,-0.3469,-0.4431,-0.6672,-0.8897,-0.8384,-0.8798,0.0,0.0,0.0,0.0,0.0,0.0,0.0,0.0,0.0,0.0,0.0,0.0,0.0,0.0,0.0,0.0,0.0,0.0,0.0,1.5429,1.1621,0.7936,0.5464,0.2627,0.1901,0.4627,0.5913,0.7145,0.8466,0.9904,1.097,1.1463,1.0779,1.0194,0.9608,0.8627,0.8038,0.8038,0.7919,0.7841,0.7811,0.7699,0.7628,0.7597,0.7475,0.0,0.7363,0.6858,0.6647,0.6439,0.4085,0.3036,0.2862,0.0821,0.0,0.0,0.0,0.0,-0.0238,-0.202,-0.2758,-0.3181,0.0,0.0,0.0,0.0,0.0,0.0,0.0,1.7235,1.96,2.1945,2.3069,2.3361,2.2626,2.1615,2.1046,2.1192,2.1393,2.2154,2.3705,2.4366,2.4798,2.5041,2.4694,2.4101,2.3272,2.2233,2.1213,2.0241,1.9313,1.8617,1.8141,1.8153,1.7681,1.6906,1.796,1.865,1.9045,1.9754,2.0369,2.0826,2.0513,1.9141,1.6879,1.3411,1.0237,0.7435,0.592,0.2781,-0.0946,-0.257,-0.5087,-0.7641,-0.8031,-0.7906,-0.7234,0.0,0.0,0.0,0.0,0.0,0.0,0.0,0.0,0.0,0.0,0.0,0.0,0.0,0.0,2.4568,2.4598,0.0,1.8944,1.5949,1.1783,0.7856,0.4963,0.1329,0.0109,0.2976,0.4383,0.5726,0.7103,0.8892,0.9998,0.9998,0.9998,0.9706,0.9019,0.8333,0.8038,0.8038,0.7967,0.7855,0.7706,0.7634,0.7522,0.7366,0.7292,0.7204,0.7105,0.6983,0.6888,0.6635,0.4405,0.3376,0.3125,0.0886,0.0,0.0,0.0,0.0,-0.0154,-0.172,-0.2497,-0.3043,0.0,0.0,0.0,0.0,0.0,0.0,0.0,0.0,0.0,1.9442,2.1222,2.2223,2.1914,2.123,2.1213,2.2229,2.3118,2.4117,2.5285,2.5155,2.5078,2.5221,2.4881,2.3999,2.2492,2.189,2.0896,1.9475,1.9259,1.8814,1.8251,1.8929,1.8516,1.7253,1.8888,1.9664,1.9731,2.0707,2.1528,2.2163,2.2306,2.2492,2.225,1.8177,1.5095,1.2625,1.0535,0.6612,0.2044,-0.0121,-0.2883,-0.5741,-0.7061,-0.6324,-0.4583,-0.2773,0.1745,0.0,0.0,0.0,0.0,0.0,0.0,0.0,0.0,2.7904,2.7976,2.8998,2.7962,2.6736,2.6408,2.3639,2.0145,1.6415,1.1838,0.7593,0.4539,0.0533,-0.1175,0.1098,0.2649,0.4222,0.5746,0.8378,0.941,0.8137,0.9217,0.941,0.8038,0.8038,0.8038,0.8038,0.8011,0.7868,0.76,0.757,0.7417,0.7139,0.7139,0.7058,0.6902,0.6888,0.6645,0.6268,0.3987,0.2895,0.2491,0.0711,0.0,0.0,0.0,0.0,-0.0149,-0.1164,-0.2062,-0.2856,0.0,0.0,0.0,0.0,0.0,0.0,0.0,0.0,0.0,1.6726,1.8741,2.0278,2.1038,2.0923,2.151,2.3277,2.3798,2.4365,2.5169,2.5128,2.5054,2.496,2.3908,2.324,2.3025,2.1129,2.0355,2.0784,2.0,1.9896,2.0453,2.0548,2.0477,2.0297,2.0668,2.0759,2.0695,2.1343,2.1615,2.1641,2.2299,2.3037,2.3634,2.2785,2.0269,1.6813,1.3912,0.9455,0.4752,0.3613,0.0178,-0.3523,-0.2954,-0.1976,-0.0779,0.0437,0.5058,1.0478,1.3614,1.9723,2.6235,3.0257,3.1393,3.2214,0.0,3.492,3.3558,3.2732,3.1946,3.0845,2.9143,2.5526,2.1671,1.8128,1.2412,0.7029,0.3065,-0.0105,-0.1871,-0.1565,0.0724,0.2761,0.4133,0.771,0.941,0.8137,0.9217,0.941,0.8038,0.8038,0.8038,0.8038,0.7909,0.776,0.76,0.7465,0.7312,0.7139,0.7139,0.7129,0.7099,0.6844,0.6207,0.5173,0.2801,0.1259,0.0315,0.0079,0.0,0.0,0.0,0.0,-0.0142,-0.0985,-0.1889,-0.284,0.0,0.0,0.0,0.0,0.0,0.0,0.0,0.0,0.0,0.0,1.4361,1.6072,1.6998,1.9317,2.1567,2.3441,2.4264,2.4807,2.5125,2.4828,2.46,2.4553,2.3771,2.2923,2.2072,2.1049,2.0267,1.9706,1.9344,1.9327,1.9644,2.0297,2.0645,2.0628,2.1103,2.1785,2.2583,2.2301,2.2662,2.344,2.3756,2.4089,2.4419,2.4394,2.3324,2.1251,1.7144,1.2467,0.0,0.6072,0.3154,0.0474,0.1087,0.1999,0.3253,0.5459,0.9135,1.3793,1.9515,2.5477,3.0438,3.228,3.371,3.5118,3.6975,3.6484,3.5737,3.5929,3.4139,3.2274,3.148,2.743,2.2781,1.8589,1.3171,0.7753,0.2758,-0.0306,-0.1729,-0.0914,0.081,0.2524,0.3917,0.6915,0.8627,0.8038,0.8531,0.8627,0.8038,0.8038,0.8038,0.8038,0.7977,0.7872,0.7726,0.7577,0.7475,0.7234,0.7143,0.7024,0.6888,0.6732,0.5691,0.3854,0.2289,0.102,0.0,0.0,0.0,-0.0074,-0.0585,-0.078,-0.082,-0.116,-0.1908,-0.2778,0.0,0.0,0.0,0.0,0.0,0.0,0.0,0.0,0.0,0.0,0.0,0.0,0.0,1.813,2.1385,2.33,2.4461,2.5024,2.4885,2.446,2.4116,2.3822,2.3372,2.2546,2.1387,2.0935,2.0352,1.9684,1.9462,1.9574,1.9971,2.0792,2.1264,2.1398,2.1888,2.2942,2.4322,2.362,2.4091,2.5326,2.5425,2.5462,2.5514,2.5771,2.5512,2.4432,2.0056,1.5774,1.177,0.9153,0.6602,0.4632,0.5076,0.6028,0.7527,1.0335,1.4021,1.8682,2.535,3.0159,3.3614,3.4489,3.629,3.8052,3.8601,3.8161,3.767,3.781,3.5608,3.3418,3.2516,2.8828,2.4202,1.9265,1.4315,0.912,0.3384,0.02,-0.1107,-0.0101,0.1209,0.2722,0.4448,0.6648,0.8038,0.8038,0.8038,0.8038,0.8038,0.8038,0.8038,0.8038,0.8038,0.7946,0.7753,0.7361,0.7044,0.6886,0.663,0.6462,0.6231,0.5949,0.4786,0.3046,0.1722,0.0706,0.0,0.0,-0.0153,-0.0437,-0.1018,-0.1477,-0.1742,-0.1941,-0.2465,-0.3095,0.0,0.0,0.0,0.0,0.0,0.0,0.0,0.0,0.0,0.0,0.0,0.0,0.0,1.8007,2.0929,2.2933,2.4274,2.4803,2.4351,2.4118,2.3596,2.2683,2.2319,2.1933,2.1493,2.0485,2.0591,2.1917,2.1197,2.1529,2.2865,2.2933,2.3181,2.3605,2.3605,2.4363,2.5537,2.546,2.5897,2.6668,2.699,2.7161,2.7268,2.7651,2.7078,2.5644,2.2497,1.9365,1.6289,1.3522,1.0785,0.8607,0.8909,1.022,1.2103,1.4483,1.9958,2.6009,2.9856,3.3156,3.5995,3.8546,4.0522,4.1894,4.203,4.1382,4.0168,3.7848,3.6674,3.4969,3.168,2.9625,2.6468,2.0702,1.613,1.1109,0.4828,0.1593,0.0,0.0205,0.1334,0.3283,0.5975,0.7308,0.8038,0.8038,0.8038,0.8038,0.8038,0.8038,0.8038,0.8038,0.8038,0.7899,0.7607,0.6452,0.5689,0.5488,0.5263,0.5178,0.5075,0.3901,0.3277,0.2968,0.094,0.0,0.0,0.0,-0.0534,-0.1236,-0.1308,-0.1828,-0.2744,-0.3613,-0.3878,-0.3771,0.0,0.0,0.0,0.0,0.0,0.0,0.0,0.0,0.0,0.0,0.0,0.0,0.0,0.0,0.0,0.0,2.3789,2.4617,2.4316,2.3521,2.2832,2.2293,2.2112,2.1827,2.1381,2.1459,2.1585,2.1819,2.1552,2.1904,2.283,2.3475,2.436,2.5416,2.5609,2.6488,2.7826,2.7302,2.7515,2.8184,2.7899,2.7898,2.7945,2.7191,2.6963,2.6718,0.0,2.1274,1.7854,1.4657,1.2997,1.2281,1.2305,1.3401,1.5478,1.9147,2.4047,2.8773,3.1354,3.4852,3.8197,3.9961,4.1533,4.2778,4.33,4.2799,4.1922,4.0662,3.8847,3.6722,3.4228,3.1616,2.8071,2.2808,1.925,1.4669,0.7501,0.5862,0.4624,0.2922,0.4126,0.5714,0.7315,0.7854,0.8549,0.9225,0.8528,0.8432,0.9316,0.8531,0.8038,0.8038,0.794,0.7841,0.774,0.6315,0.5613,0.5486,0.5183,0.4926,0.4955,0.3746,0.2756,0.2035,0.0628,0.0,-0.0079,-0.0784,-0.1142,-0.1453,-0.2687,-0.3373,-0.368,-0.4619,-0.4801,-0.4671,0.0,0.0,0.0,0.0,0.0,0.0,0.0,0.0,0.0,0.0,0.0,0.0,0.0,0.0,0.0,0.0,0.0,2.4307,2.4126,2.3303,2.2479,2.1753,2.1665,2.1361,2.0732,2.1155,2.1371,2.1335,2.1575,2.2024,2.2724,2.4053,2.5258,2.6318,2.6965,2.8188,2.9759,2.9119,2.9127,2.9537,2.9247,2.8944,2.8568,2.7942,2.7932,0.0,2.6604,2.4305,2.133,1.7251,1.5604,1.5206,1.4955,1.6768,1.9671,2.3694,2.7822,3.152,3.3821,3.6864,3.9657,4.0992,4.2417,4.369,4.4284,4.4081,4.3443,4.2199,4.0235,3.812,3.6012,3.3503,3.0387,2.6347,2.2787,1.8344,1.192,0.9569,0.7677,0.5785,0.615,0.6953,0.8087,0.8724,0.9191,0.9422,0.8618,0.8517,0.931,0.8464,0.8038,0.8038,0.7943,0.7841,0.7736,0.6318,0.56,0.5349,0.4627,0.4461,0.4795,0.3616,0.2579,0.1568,0.0471,-0.0236,-0.0628,-0.1333,-0.1902,-0.2469,-0.3702,-0.4356,-0.4553,-0.516,-0.5298,-0.5206,0.0,0.0,0.0,0.0,0.0,0.0,0.0,0.0,0.0,0.0,0.0,0.0,0.0,0.0,0.0,0.0,0.0,0.0,2.384,2.3451,2.2583,2.1118,2.1055,2.0662,1.9807,1.9816,2.0109,2.0767,2.1395,2.2054,2.2798,2.4625,2.5774,2.6359,2.7611,2.9226,3.1021,3.0656,3.0542,3.0595,3.0836,3.0226,2.9252,2.9749,2.9843,2.9652,2.9101,2.8162,2.6392,2.114,1.8561,1.7512,1.7138,2.0208,2.4636,2.8024,3.1246,3.4416,3.7302,3.916,4.0525,4.1799,4.3305,4.4562,4.5006,4.5141,4.4612,4.256,4.0855,3.9093,3.6911,3.5309,3.3419,3.0899,2.6788,2.2309,1.7754,1.2894,0.9425,0.8756,0.7596,0.7355,0.8766,0.9809,0.9959,0.8582,0.8466,0.8463,0.847,0.8223,0.8038,0.8038,0.8024,0.7882,0.7604,0.6335,0.5355,0.4765,0.3679,0.3597,0.453,0.3513,0.2501,0.1489,0.0471,-0.0628,-0.1568,-0.1646,-0.2664,-0.4217,-0.4285,-0.4714,-0.5439,-0.5432,-0.5428,-0.5342,0.0,0.0,0.0,0.0,0.0,0.0,0.0,0.0,0.0,0.0,0.0,0.0,0.0,0.0,0.0,0.0,0.0,0.0,2.4334,2.3739,2.2954,2.2085,2.174,2.1376,2.0911,2.1092,2.1261,2.1455,2.162,2.2263,2.3413,2.4307,2.5363,2.6475,2.7281,2.8101,2.8993,2.9214,2.973,3.0286,3.006,3.0157,3.0337,2.9283,2.9311,2.9854,2.9323,2.8666,2.746,2.3402,2.0894,1.9744,2.1274,2.3821,2.6936,3.0459,3.3765,3.6713,3.8674,4.0656,4.2269,4.2597,4.3625,4.4502,4.4314,4.4547,4.4378,4.2952,4.1605,4.0133,3.8505,3.7349,3.5783,3.3082,3.101,2.7782,2.2457,1.8912,1.5712,1.278,1.1548,1.0955,1.1029,1.1531,1.1694,1.1285,1.1038,1.1118,1.1372,1.0198,0.9019,0.8038,0.7828,0.7675,0.76,0.5355,0.397,0.359,0.3226,0.2863,0.2426,0.2891,0.2111,0.0392,0.0157,-0.0628,-0.1646,-0.2425,-0.3375,-0.4466,-0.5113,-0.5476,-0.5518,-0.5403,-0.5428,-0.5422,0.0,0.0,0.0,0.0,0.0,0.0,0.0,0.0,0.0,0.0,0.0,0.0,0.0,0.0,0.0,0.0,0.0,0.0,0.0,2.3725,2.3351,2.2683,2.2539,2.228,2.189,2.2292,2.2296,2.1936,2.269,2.311,2.3262,2.4335,2.5293,2.6115,2.6937,2.7915,2.8975,2.9442,2.9897,0.0,0.0,3.0165,3.02,2.9385,2.9706,3.0551,3.0068,3.0036,2.9872,2.7652,2.5173,2.3172,2.4252,2.6141,2.8659,3.2265,3.5164,3.7656,3.9718,4.1304,4.2516,4.2925,4.3782,4.4467,4.4271,4.4565,4.4509,4.3268,4.205,4.0971,4.0266,3.9459,3.852,3.7424,3.4831,3.1442,2.7255,2.2465,1.8195,1.5089,1.3265,1.2299,1.2149,1.2772,1.3153,1.3222,1.2511,1.2142,1.2269,1.0883,0.9608,0.892,0.8101,0.7597,0.74,0.4823,0.3857,0.4608,0.3559,0.3039,0.2973,0.3047,0.2189,0.0706,0.0236,-0.0862,-0.2268,-0.289,-0.3899,-0.5102,-0.5614,-0.5674,-0.5481,-0.5459,-0.5318,-0.527,0.0,0.0,0.0,0.0,0.0,0.0,0.0,0.0,0.0,0.0,0.0,0.0,0.0,0.0,0.0,0.0,0.0,0.0,0.0,0.0,0.0,2.2866,2.2929,2.2809,2.2465,2.2924,2.2852,2.2205,2.3706,2.3902,2.2833,2.4237,2.5067,2.5358,2.6357,2.7798,2.9468,2.9865,3.0091,3.014,3.0358,3.0079,2.9566,0.0,0.0,3.1259,3.0887,3.1613,3.2607,3.2176,2.9914,2.7247,2.6987,2.807,3.0148,3.3823,3.6163,3.808,4.0691,4.1769,4.2358,4.3185,4.3956,4.4434,4.4318,4.4607,4.455,4.3143,4.2105,4.1553,4.1718,4.1332,4.1237,4.2002,3.8036,3.412,3.1869,2.5019,1.9397,1.7201,1.4558,1.2993,1.3095,1.384,1.4406,1.4631,1.3435,1.2636,1.2463,1.1077,1.0075,0.9734,0.8404,0.7536,0.7085,0.4777,0.4545,0.6201,0.4266,0.3744,0.4453,0.3513,0.2579,0.1568,0.0471,-0.1175,-0.3124,-0.3124,-0.4187,-0.5857,-0.5817,-0.5644,-0.548,-0.5442,-0.5264,-0.5152,0.0,0.0,0.0,0.0,0.0,0.0,0.0,0.0,0.0,0.0,0.0,0.0,0.0,0.0,0.0,0.0,0.0,0.0,0.0,0.0,0.0,0.0,2.1511,2.1383,2.1681,2.1578,2.1739,2.2206,2.2485,2.2659,2.2715,2.2833,2.3428,2.436,2.4548,2.554,2.7097,2.7199,2.7823,2.8781,2.9041,2.9394,2.978,0.0,0.0,0.0,3.0661,3.195,3.3555,3.2878,3.1828,3.0914,3.1528,3.1647,3.2292,3.6066,3.8122,3.9731,4.2248,4.3493,4.4158,4.4308,4.4688,4.4651,4.339,4.338,4.3202,4.177,4.1432,4.1429,4.1441,4.2038,4.2614,4.2782,3.9606,3.6671,3.5446,2.9059,2.3937,2.255,1.9039,1.6732,1.6788,1.6001,1.5536,1.5582,1.5345,1.4824,1.3946,1.2454,1.0435,0.8058,0.7619,0.7231,0.678,0.5457,0.4836,0.5029,0.4638,0.4077,0.3357,0.3202,0.2579,0.1568,0.0471,-0.1175,-0.3124,-0.3124,-0.4351,-0.6156,-0.5901,-0.5769,-0.5694,-0.545,-0.5264,-0.5152,0.0,0.0,0.0,0.0,0.0,0.0,0.0,0.0,0.0,0.0,0.0,0.0,0.0,0.0,0.0,0.0,0.0,0.0,0.0,0.0,0.0,0.0,0.0,0.0,2.1644,2.2341,2.2655,2.2555,0.0,2.3723,2.3364,2.3282,2.3572,2.419,2.3911,2.4601,2.5981,2.5976,2.6916,2.8408,2.8426,2.9079,3.003,0.0,0.0,0.0,3.1697,3.2983,3.4275,3.4423,3.4353,3.4182,3.4007,3.3876,3.4339,3.7013,3.8727,4.0234,4.247,4.3578,4.4219,4.4832,4.4925,4.4516,4.3042,4.2554,4.2089,4.0926,4.0657,4.0669,4.0781,4.1902,4.2591,4.1988,3.957,3.7029,3.4989,2.9571,2.5149,2.3357,2.0891,1.9028,1.8281,1.7712,1.698,1.6162,1.6059,1.5757,1.5145,1.2951,1.0487,0.7701,0.7373,0.6841,0.5876,0.5304,0.4969,0.4784,0.4723,0.4772,0.4846,0.361,0.2813,0.227,0.0715,-0.1189,-0.3127,-0.3087,-0.4281,-0.6006,-0.5861,-0.5708,-0.5555,-0.5413,-0.5264,-0.5152,0.0,0.0,0.0,0.0,0.0,0.0,0.0,0.0,0.0,0.0,0.0,0.0,0.0,0.0,0.0,0.0,0.0,0.0,0.0,0.0,0.0,0.0,0.0,0.0,2.085,0.0,0.0,2.2017,2.3391,0.0,0.0,0.0,0.0,0.0,2.3643,2.4308,2.556,2.5597,2.65,0.0,0.0,2.8817,2.9898,0.0,0.0,0.0,0.0,3.3531,3.4386,3.5265,3.5791,3.5935,3.5215,3.5274,3.5902,3.7469,3.9044,4.0742,4.2721,4.3621,4.4257,4.5189,4.515,4.4494,4.2945,4.2143,4.1371,4.0272,3.9877,3.975,3.9806,4.0897,4.1503,4.0561,3.8552,3.6432,3.4358,2.9821,2.6076,2.4436,2.2509,2.0757,1.9334,1.8874,1.7931,1.6296,1.5978,1.5577,1.4962,1.259,1.0198,0.7698,0.7057,0.6213,0.5102,0.5017,0.4967,0.4858,0.4772,0.5216,0.6109,0.3836,0.2776,0.2699,0.0807,-0.1044,-0.2758,-0.302,-0.4006,-0.5548,-0.5708,-0.5748,-0.5729,-0.5595,-0.5471,-0.5353,0.0,0.0,0.0,0.0,0.0,0.0,0.0,0.0,0.0,0.0,0.0,0.0,0.0,0.0,0.0,0.0,0.0,0.0,0.0,0.0,0.0,0.0,0.0,0.0,0.0,0.0,0.0,1.9177,1.9334,0.0,0.0,0.0,0.0,0.0,0.0,2.456,2.5775,2.5913,0.0,0.0,0.0,0.0,0.0,0.0,0.0,0.0,0.0,3.2516,3.3256,3.3938,3.4376,3.468,3.5115,3.5695,3.6456,3.7636,3.9724,4.2025,4.3868,4.4864,4.5463,4.5693,4.5623,4.5015,4.3042,4.2306,4.15,3.9608,3.9184,3.9013,3.8411,3.8614,3.8854,3.8737,3.6537,3.5272,3.659,3.1932,2.8643,2.9438,2.5658,2.2408,2.0795,1.9239,1.7603,1.5987,1.479,1.3613,1.2334,1.0775,0.9254,0.7698,0.6415,0.5499,0.5102,0.5089,0.5037,0.4861,0.4851,0.4929,0.5009,0.2749,0.1749,0.1665,0.0492,-0.0649,-0.1775,-0.2629,-0.3626,-0.4704,-0.5355,-0.6065,-0.6734,-0.6274,-0.61,-0.6094,0.0,0.0,0.0,0.0,0.0,0.0,0.0,0.0,0.0,0.0,0.0,0.0,0.0,0.0,0.0,0.0,0.0,0.0,0.0,0.0,0.0,0.0,0.0,0.0,0.0,0.0,1.6831,1.7316,1.7251,0.0,0.0,0.0,0.0,0.0,0.0,2.0915,2.2776,2.423,0.0,0.0,0.0,0.0,0.0,0.0,0.0,0.0,0.0,0.0,3.4002,3.3814,3.4349,3.4926,3.4001,3.4863,3.6559,3.8452,4.0056,4.1655,4.3791,4.453,4.4776,4.5064,4.4211,4.2946,4.1585,4.0393,3.9215,3.7918,3.7468,3.6961,3.5882,3.5816,3.5605,3.4621,3.3489,3.2765,3.2895,2.9941,2.7911,2.8438,2.5342,2.2638,2.1527,1.9834,1.7745,1.5124,1.2791,1.1356,1.0779,1.0105,0.9116,0.7729,0.6371,0.5211,0.4312,0.4118,0.373,0.305,0.3564,0.388,0.3931,0.2361,0.1593,0.1508,0.05,-0.0577,-0.17,-0.2504,-0.3485,-0.4403,-0.5243,-0.6071,-0.6747,-0.6599,-0.6817,-0.7264,0.0,0.0,0.0,0.0,0.0,0.0,0.0,0.0,0.0,0.0,0.0,0.0,0.0,0.0,0.0,0.0,0.0,0.0,0.0,0.0,0.0,0.0,0.0,0.0,0.0,0.0,1.4384,1.4354,1.4092,1.3212,0.0,0.0,1.0775,1.1721,0.0,0.0,0.0,0.0,0.0,0.0,0.0,0.0,0.0,0.0,0.0,0.0,0.0,0.0,0.0,0.0,0.0,3.481,3.3413,3.3972,3.5611,3.7995,3.9666,4.1147,4.2965,4.3581,4.373,4.3858,4.2385,4.0643,3.9686,3.799,3.6434,3.5812,3.5244,3.4372,3.2962,3.2598,3.204,3.0446,3.0035,2.9874,2.9597,2.795,2.6952,2.7411,2.5158,2.3257,2.224,1.9727,1.7014,1.4362,1.1575,0.9917,0.9917,0.9452,0.8592,0.726,0.5813,0.4501,0.3196,0.3016,0.2556,0.1789,0.2429,0.2756,0.2884,0.1637,0.1113,0.1112,0.0338,-0.0583,-0.1634,-0.2499,-0.3375,-0.427,-0.5177,-0.6183,-0.7102,-0.6979,-0.754,-0.8313,0.0,0.0,0.0,0.0,0.0,0.0,0.0,0.0,0.0,0.0,0.0,0.0,0.0,0.0,0.0,0.0,0.0,0.0,0.0,0.0,0.0,0.0,0.0,0.0,0.0,0.0,1.0485,0.9783,0.9051,0.7399,0.5008,0.4964,0.4794,0.4509,0.0,0.0,0.0,0.0,0.0,0.0,0.0,0.0,0.0,0.0,0.0,0.0,0.0,0.0,0.0,0.0,0.0,0.0,0.0,3.3294,3.3385,3.5664,3.8359,4.0733,4.1364,4.2162,4.2664,4.2087,4.0317,3.8489,3.7542,3.543,3.3573,3.3369,3.2529,3.1343,2.9639,2.8993,2.8168,2.659,2.636,2.6745,2.798,2.6974,2.6529,2.7609,2.6138,2.4411,2.2753,1.8456,1.5272,1.3974,1.135,0.9814,0.9814,0.8426,0.7026,0.5881,0.456,0.3194,0.1791,0.179,0.179,0.179,0.1789,0.1789,0.179,0.0538,0.0,0.0,0.0,-0.0588,-0.1665,-0.2422,-0.3268,-0.4262,-0.5067,-0.647,-0.7936,-0.7588,-0.8129,-0.8997,0.0,0.0,0.0,0.0,0.0,0.0,0.0,0.0,0.0,0.0,0.0,0.0,0.0,0.0,0.0,0.0,0.0,0.0,0.0,0.0,0.0,0.0,0.0,0.0,0.0,0.0,0.9844,0.9342,0.7494,0.5118,0.2272,-0.0458,-0.1668,-0.1459,0.0665,0.4233,0.0,0.0,0.0,0.0,0.0,0.0,3.2741,0.0,0.0,0.0,0.0,0.0,0.0,0.0,0.0,0.0,0.0,0.0,0.0,2.9187,3.2555,3.6207,3.7411,3.6808,3.5958,3.65,3.4118,3.1731,3.2377,3.0752,2.9173,2.9444,2.9218,2.8601,2.7141,2.6914,2.6554,2.5551,2.5608,2.6109,2.688,2.6486,2.6334,2.6919,2.4374,2.1451,1.8558,1.5107,1.2898,1.2522,1.0009,0.8479,0.8479,0.7854,0.6926,0.5876,0.4465,0.3215,0.1921,0.0994,0.0539,0.0539,0.0539,0.0539,0.0539,0.018,0.0,0.0,0.0,-0.0597,-0.1669,-0.2512,-0.3849,-0.5526,-0.616,-0.7521,-0.9096,-0.8849,-0.9334,-1.0101,0.0,0.0,0.0,0.0,0.0,0.0,0.0,0.0,0.0,0.0,0.0,0.0,0.0,0.0,0.0,0.0,0.0,0.0,0.0,0.0,0.0,0.0,0.0,0.0,0.0,0.9528,0.9126,0.8203,0.5958,0.3098,-0.0361,-0.4271,-0.6511,-0.7113,-0.5226,-0.1867,0.0,0.0,0.0,0.0,0.0,0.0,3.076,0.0,0.0,0.0,0.0,0.0,0.0,0.0,0.0,0.0,0.0,0.0,0.0,0.0,2.7201,3.004,3.2207,3.206,3.1377,3.1728,2.9417,2.7287,2.8254,2.6763,2.5314,2.5694,2.6063,2.5932,2.4487,2.4276,2.4279,2.4116,2.3885,2.4117,2.5307,2.5456,2.5402,2.5192,2.3088,2.0375,1.7095,1.4725,1.2893,1.1945,0.9752,0.8196,0.7729,0.7076,0.6133,0.5005,0.4122,0.2916,0.1279,0.0452,0.0,0.0,0.0,0.0,0.0,0.0,0.0,0.0,0.0,-0.0858,0.0,-0.3104,-0.4678,-0.6629,-0.7355,-0.8554,-0.9835,-0.9574,-1.0187,-1.1135,0.0,0.0,0.0,0.0,0.0,0.0,0.0,0.0,0.0,0.0,0.0,0.0,0.0,0.0,0.0,0.0,0.0,0.0,0.0,0.0,0.0,0.0,0.0,0.0,0.0,0.8961,0.8238,0.647,0.4503,0.1353,-0.2811,-0.6506,-0.9663,-1.2074,-1.0537,-0.7167,0.0,0.0,0.0,0.0,0.0,0.0,0.0,0.0,0.0,0.0,0.0,0.0,0.0,0.0,0.0,0.0,0.0,0.0,0.0,0.0,0.0,0.0,0.0,2.7527,2.8121,2.7449,2.5725,2.4365,2.4753,2.3305,0.0,2.2172,2.3134,2.3412,2.1712,2.1428,2.1704,2.2347,2.154,2.148,2.3483,2.415,2.3942,2.2699,2.2167,2.0735,1.7956,1.6397,1.4582,1.2114,1.0386,0.8967,0.7677,0.6207,0.4821,0.3659,0.3481,0.2323,0.0,0.0,0.0,0.009,0.0,0.009,0.009,0.0,0.0,0.0,0.0,-0.1198,-0.317,-0.3974,-0.56,-0.7716,-0.8583,-0.948,-1.0303,-1.0104,-1.0975,-1.2149,0.0,0.0,0.0,0.0,0.0,0.0,0.0,0.0,0.0,0.0,0.0,0.0,0.0,0.0,0.0,0.0,0.0,0.0,0.0,0.0,0.0,0.0,0.0,0.0,0.0,0.8184,0.7465,0.5129,0.2815,-0.0181,-0.387,-0.722,-1.0397,-1.32,-1.1867,-0.7038,0.0,0.0,0.0,0.0,0.0,0.0,0.0,0.0,0.0,0.0,2.1144,2.0241,0.0,0.0,0.0,0.0,0.0,0.0,0.0,0.0,1.8277,1.8645,1.9291,0.0,2.0643,2.1015,1.9403,1.8094,0.0,1.8844,1.8132,1.8789,2.0135,2.0974,2.0411,2.0934,2.1562,2.2368,2.1783,2.1793,2.3531,2.415,2.3942,2.2699,2.1395,1.9685,1.734,1.5444,1.3588,1.1893,1.0304,0.891,0.7523,0.6158,0.4821,0.3659,0.2681,0.1511,0.0,0.0,0.0445,0.1399,0.0445,0.0449,0.1343,0.0441,0.0,0.0,0.0,-0.1182,-0.3091,-0.3327,-0.5587,-0.8965,-0.9657,-1.0987,-1.2611,-1.3086,-1.3251,-1.3203,0.0,0.0,0.0,0.0,0.0,0.0,0.0,0.0,0.0,0.0,0.0,0.0,0.0,0.0,0.0,0.0,0.0,0.0,0.0,0.0,0.0,0.0,0.0,0.887,0.7709,0.8295,0.7115,0.4071,0.1765,-0.134,-0.5261,-0.8609,-1.138,-1.3537,-1.1383,-0.7131,0.0,0.0,0.0,0.0,1.7522,0.0,0.0,0.0,0.0,0.0,1.6698,1.5766,0.0,1.3749,1.3103,1.2947,0.0,0.0,0.0,0.0,1.6217,1.7108,1.6584,1.7117,1.7806,1.7661,1.6693,1.6071,1.7141,1.7061,1.6789,1.7178,1.8778,2.0144,1.98,2.0811,2.1724,2.1954,2.1931,2.2465,2.4123,2.4238,2.3731,2.268,2.095,1.9096,1.7296,1.5584,1.369,1.1662,1.0697,0.9444,0.7464,0.5597,0.4283,0.3659,0.1861,0.0619,0.0,0.0,0.0354,0.097,0.0354,0.0356,0.0986,0.0266,0.0,0.0,0.0,-0.1198,-0.3095,-0.3626,-0.6,-0.9432,-1.0668,-1.2141,-1.358,-1.4258,-1.4427,-1.4337,0.0,0.0,0.0,0.0,0.0,0.0,0.0,0.0,0.0,0.0,0.0,0.0,0.0,0.0,0.0,0.0,0.0,0.0,0.0,0.0,0.0,0.0,0.0,0.9454,0.8354,0.856,0.6855,0.3149,0.0995,-0.2284,-0.6717,-0.9967,-1.2066,-1.3108,-1.0152,-0.6999,0.0,0.17,0.5473,0.8235,1.2189,0.0,0.0,0.0,0.0,0.0,0.0,0.0,0.0,0.9693,0.9719,1.0399,1.0824,0.0,0.0,0.0,0.0,0.0,1.606,1.677,1.7418,1.6248,1.5931,1.6028,1.6301,1.6429,1.6398,1.6337,1.8181,1.973,1.9545,2.068,2.1626,2.1544,2.2355,2.3316,2.4612,2.4098,2.3309,2.2499,2.0525,1.8696,1.7214,1.6078,1.4222,1.1522,1.114,1.0037,0.7517,0.4942,0.3643,0.3643,0.1223,0.0,0.0,0.0,0.0087,0.0267,0.0088,0.0088,0.0268,0.0089,0.0,0.0,-0.0178,-0.1388,-0.3164,-0.4229,-0.6524,-0.9518,-1.1409,-1.2896,-1.4068,-1.4886,-1.5344,-1.5486,0.0,0.0,0.0,0.0,0.0,0.0,0.0,0.0,0.0,0.0,0.0,0.0,0.0,0.0,0.0,0.0,0.0,0.0,0.0,0.0,0.0,0.0,1.17,1.0114,0.8111,0.8084,0.6286,0.256,0.0131,-0.3565,-0.8405,-1.0288,-1.1348,-1.1553,-0.9501,-0.6028,-0.1567,0.1823,0.5012,0.7961,0.9985,0.0,0.0,0.0,0.0,0.0,0.0,0.0,0.0,0.8662,0.9005,0.9554,0.9167,0.0,0.0,0.0,0.0,0.0,1.5912,1.6796,1.7249,1.6029,1.5792,1.5554,1.4979,1.5085,1.5225,1.528,1.655,1.8002,1.9232,1.9729,2.0564,2.2511,2.3577,2.3889,2.3235,2.2899,2.2482,2.159,1.9396,1.7621,1.6817,1.5952,1.4232,1.1389,1.1143,0.9976,0.7269,0.4925,0.3568,0.3568,0.1281,0.0,0.0,0.0,0.0508,0.1526,0.0518,0.0523,0.1482,0.0437,0.0,-0.0087,-0.1112,-0.2086,-0.3172,-0.4389,-0.6613,-0.9513,-1.1359,-1.3266,-1.5155,-1.6867,-1.7293,-1.6823,0.0,0.0,0.0,0.0,0.0,0.0,0.0,0.0,0.0,0.0,0.0,0.0,0.0,0.0,0.0,0.0,0.0,0.0,0.0,0.0,0.0,1.4418,1.4369,1.2989,1.0077,0.9387,0.6944,0.2531,-0.0375,-0.4454,-0.9518,-1.1066,-1.175,-1.1583,-0.7432,-0.3952,-0.1063,0.2549,0.498,0.6468,0.0,0.0,0.0,0.0,0.0,0.0,0.0,0.0,0.0,0.0,0.7825,0.817,0.8412,0.0,0.0,0.0,0.0,0.0,1.5583,1.7013,1.8013,1.7769,1.7513,1.7032,1.6002,1.5891,1.5871,1.5339,1.6266,1.744,1.8341,2.0004,2.1631,2.3205,2.2075,2.1174,2.155,2.1027,2.04,2.0153,1.8319,1.6952,1.6458,1.5378,1.3611,1.095,1.0554,0.9427,0.6991,0.4702,0.3489,0.3403,0.1168,0.0,0.0,0.0,0.0246,0.084,0.0255,0.0258,0.0782,0.0264,-0.0352,-0.0868,-0.1459,-0.2941,-0.4999,-0.5431,-0.7501,-1.0532,-1.2238,-1.3856,-1.5421,-1.7051,-1.7402,-1.6805,0.0,0.0,0.0,0.0,0.0,0.0,0.0,0.0,0.0,0.0,0.0,0.0,0.0,0.0,0.0,0.0,0.0,0.0,0.0,0.0,1.3341,1.5542,1.6839,1.5988,1.2767,1.142,0.8241,0.3184,-0.0468,-0.5289,-1.1108,-1.1747,-1.1668,-1.0603,-0.5103,-0.1803,-0.0323,0.3431,0.5067,0.5225,0.0,0.0,0.0,0.0,0.0,0.0,0.0,0.0,0.0,0.0,0.0,0.0,0.0,0.0,0.0,0.9749,1.1161,1.2858,1.5089,1.6854,1.8225,1.9243,1.912,1.8521,1.7642,1.7166,1.6825,1.6167,1.6593,1.7113,1.7658,2.0017,2.2011,2.2386,2.0257,1.9034,2.0328,1.9619,1.8962,1.9057,1.7515,1.6263,1.5852,1.4726,1.2918,1.046,1.0034,0.8968,0.6781,0.4856,0.3675,0.3325,0.1474,0.0164,-0.0331,-0.04,-0.0241,0.0,0.0,0.0,0.0,-0.0263,-0.0786,-0.1623,-0.2398,-0.4124,-0.6539,-0.686,-0.8769,-1.1593,-1.3011,-1.4522,-1.5965,-1.7235,-1.7229,-1.6597,0.0,0.0,0.0,0.0,0.0,0.0,0.0,0.0,0.0,0.0,0.0,0.0,0.0,0.0,0.0,0.0,0.0,0.0,0.0,0.0,1.3337,1.6869,1.8512,1.8193,1.5848,1.3877,1.0151,0.467,0.0057,-0.6124,-1.3595,-1.1883,-0.9742,-0.7068,-0.2905,-0.0079,0.1748,0.4261,0.5256,0.5183,0.6608,0.0,0.0,0.0,0.0,0.0,0.0,0.0,0.0,0.0,0.0,0.0,0.0,0.0,0.8451,0.8534,0.9637,1.1454,1.4593,1.6018,1.7121,1.9345,1.9576,1.9366,1.9452,1.8409,1.7591,1.8028,1.7152,1.6691,1.7846,1.8941,1.9532,1.9002,1.9447,2.0054,2.0328,1.9832,1.9331,1.909,1.7384,1.5675,1.4389,1.3848,1.2631,1.0141,0.9948,0.8968,0.6781,0.5604,0.4474,0.3412,0.227,0.0642,-0.1497,-0.1492,-0.0954,0.0,0.0,0.0,0.0,-0.1002,-0.1499,-0.1796,-0.4797,-0.6096,-0.6402,-0.8429,-1.039,-1.2258,-1.3216,-1.53,-1.7881,-1.8277,-1.7711,-1.6733,0.0,0.0,0.0,0.0,0.0,0.0,0.0,0.0,0.0,0.0,0.0,0.0,0.0,0.0,0.0,0.0,0.0,0.0,0.0,0.0,1.2268,1.5167,1.7927,1.9879,2.0845,1.791,1.2616,0.5004,-0.3929,-0.9945,-1.3039,-1.0943,-0.792,-0.4104,-0.0723,0.157,0.3076,0.5344,0.593,0.5385,0.6584,0.6779,0.0,0.0,0.0,0.0,0.0,0.0,0.0,0.0,0.6064,0.62,0.5773,0.6065,0.6898,0.8181,0.9074,1.0413,1.3995,1.5903,1.7312,1.9402,2.0245,2.041,1.998,1.9881,1.9446,1.8209,1.7743,1.7639,1.7908,1.7742,1.7677,1.8312,1.8052,1.7654,1.7581,1.7021,1.6781,1.6831,1.5357,1.4367,1.4408,1.34,1.2209,1.0847,1.0545,0.9529,0.7521,0.6393,0.5337,0.4277,0.2537,0.1264,0.0392,-0.094,-0.1419,-0.0956,-0.0969,-0.1299,-0.1946,-0.166,-0.2643,-0.4515,-0.5761,-0.7398,-0.9391,-1.0035,-1.1558,-1.3556,-1.4911,-1.6471,-1.8027,-1.8407,-1.8018,-1.7379,0.0,0.0,0.0,0.0,0.0,0.0,0.0,0.0,0.0,0.0,0.0,0.0,0.0,0.0,0.0,0.0,0.0,0.0,0.6097,0.8514,1.1115,1.3711,1.6969,1.9746,2.2011,1.9925,1.5194,0.7669,-0.4015,-1.027,-1.111,-0.8706,-0.565,-0.2003,0.066,0.2286,0.3205,0.5454,0.5782,0.491,0.6071,0.6016,0.0,0.0,0.0,0.0,0.0,0.0,0.0,0.0,0.5874,0.584,0.565,0.5589,0.6018,0.7993,0.8867,1.0047,1.3894,1.583,1.7347,1.9411,2.0478,2.0922,2.0699,2.0825,2.0703,1.9414,1.8565,1.7946,1.7347,1.6571,1.6307,1.734,1.671,1.6109,1.6261,1.5894,1.5798,1.6004,1.4887,1.412,1.4421,1.2873,1.144,1.0633,1.0318,0.9442,0.7684,0.7011,0.612,0.5089,0.3136,0.1814,0.1095,-0.1017,-0.2272,-0.2588,-0.2546,-0.2724,-0.3125,-0.2767,-0.3887,-0.6202,-0.6913,-0.8631,-1.1118,-1.1372,-1.2694,-1.4681,-1.6234,-1.7243,-1.7821,-1.8127,-1.7947,-1.7421,0.0,0.0,0.0,0.0,0.0,0.0,0.0,0.0,0.0,0.0,0.0,0.0,0.0,0.0,0.0,0.0,0.0,0.0,0.6933,0.8117,1.002,1.3104,1.5735,1.7522,1.8269,1.9394,1.776,1.3244,0.1079,-0.5972,-0.8012,-0.517,-0.2777,-0.0775,0.0982,0.1783,0.1994,0.4411,0.4727,0.3748,0.4912,0.5359,0.5257,0.0,0.0,0.0,0.0,0.0,0.0,0.0,0.5956,0.5905,0.5684,0.5593,0.5931,0.7822,0.8814,1.0147,1.4253,1.5756,1.6775,1.9259,2.0244,2.081,2.1689,2.1146,2.0873,2.2155,1.9915,1.7318,1.6008,1.5591,1.5491,1.5778,1.5585,1.5837,1.6973,1.7079,1.7172,1.7245,1.6428,1.5397,1.4306,1.2127,1.0376,0.9192,0.8942,0.8341,0.7158,0.7418,0.7067,0.5845,0.4171,0.2236,0.0078,-0.203,-0.3597,-0.4686,-0.4678,-0.4135,-0.3132,-0.4222,-0.5297,-0.636,-0.8443,-0.9895,-1.0908,-1.2458,-1.4006,-1.5431,-1.6862,-1.7373,-1.7455,-1.7729,-1.7316,-1.6664,0.0,0.0,0.0,0.0,0.0,0.0,0.0,0.0,0.0,0.0,0.0,0.0,0.0,0.0,0.0,0.0,0.0,0.0,0.5822,0.703,0.8457,1.0195,1.2427,1.4903,1.7775,1.6592,1.3173,0.7602,-0.0054,-0.3773,-0.3791,-0.2315,-0.031,0.2128,0.2661,0.2969,0.3205,0.4758,0.5167,0.491,0.527,0.491,0.4007,0.0,0.0,0.0,0.0,0.0,0.0,0.0,0.0,0.0,0.3989,0.3634,0.4104,0.6851,0.7785,0.8911,1.3085,1.5509,1.7191,1.8834,2.0362,2.1641,2.2197,2.1926,2.1202,2.0124,1.801,1.623,1.5651,1.5618,1.537,1.429,1.4875,1.5054,1.4072,1.4979,1.5825,1.6092,1.5444,1.4932,1.459,1.2641,1.0899,0.9862,0.9216,0.8614,0.8207,0.7677,0.7207,0.6717,0.4309,0.2715,0.2055,-0.137,-0.3229,-0.3593,-0.5076,-0.5628,-0.5395,-0.56,-0.6743,-0.8443,-0.9809,-1.1126,-1.2515,-1.4042,-1.4906,-1.5404,-1.6472,-1.6924,-1.6929,-1.7266,-1.7212,-1.7009,0.0,0.0,0.0,0.0,0.0,0.0,0.0,0.0,0.0,0.0,0.0,0.0,0.0,0.0,0.0,0.0,0.0,0.0,0.0,0.6164,0.7107,0.8265,0.9949,1.2112,1.4822,1.3111,1.0425,0.6785,0.1985,-0.0394,-0.0493,0.0373,0.1489,0.2693,0.2612,0.2728,0.287,0.4091,0.4828,0.5145,0.4747,0.4146,0.335,0.0,0.0,0.0,0.0,0.0,0.0,0.0,0.0,0.0,0.3102,0.2874,0.3351,0.6029,0.6947,0.8053,1.2411,1.5126,1.7095,1.903,2.0844,2.2109,2.2021,2.1717,2.0967,1.9167,1.7402,1.5998,1.5497,1.506,1.4477,1.346,1.3447,1.3284,1.261,1.3428,1.4296,1.482,1.4684,1.4424,1.4022,1.2065,1.0486,0.9468,0.8557,0.7965,0.7884,0.7407,0.7102,0.7036,0.4321,0.2868,0.2866,-0.1051,-0.3025,-0.3064,-0.5126,-0.6322,-0.6604,-0.6619,-0.777,-0.9771,-1.0998,-1.2227,-1.3305,-1.438,-1.4889,-1.5191,-1.5696,-1.6064,-1.6233,-1.6426,-1.6614,-1.6706,0.0,0.0,0.0,0.0,0.0,0.0,0.0,0.0,0.0,0.0,0.0,0.0,0.0,0.0,0.0,0.0,0.0,0.0,0.0,0.0,0.6102,0.7158,0.8245,0.9383,1.0535,0.9604,0.9102,0.9085,0.5989,0.3726,0.2322,0.2998,0.2804,0.1719,0.1719,0.1741,0.1858,0.2926,0.4023,0.4951,0.3854,0.3457,0.3298,0.0977,0.0,0.0,0.0,0.0,0.0,0.0,0.0,0.0,0.2546,0.2437,0.2907,0.5206,0.606,0.7328,1.2085,1.4554,1.6523,1.9353,2.124,2.2116,2.1254,2.0875,2.0243,1.8899,1.7539,1.633,1.5349,1.4079,1.3079,1.2875,1.1652,1.107,1.1883,1.2374,1.2886,1.3512,1.4126,1.3998,1.2876,1.1047,0.944,0.841,0.7395,0.6793,0.6702,0.6726,0.6751,0.6819,0.4245,0.2907,0.2827,-0.0959,-0.2878,-0.2895,-0.4874,-0.6225,-0.7162,-0.7347,-0.8533,-1.0565,-1.2129,-1.3025,-1.3441,-1.3908,-1.4359,-1.4785,-1.4746,-1.498,-1.5352,-1.5352,-1.5635,-1.6007,0.0,0.0,0.0,0.0,0.0,0.0,0.0,0.0,0.0,0.0,0.0,0.0,0.0,0.0,0.0,0.0,0.0,0.0,0.0,0.0,0.6019,0.6271,0.7384,0.8209,0.8459,0.8348,0.8183,0.811,0.6933,0.6327,0.6286,0.5666,0.448,0.2738,0.2662,0.2775,0.2917,0.3195,0.4489,0.6201,0.5053,0.4603,0.4499,0.2176,0.132,0.0,0.0,0.0,0.0,0.0,0.0,0.0,-0.0486,-0.0814,-0.0245,0.2733,0.4365,0.6254,1.1073,1.3354,1.5183,1.8477,2.0305,2.104,2.0145,1.9256,1.8364,1.7664,1.6384,1.4979,1.3735,1.33,1.2392,1.0343,1.0358,1.0481,1.0043,1.1306,1.2411,1.2624,1.3677,1.3696,1.1982,1.1038,0.9686,0.7716,0.6714,0.6274,0.6438,0.5845,0.58,0.6502,0.4064,0.2713,0.2601,-0.0929,-0.2744,-0.2772,-0.4582,-0.627,-0.7807,-0.819,-0.939,-1.1268,-1.2669,-1.3275,-1.3487,-1.4277,-1.4694,-1.4746,-1.4404,-1.4541,-1.4922,-1.4922,-1.5186,-1.5537,0.0,0.0,0.0,0.0,0.0,0.0,0.0,0.0,0.0,0.0,0.0,0.0,0.0,0.0,0.0,0.0,0.0,0.0,0.0,0.0,0.5952,0.6027,0.6703,0.7134,0.7211,0.7217,0.7454,0.7909,0.7106,0.6798,0.6889,0.6366,0.5296,0.3834,0.3789,0.3819,0.3986,0.4038,0.5082,0.6515,0.5339,0.5007,0.4839,0.2511,0.1669,0.1698,0.1062,0.0,0.0,0.0,0.0,0.0,0.0,0.0,-0.1994,0.0797,0.2068,0.357,0.8446,1.1131,1.3809,1.8144,1.9482,1.9548,1.9149,1.7946,1.6822,1.6476,1.5811,1.4809,1.3095,1.1813,1.0318,0.8338,0.7897,0.7923,0.8412,0.9499,1.0579,1.1424,1.2294,1.2274,1.0769,1.0352,0.9522,0.7957,0.6703,0.6034,0.6186,0.5461,0.5213,0.5643,0.4015,0.2912,0.2508,-0.0505,-0.2215,-0.2657,-0.4701,-0.6588,-0.8262,-0.9569,-1.0477,-1.1126,-1.2468,-1.3078,-1.3194,-1.3534,-1.3892,-1.4131,-1.3701,-1.3799,-1.4199,-1.4394,-1.4746,-1.5137,0.0,0.0,0.0,0.0,0.0,0.0,0.0,0.0,0.0,0.0,0.0,0.0,0.0,0.0,0.0,0.0,0.0,0.0,0.0,0.0,0.0,0.6064,0.606,0.6192,0.6471,0.6498,0.6893,0.7732,0.6947,0.6413,0.6295,0.6244,0.5671,0.4732,0.4733,0.4675,0.4768,0.4886,0.5518,0.6441,0.557,0.526,0.5185,0.277,0.202,0.1969,0.0539,-0.009,-0.0449,-0.1427,0.0,0.0,0.0,0.0,-0.3151,-0.1055,-0.0318,0.0793,0.5558,0.9217,1.2736,1.7229,1.7927,1.7494,1.762,1.653,1.544,1.5455,1.5418,1.4691,1.256,1.0282,0.8254,0.672,0.5332,0.5061,0.688,0.7568,0.8464,1.0058,1.0714,1.0646,0.9616,0.9539,0.9182,0.8346,0.6949,0.6087,0.5943,0.5295,0.488,0.488,0.3901,0.3077,0.245,-0.0122,-0.1794,-0.2475,-0.4952,-0.6845,-0.834,-1.0719,-1.1337,-1.0776,-1.197,-1.2591,-1.2723,-1.2636,-1.2883,-1.3314,-1.3075,-1.3203,-1.3555,-1.3922,-1.4414,-1.4834,0.0,0.0,0.0,0.0,0.0,0.0,0.0,0.0,0.0,0.0,0.6802,0.0,0.0,0.0,0.0,0.0,0.0,0.0,0.5793,0.0,0.0,0.6227,0.5495,0.5568,0.6471,0.6603,0.6685,0.6711,0.6551,0.6464,0.6437,0.6179,0.5529,0.4696,0.4704,0.475,0.4859,0.5054,0.5732,0.6671,0.6523,0.6534,0.6408,0.4068,0.3246,0.3037,0.0807,-0.0628,-0.1607,-0.1577,-0.2954,0.0,0.0,0.0,-0.4465,-0.3301,-0.2086,-0.0081,0.4624,0.9486,1.3288,1.367,1.3777,1.4021,1.4589,1.4464,1.4253,1.4321,1.4041,1.3192,1.0903,0.9261,0.756,0.5351,0.4022,0.3869,0.5564,0.6254,0.7177,0.8514,0.9388,0.9633,0.8978,0.9145,0.8848,0.7841,0.7002,0.6314,0.5859,0.5122,0.4721,0.4721,0.3362,0.2508,0.2221,-0.0623,-0.2161,-0.229,-0.512,-0.6966,-0.7901,-1.0393,-1.1258,-1.0726,-1.1604,-1.2007,-1.2061,-1.2751,-1.2868,-1.2715,-1.3183,-1.3457,-1.3555,-1.3922,-1.4414,-1.4795,0.0,0.0,0.0,0.0,0.0,0.0,0.0,0.0,0.0,0.0,0.0,0.6294,0.0,0.0,0.0,0.5576,0.5623,0.5735,0.5796,0.5705,0.5752,0.6135,0.5953,0.6025,0.6597,0.6664,0.6668,0.66,0.6515,0.643,0.6349,0.622,0.5966,0.573,0.579,0.5808,0.5836,0.6025,0.6398,0.6827,0.6827,0.6868,0.6668,0.4327,0.2979,0.2047,-0.0179,-0.1804,-0.2991,-0.3549,-0.4404,-0.5341,-0.5756,0.0,0.0,0.0,-0.4951,-0.3559,0.2412,0.7085,1.0456,1.0969,1.1091,1.1124,1.1367,1.1658,1.2053,1.2739,1.3043,1.2587,1.0519,0.8514,0.6196,0.339,0.2079,0.1959,0.3533,0.4254,0.5424,0.7542,0.788,0.7859,0.758,0.766,0.7569,0.7139,0.6416,0.5854,0.5665,0.4949,0.4562,0.4562,0.3535,0.2717,0.223,-0.0334,-0.2611,-0.4663,-0.5977,-0.7186,-0.8366,-1.0065,-1.0792,-1.0804,-1.1797,-1.2319,-1.2486,-1.267,-1.2871,-1.3105,-1.3603,-1.3711,-1.3555,-1.3922,-1.4102,-1.4102,0.0,0.0,0.0,0.0,0.0,0.0,0.0,0.0,0.0,0.0,0.0,0.0,0.0,0.0,0.0,0.0,0.5739,0.5817,0.5857,0.5648,0.5662,0.6091,0.5893,0.6087,0.6698,0.6739,0.6739,0.6702,0.6549,0.6417,0.6315,0.6315,0.6373,0.6478,0.6593,0.658,0.6491,0.68,0.6949,0.6893,0.6595,0.6516,0.6282,0.3903,0.2182,0.0707,-0.1522,-0.3347,-0.482,-0.5902,-0.6298,-0.6328,-0.6937,-0.7679,0.0,0.0,0.0,-0.5767,-0.0247,0.3738,0.6678,0.7889,0.8124,0.8168,0.8656,0.922,1.0069,1.1555,1.2343,1.2261,1.0402,0.7758,0.4885,0.2026,0.0294,-0.0143,0.1522,0.2432,0.3871,0.6378,0.6619,0.6588,0.6588,0.6588,0.6588,0.6588,0.5923,0.5429,0.5206,0.456,0.4125,0.3901,0.3178,0.2508,0.1952,-0.0278,-0.3154,-0.6603,-0.6597,-0.7399,-0.8818,-0.9733,-1.0292,-1.0613,-1.1696,-1.2402,-1.2769,-1.2706,-1.2976,-1.3432,-1.3908,-1.3824,-1.3545,-1.3857,-1.3779,-1.3555,0.0,0.0,0.0,0.0,0.0,0.0,0.0,0.0,0.0,0.0,0.0,0.0,0.6013,0.603,0.5966,0.5803,0.5796,0.5864,0.601,0.4311,0.4137,0.617,0.4654,0.0,0.6615,0.6844,0.6848,0.6702,0.6549,0.6468,0.6461,0.6461,0.6464,0.6471,0.6481,0.6478,0.6491,0.68,0.7007,0.7027,0.593,0.5518,0.5429,0.288,0.1125,-0.0261,-0.297,-0.5225,-0.7095,-0.8388,-0.8725,-0.8501,-0.8383,-0.8319,-0.8397,0.0,0.0,0.0,-0.3047,-0.0086,0.2789,0.3852,0.4118,0.4631,0.6858,0.7978,0.9135,1.1432,1.2343,1.2203,1.011,0.6949,0.4029,0.1951,-0.0882,-0.2155,-0.0349,0.1158,0.2728,0.4632,0.5875,0.6588,0.6588,0.6588,0.6588,0.6588,0.5923,0.5206,0.4481,0.3837,0.3121,0.2343,0.1619,0.1174,0.1174,-0.1059,-0.3663,-0.6588,-0.66,-0.7401,-0.8811,-0.9496,-0.9809,-0.9921,-1.094,-1.18,-1.2559,-1.2896,-1.3114,-1.3168,-1.3853,-1.3824,-1.3506,-1.3525,-1.3525,-1.3516,0.0,0.0,0.0,0.0,0.0,0.0,0.0,0.0,0.0,0.0,0.0,0.0,0.0,0.6176,0.6115,0.5962,0.5945,0.5928,0.5884,0.4811,0.4766,0.6257,0.5149,0.5309,0.6759,0.6902,0.6854,0.6702,0.6549,0.6427,0.6335,0.5695,0.5378,0.539,0.6302,0.6712,0.6637,0.6939,0.7153,0.7268,0.6586,0.5999,0.5236,0.2729,0.0426,-0.1812,-0.4805,-0.7595,-0.9867,-1.0214,-1.0819,-1.1144,-0.9411,-0.9685,-1.086,-1.2129,-1.0835,-0.8622,-0.6711,-0.3557,-0.0683,0.0265,0.0626,0.1166,0.3293,0.4435,0.6083,0.9636,1.1065,1.1207,0.9745,0.6794,0.3563,0.0372,-0.2625,-0.3975,-0.2165,-0.1009,0.0718,0.3628,0.4745,0.5226,0.5226,0.4835,0.4553,0.4498,0.3776,0.3279,0.3,0.2785,0.251,0.223,0.1507,0.0391,-0.1004,-0.2284,-0.3886,-0.591,-0.6392,-0.7138,-0.81,-0.899,-0.9535,-0.9864,-1.0848,-1.1581,-1.2139,-1.2991,-1.3371,-1.3393,-1.393,-1.3835,-1.3506,-1.3506,-1.334,-1.3105,0.0,0.0,0.0,0.0,0.0,0.0,0.0,0.0,0.0,0.7229,0.0,0.0,0.0,0.0,0.622,0.6115,0.6108,0.6064,0.5962,0.514,0.5176,0.6329,0.5575,0.5684,0.6907,0.7,0.6754,0.6266,0.6122,0.5719,0.5237,0.453,0.4139,0.4229,0.521,0.5853,0.6072,0.6301,0.6505,0.6567,0.5907,0.5117,0.3967,0.1464,-0.1122,-0.3776,-0.6708,-0.9809,-1.2416,-1.2733,-1.2904,-1.279,-1.1107,-1.1467,-1.2795,-1.446,-1.3783,-1.2005,-1.0121,-0.7486,-0.4952,-0.3599,-0.2987,-0.2152,0.0341,0.2104,0.43,0.8207,1.0009,1.0585,0.9445,0.6435,0.2993,-0.0517,-0.3824,-0.5454,-0.3926,-0.2566,-0.0596,0.2401,0.3846,0.4538,0.4538,0.3894,0.3459,0.34,0.2681,0.2099,0.1816,0.1853,0.173,0.1452,0.1006,-0.0223,-0.2174,-0.2676,-0.3773,-0.5521,-0.6,-0.6627,-0.7342,-0.8302,-0.8838,-0.9169,-1.0551,-1.1489,-1.2133,-1.3072,-1.358,-1.3698,-1.3864,-1.3719,-1.3486,-1.335,-1.3125,-1.2881,0.0,0.0,0.0,0.0,0.0,0.0,0.0,0.0,0.7229,0.7314,0.0,0.0,0.0,0.0,0.0,0.6338,0.6342,0.6268,0.6338,0.5318,0.5294,0.6471,0.5621,0.5806,0.7139,0.7139,0.654,0.5368,0.516,0.4412,0.3127,0.3047,0.3046,0.3049,0.312,0.375,0.4618,0.4813,0.4909,0.4927,0.3804,0.279,0.175,-0.099,-0.351,-0.6028,-0.8623,-1.1652,-1.4581,-1.574,-1.4977,-1.3635,-1.3622,-1.3622,-1.3871,-1.5042,-1.5091,-1.4505,0.0,0.0,0.0,-0.7827,-0.6764,-0.5317,-0.1814,0.0973,0.3828,0.7107,0.9326,1.0341,0.9218,0.5888,0.2266,-0.0661,-0.4401,-0.6519,-0.5467,-0.3257,-0.1012,0.0875,0.321,0.4691,0.4691,0.4045,0.3628,0.3562,0.2688,0.1821,0.1058,0.1026,0.0728,0.0,-0.0056,-0.0727,-0.2174,-0.2232,-0.3332,-0.5467,-0.547,-0.5869,-0.6607,-0.7368,-0.7711,-0.7799,-0.988,-1.1429,-1.2511,-1.3176,-1.3716,-1.4039,-1.3625,-1.3486,-1.3437,-1.3027,-1.2881,-1.2881,0.0,0.0,0.0,0.0,0.0,0.0,1.0454,0.9622,0.8571,0.0,0.0,0.0,0.6423,0.6338,0.6338,0.6338,0.6356,0.6369,0.6268,0.5401,0.574,0.7752,0.6891,0.7109,0.8531,0.7609,0.6562,0.5401,0.4348,0.3546,0.3124,0.2366,0.2035,0.1958,0.1262,0.1497,0.2511,0.3511,0.4038,0.4144,0.3594,0.279,0.1742,-0.0768,-0.3222,-0.584,-0.8874,-1.2481,-1.5738,-1.5989,-1.6881,-1.7686,-1.6277,-1.6014,-1.6381,-1.7232,-1.7484,-1.7141,-1.5783,0.0,0.0,0.0,0.0,0.0,-0.5357,-0.291,0.0079,0.4598,0.6606,0.7529,0.7076,0.4447,0.1424,-0.1544,-0.4719,-0.6351,-0.5286,-0.354,-0.1499,0.0845,0.2764,0.4103,0.4632,0.4183,0.3581,0.2831,0.1551,0.0371,-0.0608,-0.0648,-0.0688,-0.0784,-0.134,-0.1786,-0.2174,-0.3287,-0.4177,-0.4783,-0.5254,-0.5584,-0.5828,-0.7117,-0.7681,-0.7799,-0.9879,-1.0989,-1.1353,-1.2572,-1.3135,-1.3234,-1.3126,-1.3057,-1.3037,-1.293,-1.2881,-1.2881,0.0,0.0,0.0,0.0,0.0,0.0,1.1,1.0214,0.9247,0.0,0.0,0.0,0.6603,0.6335,0.6285,0.6342,0.6424,0.6413,0.6349,0.6225,0.6841,0.8311,0.8221,0.848,0.905,0.7771,0.6086,0.4009,0.2672,0.1501,0.0403,-0.0079,-0.0391,-0.0391,-0.1017,-0.0939,-0.0313,0.0482,0.1337,0.2176,0.1947,0.1039,-0.0453,-0.2405,-0.4711,-0.7087,-0.9815,-1.3333,-1.6723,-1.695,-1.8201,-1.9496,-1.7859,-1.8091,-1.9028,-1.9402,-1.9687,-1.9723,-1.8543,-1.7307,-1.5981,-1.4183,0.0,0.0,-0.8413,-0.579,-0.2821,0.1863,0.4036,0.5059,0.4957,0.2885,0.0427,-0.2115,-0.4561,-0.6016,-0.5593,-0.4127,-0.2162,0.0333,0.2479,0.424,0.54,0.4998,0.423,0.3359,0.0922,-0.1225,-0.2877,-0.3047,-0.2783,-0.206,-0.2117,-0.2343,-0.2676,-0.3566,-0.4181,-0.4519,-0.4916,-0.5089,-0.5144,-0.6569,-0.7241,-0.7376,-0.9452,-1.0559,-1.0897,-1.1984,-1.2618,-1.2881,-1.2881,-1.3065,-1.3238,-1.2968,-1.32,-1.3563,0.0,0.0,0.0,1.0798,1.12,1.1456,1.155,1.0655,0.9582,0.0,0.8037,0.7537,0.674,0.6427,0.6312,0.6437,0.6478,0.643,0.6271,0.7265,0.807,0.8556,0.9457,0.9755,0.9499,0.793,0.5507,0.2226,0.0696,-0.1097,-0.3329,-0.3163,-0.3124,-0.3124,-0.3124,-0.3124,-0.3124,-0.3124,-0.2131,-0.0483,-0.0495,-0.1628,-0.3484,-0.4786,-0.6763,-0.8937,-1.0856,-1.4001,-1.7321,-1.8243,-1.9316,-2.0022,-1.8873,-1.9899,-2.1506,-2.1301,-2.1544,-2.184,-2.1037,-2.0112,-1.8859,-1.6806,-1.5746,0.0,-1.0955,-0.8197,-0.5078,-0.1001,0.1313,0.2566,0.258,0.1076,-0.0796,-0.2701,-0.448,-0.5712,-0.6185,-0.4924,-0.298,-0.0447,0.2172,0.4571,0.6539,0.6222,0.5497,0.4547,0.0349,-0.3249,-0.592,-0.6075,-0.5427,-0.3877,-0.2998,-0.2839,-0.3508,-0.3453,-0.379,-0.4519,-0.4519,-0.4519,-0.4574,-0.5932,-0.6622,-0.6704,-0.8856,-1.0169,-1.0861,-1.1527,-1.2231,-1.2881,-1.2881,-1.3248,-1.3637,-1.3152,-1.3705,-1.4479,0.0,0.0,0.0,0.0,0.0,1.2414,1.1153,1.1356,1.0713,0.8251,0.7165,0.6588,0.6582,0.6363,0.6349,0.6298,0.6519,0.6542,0.6278,0.6746,0.7804,0.9791,1.0034,1.0684,1.1905,0.8668,0.5794,0.3345,0.0259,-0.193,-0.3325,-0.3188,-0.3124,-0.3124,-0.3124,-0.3124,-0.3124,-0.3124,-0.3366,-0.3698,-0.2902,-0.2877,-0.3379,-0.4468,-0.6325,-0.8556,-1.048,-1.3452,-1.6809,-1.9282,-2.0778,-2.1435,-2.0836,-2.1191,-2.1812,-2.1812,-2.1896,-2.1782,-2.1026,-2.0275,-1.9468,-1.7969,-1.6686,0.0,-1.3316,-1.0926,-0.8092,-0.4365,-0.2661,-0.1581,-0.0647,-0.1462,-0.2931,-0.4852,-0.5885,-0.64,-0.6362,-0.5476,-0.3892,-0.1361,0.0867,0.351,0.686,0.7929,0.7368,0.4967,-0.1899,-0.7381,-1.0423,-0.9813,-0.8776,-0.7361,-0.5675,-0.4569,-0.421,-0.4229,-0.4349,-0.4519,-0.4519,-0.4519,-0.4574,-0.5932,-0.6583,-0.6745,-0.8844,-1.0194,-1.0861,-1.1527,-1.2231,-1.2881,-1.2881,-1.2968,-1.3104,-1.3505,-1.3779,-1.4003,0.5217,0.6634,0.8089,0.0,0.0,0.0,1.201,1.2409,1.1762,0.9341,0.7635,0.662,0.6692,0.6569,0.6512,0.6586,0.6136,0.604,0.6495,0.6518,0.769,1.0192,1.0751,1.1381,1.2423,0.9468,0.6517,0.3575,0.0087,-0.2477,-0.4101,-0.4605,-0.4935,-0.5196,-0.5343,-0.5752,-0.6207,-0.6207,-0.6606,-0.7073,-0.4924,-0.4378,-0.492,-0.5409,-0.6842,-0.8847,-1.064,-1.3917,-1.7767,-2.0261,-2.1609,-2.22,-2.2145,-2.2728,-2.3368,-2.3356,-2.2901,-2.2149,-2.1647,-2.0582,-1.9323,-1.8261,-1.7484,0.0,0.0,-1.3237,-1.086,-0.7801,-0.6211,-0.5061,-0.4323,-0.4764,-0.5747,-0.7102,-0.786,-0.8194,-0.8057,-0.6639,-0.4511,-0.1534,0.1014,0.4164,0.8371,0.9384,0.7262,0.122,-0.612,-1.1553,-1.4359,-1.4412,-1.3104,-1.0447,-0.8404,-0.6804,-0.5529,-0.516,-0.5003,-0.5003,-0.468,-0.4519,-0.4519,-0.5597,-0.6249,-0.6696,-0.815,-0.9358,-1.0343,-1.0998,-1.1747,-1.2391,-1.2783,-1.3296,-1.38,-1.3779,-1.4365,-1.5096,0.4139,0.5369,0.6795,0.0,0.0,0.0,0.0,0.0,1.2221,1.0178,0.8159,0.6885,0.6885,0.6749,0.6719,0.6871,0.5738,0.5434,0.6287,0.6252,0.7195,0.9604,1.0822,1.1676,1.2246,1.0003,0.7153,0.3864,0.0176,-0.2774,-0.4941,-0.6212,-0.7021,-0.7401,-0.7858,-0.8708,-0.9721,-0.9387,-0.9668,-0.9917,-0.6904,-0.6089,-0.678,-0.672,-0.7614,-0.9324,-1.1449,-1.4956,-1.8922,-2.0904,-2.1984,-2.2546,-2.2983,-2.369,-2.4292,-2.4265,-2.3372,-2.2244,-2.1721,-2.0389,-1.8996,-1.8182,-1.7949,-1.762,0.0,0.0,0.0,-1.0773,-0.9308,-0.825,-0.7614,-0.7761,-0.8291,-0.9297,-0.9834,-1.023,-1.0288,-0.835,-0.5504,-0.1781,0.1297,0.504,0.9962,0.9619,0.5374,-0.3513,-1.0604,-1.573,-1.8368,-1.8946,-1.7369,-1.3441,-1.1056,-0.8817,-0.6804,-0.5923,-0.5487,-0.5487,-0.4842,-0.4519,-0.4515,-0.5214,-0.5878,-0.6663,-0.7399,-0.8508,-0.9873,-1.0498,-1.1174,-1.1877,-1.2627,-1.3563,-1.4468,-1.4097,-1.496,-1.6194,0.289,0.482,0.6331,0.6727,0.0,0.0,0.0,0.0,1.125,0.919,0.7636,0.6725,0.6725,0.659,0.6559,0.6712,0.5612,0.4933,0.5105,0.5186,0.5758,0.7001,0.9294,1.1012,1.2088,0.9976,0.7578,0.507,0.0605,-0.2733,-0.4941,-0.6929,-0.7783,-0.7749,-0.868,-0.991,-1.1053,-0.9813,-1.0019,-1.0947,-0.909,-0.8121,-0.7774,-0.7374,-0.7903,-0.9368,-1.3325,-1.6611,-1.9269,-2.0614,-2.1631,-2.2384,-2.294,-2.2887,-2.2568,-2.2359,-2.1786,-2.0883,-1.955,-1.8935,-1.8591,-1.8103,-1.7734,-1.7427,-1.7113,0.0,-1.5382,-1.2504,0.0,-1.1119,-0.9202,0.0,0.0,-1.1365,-1.1596,-1.179,-1.2422,-1.0718,-0.7644,-0.2818,0.0477,0.4582,1.0317,0.683,0.1194,-0.6276,-1.3856,-1.9749,-2.3468,-2.2569,-2.0329,-1.6776,-1.317,-1.0068,-0.7616,-0.6195,-0.5487,-0.5487,-0.4842,-0.4519,-0.4519,-0.5199,-0.589,-0.6634,-0.7374,-0.8508,-0.9866,-1.0543,-1.1206,-1.1873,-1.2618,-1.3286,-1.3956,-1.4422,-1.505,-1.5776,0.1913,0.3504,0.4959,0.6205,0.0,0.0,0.0,0.0,0.9484,0.8542,0.8235,0.808,0.8068,0.7997,0.794,0.8194,0.572,0.4477,0.5129,0.4554,0.4994,0.694,0.8568,0.9979,1.1359,0.9753,0.769,0.5287,0.1312,-0.1722,-0.3934,-0.677,-0.8291,-0.8765,-1.0318,-1.1727,-1.2962,-1.2155,-1.2269,-1.2783,-1.0754,-0.9766,-0.9265,-0.8292,-0.8917,-1.0666,-1.3901,-1.6057,-1.7684,-1.9648,-2.0568,-2.1004,-2.1895,-2.202,-2.1818,-2.1572,-2.0793,-1.9712,-1.9005,-1.8154,-1.759,-1.7909,-1.7695,-1.7531,-1.7938,-1.7287,-1.607,-1.4081,0.0,0.0,0.0,0.0,0.0,0.0,-1.4017,-1.3913,-1.321,-1.1736,-0.8789,-0.3753,0.0487,0.4615,0.8762,0.3785,-0.2376,-0.8828,-1.7709,-2.391,-2.6358,-2.544,-2.304,-1.9088,-1.4738,-1.1014,-0.8007,-0.6311,-0.5487,-0.5487,-0.4842,-0.4519,-0.4519,-0.5203,-0.5905,-0.6661,-0.7382,-0.8277,-0.9327,-1.0356,-1.099,-1.1366,-1.2861,-1.3779,-1.4376,-1.5005,-1.5599,-1.6151,0.0979,0.2118,0.3509,0.5352,0.7024,0.0,0.0,0.8589,0.8064,0.7981,0.8384,0.8731,0.899,0.8624,0.8574,0.9157,0.6008,0.437,0.522,0.4452,0.4706,0.6549,0.7955,0.9013,0.9607,0.8798,0.7186,0.4786,0.1238,-0.1393,-0.321,-0.6602,-0.8635,-0.9459,-1.1172,-1.2791,-1.4224,-1.3984,-1.4022,-1.4126,-1.2224,-1.1134,-1.0447,-0.9267,-1.0009,-1.1918,-1.4131,-1.545,-1.6564,-1.8804,-1.9685,-1.9974,-2.0953,-2.1267,-2.1219,-2.0849,-2.003,-1.9014,-1.8323,-1.7523,-1.7001,-1.7684,-1.7607,-1.7607,-1.8447,-1.7726,-1.6555,-1.5162,-1.4541,0.0,0.0,0.0,-1.4238,-1.5217,0.0,-1.5087,-1.387,-1.2412,-0.9599,-0.4438,0.093,0.469,0.6025,0.0586,-0.5678,-1.2058,-2.0837,-2.6515,-2.7946,-2.6742,-2.4036,-1.9703,-1.5256,-1.1269,-0.788,-0.6298,-0.5487,-0.5487,-0.4842,-0.4519,-0.4519,-0.5183,-0.5901,-0.6654,-0.7395,-0.81,-0.891,-1.0269,-1.0813,-1.1015,-1.3208,-1.4316,-1.4789,-1.5365,-1.5964,-1.6479,-0.0167,0.0908,0.2058,0.3435,0.5244,0.7,0.8537,0.7822,0.7183,0.742,0.7451,0.7851,0.8823,0.7646,0.7333,0.8782,0.6399,0.4964,0.5092,0.5276,0.5181,0.4804,0.7403,0.8185,0.6757,0.7032,0.5934,0.3544,0.0,-0.2289,-0.3371,-0.6652,-0.8626,-0.9521,-1.0706,-1.24,-1.4388,-1.4224,-1.4306,-1.4328,-1.3536,-1.2348,-1.0916,-1.0309,-1.1005,-1.2597,-1.4267,-1.545,-1.6507,-1.8387,-1.9384,-1.9911,-2.0555,-2.0743,-2.0582,-1.986,-1.9503,-1.8972,-1.7116,-1.6879,-1.7193,-1.7372,-1.7393,-1.7607,-1.8447,-1.8241,-1.7432,-1.557,-1.5558,-1.524,-1.3469,-1.3885,-1.4763,-1.5712,-1.5095,0.0,0.0,-1.3115,-1.0041,-0.4778,0.1866,0.4869,0.2008,-0.2829,-0.8843,-1.6365,-2.2599,-2.676,-2.8316,-2.595,-2.2564,-1.8221,-1.423,-1.0479,-0.6961,-0.5967,-0.5487,-0.5487,-0.4842,-0.4519,-0.4515,-0.519,-0.5905,-0.6654,-0.7395,-0.81,-0.891,-1.0269,-1.0813,-1.1065,-1.3672,-1.4671,-1.4789,-1.5365,-1.5964,-1.6423,-0.1168,-0.0169,0.0943,0.2203,0.4299,0.5897,0.6433,0.621,0.5754,0.4956,0.6976,0.8677,0.9127,0.926,0.951,1.0077,0.7823,0.6028,0.5185,0.6192,0.6298,0.5193,0.7753,0.8508,0.6976,0.6277,0.48,0.2396,-0.0444,-0.2728,-0.4581,-0.7076,-0.8371,-0.8854,-1.0269,-1.1734,-1.3278,-1.3638,-1.4221,-1.4856,-1.4151,-1.3317,-1.2526,-1.189,-1.1756,-1.2147,-1.3925,-1.4866,-1.5423,-1.6788,-1.792,-1.8844,-1.9409,-1.9823,-1.9982,-1.9215,-1.8988,-1.8534,-1.6634,-1.6248,-1.6368,-1.6535,-1.6514,-1.6807,-1.7959,-1.7676,-1.6977,-1.6251,-1.5765,-1.5393,-1.5044,-1.5222,-1.5771,-1.6741,-1.6048,-1.5308,0.0,-1.2813,-0.9761,-0.5962,-0.1788,-0.0073,-0.2149,-0.7418,-1.3058,-1.866,-2.4372,-2.7856,-2.8556,-2.5391,-2.1931,-1.8314,-1.3236,-0.9269,-0.6474,-0.5365,-0.5054,-0.5487,-0.5273,-0.5445,-0.5896,-0.6609,-0.7106,-0.7342,-0.81,-0.8567,-0.891,-1.0269,-1.0795,-1.1032,-1.3238,-1.4362,-1.4835,-1.5832,-1.6053,-1.5792,-0.1666,-0.0765,0.0347,0.1604,0.3416,0.4818,0.4827,0.4789,0.4586,0.381,0.6048,0.8124,0.8915,0.9393,1.0036,1.0952,0.8843,0.7126,0.6297,0.7187,0.7309,0.6452,0.8016,0.8257,0.6806,0.538,0.3464,0.1056,-0.0893,-0.2764,-0.4631,-0.5838,-0.6743,-0.7215,-0.865,-1.0057,-1.1577,-1.311,-1.4129,-1.4617,-1.4375,-1.4057,-1.3605,-1.3388,-1.2728,-1.2115,-1.378,-1.4542,-1.4834,-1.5798,-1.6944,-1.8003,-1.8555,-1.9095,-1.9458,-1.9153,-1.9097,-1.8701,-1.707,-1.6618,-1.6504,-1.6087,-1.5948,-1.6248,-1.7321,-1.7002,-1.6465,-1.6401,-1.6044,-1.5762,-1.553,-1.5871,-1.6318,-1.6599,-1.5957,-1.5215,0.0,-1.297,-1.0991,-0.9035,-0.6145,-0.4767,-0.5944,-1.1148,-1.5951,-1.9561,-2.4576,-2.7165,-2.6419,-2.3233,-1.9892,-1.6595,-1.164,-0.7988,-0.5751,-0.4952,-0.4901,-0.5487,-0.5521,-0.5905,-0.6642,-0.7367,-0.7711,-0.7747,-0.8455,-0.8956,-0.9263,-1.0364,-1.0956,-1.131,-1.3095,-1.4026,-1.4485,-1.5501,-1.5584,-1.5119,-0.1827,-0.0842,0.0257,0.1514,0.2636,0.3521,0.3695,0.3696,0.3688,0.3602,0.4663,0.6078,0.805,0.8166,0.8993,1.1187,0.9423,0.8201,0.8367,0.8412,0.8315,0.8208,0.8315,0.7655,0.6185,0.4306,0.2206,-0.0259,-0.1264,-0.2462,-0.3566,-0.3333,-0.3758,-0.4816,-0.5913,-0.7414,-0.9376,-1.2601,-1.4028,-1.4068,-1.462,-1.4656,-1.4343,-1.4755,-1.3883,-1.2559,-1.3922,-1.4505,-1.4789,-1.5365,-1.6386,-1.7476,-1.8003,-1.8543,-1.9083,-1.9572,-1.9723,-1.9444,-1.8154,-1.7808,-1.7489,-1.5988,-1.5652,-1.5858,-1.6491,-1.6318,-1.5994,-1.5905,-1.6225,-1.6229,-1.4961,-1.5801,-1.6411,-1.5551,-1.4941,-1.4421,-1.3837,-1.375,-1.3697,-1.3697,-1.0799,-0.8986,-0.9501,-1.3917,-1.7444,-1.9283,-2.334,-2.4655,-2.2233,-1.9645,-1.6655,-1.3235,-0.9556,-0.6819,-0.4992,-0.4828,-0.5065,-0.5555,-0.5545,-0.5963,-0.6704,-0.7435,-0.7747,-0.7805,-0.8508,-0.9159,-0.9865,-1.0517,-1.12,-1.1913,-1.3253,-1.3775,-1.3841,-1.4452,-1.4547,-1.445,-0.2748,-0.2094,-0.1087,0.0275,0.0728,0.1195,0.2123,0.231,0.1975,0.1113,0.3444,0.5336,0.5859,0.802,0.9513,0.9874,1.0336,1.0016,0.8637,0.9864,1.0042,0.8552,0.9917,0.919,0.6122,0.5035,0.2594,-0.1378,-0.1689,-0.2422,-0.3548,-0.2639,-0.225,-0.249,-0.3506,-0.552,-0.8316,-1.1323,-1.4656,-1.7871,-1.7649,-1.7206,-1.6507,-1.6013,-1.4706,-1.3279,-1.3952,-1.4411,-1.4698,-1.488,-1.6013,-1.74,-1.7551,-1.7978,-1.8442,-1.8581,-1.8618,-1.8336,-1.7111,-1.6765,-1.6466,-1.5099,-1.4987,-1.5314,-1.5645,-1.4942,-1.4478,-1.5378,-1.5186,-1.4919,-1.5215,-1.6053,-1.6772,-1.6823,-1.6441,-1.5748,-1.4934,-1.5413,-1.5545,-1.4846,-1.438,-1.4264,-1.4494,-1.5805,-1.7886,-2.0978,-2.1536,-2.1391,-2.0726,-1.7751,-1.4685,-1.178,-0.912,-0.7154,-0.6009,-0.5813,-0.6028,-0.666,-0.6425,-0.6725,-0.7439,-0.819,-0.8514,-0.8514,-0.8692,-0.9159,-0.9865,-1.0517,-1.1184,-1.1912,-1.309,-1.356,-1.3591,-1.3909,-1.4207,-1.4313,-0.4057,-0.3263,-0.2282,-0.1015,-0.1173,-0.0903,0.0768,0.0469,-0.0092,-0.0748,0.1402,0.3082,0.3313,0.5896,0.8001,0.8993,0.944,0.9442,0.8886,0.9341,0.9432,0.8807,0.9723,0.9085,0.6611,0.5239,0.2754,-0.1088,-0.0607,-0.0968,-0.21,-0.0419,0.0165,-0.025,-0.2215,-0.4905,-0.8198,-1.2893,-1.6666,-1.9494,-1.9089,-1.8417,0.0,-1.6707,-1.5283,-1.3818,-1.4,-1.4366,-1.4698,-1.4698,-1.5723,-1.7049,-1.73,-1.7601,-1.789,-1.8129,-1.8204,-1.7984,-1.7076,-1.6616,-1.6127,-1.4814,-1.4503,-1.4666,-1.5061,-1.4316,-1.4032,-1.5433,-1.509,-1.4678,-1.5321,-1.6143,-1.6796,-1.6987,-1.6775,-1.6419,-1.5869,-1.6645,-1.7129,-1.7033,-1.6833,-1.7071,-1.8105,-1.7397,-1.7668,-1.9655,-2.0156,-1.9757,-1.8394,-1.5725,-1.3092,-1.0438,-0.7944,-0.6591,-0.6387,-0.6156,-0.6543,-0.7599,-0.7242,-0.745,-0.8209,-0.8593,-0.8804,-0.8804,-0.8804,-0.9439,-1.0593,-1.0949,-1.1771,-1.2855,-1.3537,-1.3758,-1.3782,-1.3879,-1.408,-1.4183,-0.5435,-0.4597,-0.3707,-0.2308,-0.3233,-0.3298,-0.0847,-0.1429,-0.2092,-0.1971,-0.0784,0.0246,0.0733,0.3011,0.5473,0.7979,0.7644,0.7825,0.8867,0.7987,0.795,0.9099,0.8771,0.8144,0.7202,0.5217,0.2798,-0.0242,0.101,0.1033,0.0086,0.2312,0.2782,0.1665,-0.1345,-0.4948,-0.9202,-1.5858,-1.9132,-1.9787,-1.9722,-1.9062,-1.8047,-1.7264,-1.587,-1.4291,-1.4334,-1.4516,-1.4698,-1.4698,-1.5522,-1.6609,-1.7112,-1.7307,-1.7485,-1.7932,-1.8071,-1.797,-1.7523,-1.6851,-1.6066,-1.4994,-1.4236,-1.398,-1.4577,-1.4073,-1.3953,-1.5552,-1.5289,-1.4952,-1.5252,-1.6111,-1.6725,-1.672,-1.6702,-1.6752,-1.6757,-1.7513,-1.8382,-1.927,-1.8141,0.0,-2.0114,-1.8463,-1.7317,-1.7445,-1.9128,-1.8905,-1.5877,-1.3967,-1.1714,-0.9122,-0.6907,-0.6009,-0.6611,-0.6485,-0.6998,-0.8271,-0.7899,-0.808,-0.8646,-0.8752,-0.8804,-0.8811,-0.8903,-0.9895,-1.1525,-1.1578,-1.2641,-1.4214,-1.4137,-1.4129,-1.4199,-1.4182,-1.4113,-1.4009,-0.5793,-0.6364,-0.6264,-0.3866,-0.6168,-0.7139,-0.3518,-0.2893,-0.2613,-0.1799,-0.1285,-0.0985,-0.0742,0.1809,0.3997,0.5096,0.6555,0.7702,0.8143,0.8223,0.8508,0.9207,0.87,0.7918,0.6728,0.5149,0.2783,-0.0404,0.098,0.1503,0.129,0.3465,0.3891,0.2928,0.04,-0.4805,-1.1986,-1.7309,-1.9484,-1.9536,-2.088,-2.043,-1.8873,-1.8753,-1.7148,-1.5091,-1.5607,-1.5344,-1.4698,-1.4698,-1.5522,-1.6534,-1.6635,-1.6948,-1.7329,-1.7434,-1.746,-1.7434,-1.7342,-1.6554,-1.556,-1.4858,-1.4236,-1.3897,-1.4129,-1.3578,-1.33,-1.4328,-1.4432,-1.4454,-1.4909,-1.5932,-1.6831,-1.7205,-1.7282,-1.7334,-1.7579,-1.8045,-1.8732,-1.9525,-1.7882,-1.7269,-1.8797,-1.811,-1.8006,-1.9138,-1.8881,-1.7575,-1.5028,-1.3012,-1.0804,-0.828,-0.7762,-0.7618,-0.7708,-0.8245,-0.8494,-0.8539,-0.822,-0.8038,-0.7937,-0.854,-0.8804,-0.8857,-0.937,-1.0322,-1.1517,-1.2123,-1.3243,-1.4621,-1.4265,-1.4323,-1.4668,-1.4694,-1.4267,-1.3593,-0.7642,-0.7612,-0.6942,-0.4813,-0.6505,-0.7031,-0.3759,-0.4362,-0.4826,-0.3496,-0.3376,-0.3424,-0.3607,-0.1667,0.0133,0.1307,0.3257,0.4686,0.5153,0.5774,0.6664,0.7872,0.8118,0.7702,0.6606,0.5474,0.3409,0.0477,0.1194,0.164,0.164,0.3762,0.3979,0.2177,-0.3052,-0.8981,-1.533,-1.9151,-2.0577,-2.0325,-2.1105,-2.0505,-1.9078,-1.8762,-1.7446,-1.576,-1.6076,-1.5731,-1.5186,-1.5186,-1.594,-1.6909,-1.6909,-1.7271,-1.7706,-1.7706,-1.7504,-1.7312,-1.7312,-1.6232,-1.5005,-1.4343,-1.3453,-1.2871,-1.3176,-1.2824,-1.2797,-1.4192,-1.4372,-1.4387,-1.5008,-1.6023,-1.665,-1.6406,-1.6748,-1.7129,-1.7459,-1.7706,-1.8148,-1.897,-1.755,-1.699,-1.8144,-1.7563,-1.7407,-1.8103,-1.7981,-1.6741,-1.4284,-1.3236,-1.1546,-0.8942,-0.8283,-0.8278,-0.8865,-0.8747,-0.8848,-0.9143,-0.8719,-0.8448,-0.8321,-0.8995,-0.9309,-0.9361,-1.0041,-1.1058,-1.2448,-1.3525,-1.4447,-1.5098,-1.4877,-1.4896,-1.5107,-1.5107,-1.4753,-1.4189,-1.0069,-0.9242,-0.805,-0.6174,-0.6603,-0.644,-0.4025,-0.5666,-0.6719,-0.5239,-0.5527,-0.6019,-0.636,-0.5173,-0.3675,-0.2107,-0.0319,0.1154,0.2091,0.2983,0.4392,0.6477,0.6959,0.7093,0.6876,0.547,0.3626,0.131,0.1239,0.1285,0.1366,0.3283,0.2773,0.0085,-0.7179,-1.2831,-1.7097,-2.0248,-2.1225,-2.0665,-2.1084,-2.05,-1.9356,-1.9067,-1.8035,-1.6654,-1.6753,-1.628,-1.5632,-1.5884,-1.6574,-1.7312,-1.7422,-1.7827,-1.8263,-1.8263,-1.7907,-1.7422,-1.7286,-1.6003,-1.4503,-1.3705,-1.2667,-1.1922,-1.2407,-1.2244,-1.2575,-1.4446,-1.4573,-1.4526,-1.5274,-1.583,-1.5955,-1.5498,-1.5918,-1.6465,-1.696,-1.7036,-1.7376,-1.8238,-1.7177,-1.6626,-1.7376,-1.6911,-1.6488,-1.6465,-1.7152,-1.6496,-1.3995,-1.3652,-1.2362,-0.9878,-0.8931,-0.8854,-0.9799,-0.908,-0.9076,-0.9679,-0.9152,-0.8918,-0.9008,-0.9562,-0.9865,-1.0064,-1.0712,-1.1913,-1.3423,-1.4725,-1.5332,-1.541,-1.541,-1.541,-1.542,-1.5518,-1.5245,-1.4808,-1.2526,-1.2493,-1.1614,-0.8577,-0.816,-0.7711,-0.6203,-0.6538,-0.6573,-0.5607,-0.6892,-0.787,-0.781,-0.6744,-0.5501,-0.4417,-0.2799,-0.1141,0.0572,0.1243,0.3051,0.6473,0.519,0.546,0.7822,0.4602,0.2414,0.131,0.0373,0.0077,0.0325,0.124,-0.0246,-0.3818,-0.8963,-1.2585,-1.513,-1.9432,-2.0303,-1.8977,-2.1236,-2.1381,-2.0266,-2.1014,-1.9938,-1.8053,-1.8636,-1.742,-1.5764,-1.6799,-1.7216,-1.7394,-1.7867,-1.838,-1.8817,-1.8817,-1.8458,-1.7894,-1.7356,-1.5966,-1.4411,-1.3205,-1.2337,-1.1922,-1.2407,-1.2482,-1.2876,-1.4443,-1.4758,-1.4904,-1.5342,-1.4844,-1.4609,-1.5303,-1.5156,-1.5362,-1.6389,-1.6555,-1.6885,-1.7767,-1.669,-1.5831,-1.575,-1.5886,-1.5905,-1.5615,-1.7064,-1.7041,-1.4875,-1.3829,-1.2248,-1.014,-0.9973,-0.9973,-1.0065,-1.0002,-0.988,-0.9679,-0.9352,-0.9376,-0.9718,-0.9762,-1.0115,-1.0762,-1.1416,-1.2591,-1.4063,-1.4648,-1.5068,-1.541,-1.541,-1.541,-1.5459,-1.5859,-1.552,-1.4845,-1.3271,-1.2536,-1.1227,-0.851,-0.855,-0.8263,-0.6211,-0.7364,-0.8014,-0.6845,-0.7992,-0.8733,-0.8537,-0.8572,-0.826,-0.7239,-0.5953,-0.447,-0.2716,-0.1461,0.0515,0.3407,0.3292,0.3911,0.557,0.3661,0.2225,0.1305,0.0378,-0.0395,-0.0991,0.0166,-0.1298,-0.5254,-0.9232,-1.265,-1.5521,-1.9104,-2.0389,-2.0133,-2.1381,-2.1712,-2.1495,-2.1639,-2.0644,-1.9213,-1.9104,-1.8013,-1.6701,-1.7146,-1.7504,-1.7867,-1.8419,-1.8968,-1.9332,-1.9006,-1.826,-1.745,-1.686,-1.5452,-1.3841,-1.2454,-1.1944,-1.1728,-1.1524,-1.2007,-1.2881,-1.4105,-1.46,-1.4756,-1.4658,-1.458,-1.4385,-1.3965,-1.417,-1.4626,-1.5258,-1.5342,-1.5332,-1.53,-1.48,-1.4353,-1.4081,-1.4098,-1.4736,-1.61,-1.7784,-1.7666,-1.5183,-1.4776,-1.3742,-1.1765,-1.0878,-1.0686,-1.1192,-1.0279,-0.98,-0.9679,-0.9205,-0.9277,-0.9814,-1.0218,-1.115,-1.2466,-1.2974,-1.3681,-1.4561,-1.499,-1.5254,-1.541,-1.541,-1.5584,-1.5827,-1.5999,-1.5882,-1.5431,-1.4108,-1.2784,-1.1071,-0.8801,-0.8491,-0.8042,-0.6535,-0.8312,-0.9385,-0.831,-0.9154,-0.9724,-0.9373,-1.0045,-1.013,-0.9288,-0.841,-0.7237,-0.5679,-0.429,-0.2418,0.0123,0.0681,0.1694,0.335,0.2369,0.158,0.0911,-0.0075,-0.0937,-0.1612,-0.0978,-0.2691,-0.6489,-0.9597,-1.2826,-1.603,-1.8959,-2.0389,-2.0876,-2.1773,-2.2218,-2.2427,-2.2272,-2.1403,-2.0131,-1.9609,-1.8505,-1.7312,-1.7312,-1.7544,-1.7947,-1.8496,-1.9043,-1.9317,-1.8622,-1.7719,-1.6806,-1.6083,-1.4869,-1.3474,-1.2073,-1.1756,-1.1692,-1.1216,-1.1745,-1.259,-1.37,-1.434,-1.4512,-1.4004,-1.4102,-1.3975,-1.3193,-1.3457,-1.3896,-1.4378,-1.4355,-1.4104,-1.3613,-1.3534,-1.3259,-1.2728,-1.3114,-1.4035,-1.5514,-1.7655,-1.7731,-1.5091,-1.5258,-1.4537,-1.2432,-1.1356,-1.1069,-1.1603,-1.0327,-0.9755,-0.9881,-0.9362,-0.9562,-1.0415,-1.1074,-1.2168,-1.3525,-1.3818,-1.4365,-1.5129,-1.5212,-1.5448,-1.5722,-1.5488,-1.567,-1.6119,-1.6214,-1.6112,-1.5774,-1.57,-1.3887,-1.1977,-1.0113,-0.8216,-0.7144,-0.7752,-0.9394,-1.0335,-0.986,-1.0646,-1.11,-1.0716,-1.08,-1.0722,-1.0297,-0.9855,-0.8998,-0.7666,-0.7067,-0.5522,-0.2859,-0.284,-0.1429,0.1731,0.0751,0.0128,0.0,-0.1188,-0.1601,-0.1312,-0.2523,-0.475,-0.7869,-1.0353,-1.3181,-1.6167,-1.8939,-2.0149,-2.0501,-2.2456,-2.3048,-2.2754,-2.3303,-2.2376,-2.0822,-2.0302,-1.8903,-1.7312,-1.7312,-1.7312,-1.7394,-1.7947,-1.8496,-1.8688,-1.7545,-1.6818,-1.6151,-1.4947,-1.4218,-1.3474,-1.215,-1.1814,-1.1814,-1.1765,-1.1814,-1.2149,-1.3266,-1.3993,-1.4223,-1.3608,-1.3184,-1.3037,-1.3437,-1.3164,-1.3184,-1.4004,-1.3769,-1.3494,-1.3405,-1.3266,-1.2806,-1.1732,-1.3375,-1.4122,-1.3199,-1.6152,-1.6947,-1.4469,-1.4913,-1.4065,-1.1525,-1.1423,-1.1283,-1.1009,-1.0127,-0.9924,-1.0314,-0.9926,-1.0466,-1.1814,-1.2559,-1.3105,-1.3506,-1.3516,-1.4395,-1.5836,-1.5109,-1.5489,-1.6437,-1.5654,-1.5692,-1.6156,-1.6548,-1.6383,-1.5824,-1.5595,-1.4866,-1.379,-1.1737,-1.1111,-1.0631,-0.9737,-1.084,-1.1434,-1.0493,-1.1395,-1.2118,-1.1947,-1.1699,-1.1257,-1.0391,-1.1088,-1.0647,-0.8485,-0.8757,-0.8108,-0.6095,-0.5749,-0.4551,-0.2387,-0.1737,-0.092,0.0128,-0.0344,-0.1144,-0.2252,-0.3465,-0.5458,-0.7996,-1.0195,-1.2703,-1.5535,-1.8684,-2.0939,-2.2464,-2.3482,-2.4154,-2.4396,-2.3288,-2.2061,-2.0709,-1.9374,-1.8214,-1.7188,-1.6403,-1.6391,-1.6562,-1.599,-1.668,-1.7599,-1.686,-1.5941,-1.5004,-1.4275,-1.3627,-1.2939,-1.2021,-1.2187,-1.2403,-1.1922,-1.2401,-1.3159,-1.3942,-1.3932,-1.374,-1.3557,-1.3164,-1.293,-1.3057,-1.2969,-1.2969,-1.3242,-1.2726,-1.2262,-1.1981,-1.1535,-1.1153,-1.0982,-1.1973,-1.3116,-1.4221,-1.5609,-1.5796,-1.4449,-1.4808,-1.4058,-1.208,-1.1496,-1.1254,-1.1432,-1.1007,-1.0841,-1.0993,-1.0633,-1.0965,-1.1814,-1.2559,-1.3105,-1.3506,-1.3922,-1.4307,-1.4723,-1.5198,-1.5386,-1.5325,-1.538,-1.5829,-1.6529,-1.6626,-1.6158,-1.5418,-1.5748,-1.4953,-1.3979,-1.2641,-1.2406,-1.215,-1.1468,-1.2326,-1.2806,-1.2068,-1.2613,-1.3051,-1.2896,-1.2447,-1.1831,-1.1185,-1.1974,-1.1835,-1.0324,-1.0506,-1.0323,-0.953,-0.8705,-0.7433,-0.5604,-0.4161,-0.2498,-0.0692,-0.0201,-0.0766,-0.2186,-0.3655,-0.543,-0.7613,-1.0448,-1.3072,-1.5624,-1.8838,-2.1341,-2.3163,-2.3948,-2.4188,-2.3988,-2.2983,-2.1624,-2.0005,-1.8492,-1.7518,-1.6786,-1.5664,-1.5487,-1.5652,-1.4915,-1.5274,-1.5855,-1.5528,-1.4903,-1.4171,-1.3627,-1.32,-1.2774,-1.2344,-1.2559,-1.2774,-1.2344,-1.2938,-1.364,-1.3828,-1.3729,-1.3551,-1.3322,-1.3057,-1.2881,-1.2881,-1.2881,-1.2774,-1.251,-1.2089,-1.1669,-1.1257,-1.0834,-1.0681,-1.0777,-1.1781,-1.2797,-1.3695,-1.5028,-1.5387,-1.4372,-1.4767,-1.4166,-1.2318,-1.1819,-1.1616,-1.1722,-1.1431,-1.1362,-1.1498,-1.1556,-1.1783,-1.2236,-1.2666,-1.3105,-1.3506,-1.3882,-1.4226,-1.4566,-1.5138,-1.532,-1.525,-1.5349,-1.5947,-1.6665,-1.6329,-1.5766,-1.5163,-1.6076,-1.4454,-1.3065,-1.3065,-1.2445,-1.2202,-1.2997,-1.3826,-1.4337,-1.4396,-1.4218,-1.3987,-1.3761,-1.3095,-1.2638,-1.2559,-1.2532,-1.2596,-1.2696,-1.2199,-1.215,-1.2725,-1.1554,-0.9847,-0.7711,-0.6298,-0.4442,-0.2196,-0.0716,-0.047,-0.1407,-0.3191,-0.4957,-0.6905,-1.097,-1.4045,-1.6339,-1.9257,-2.1322,-2.2698,-2.3739,-2.3194,-2.1787,-2.2105,-2.086,-1.8754,-1.7573,-1.676,-1.6077,-1.4903,-1.4514,-1.456,-1.4457,-1.4086,-1.3674,-1.3768,-1.3768,-1.3589,-1.3065,-1.2881,-1.2881,-1.2881,-1.2881,-1.2929,-1.2978,-1.3372,-1.36,-1.3065,-1.3372,-1.3552,-1.3017,-1.2881,-1.2881,-1.2881,-1.2881,-1.2559,-1.1922,-1.176,-1.1521,-1.1129,-1.1026,-1.0991,-1.0974,-1.2428,-1.3003,-1.2041,-1.4496,-1.5495,-1.4356,-1.4856,-1.4293,-1.2336,-1.2411,-1.2258,-1.192,-1.1592,-1.1572,-1.1895,-1.2588,-1.2881,-1.2881,-1.2881,-1.3096,-1.3467,-1.3508,-1.4083,-1.507,-1.4869,-1.5235,-1.5823,-1.5551,-1.5977,-1.6602,-1.5689,-1.5306,-1.5092,-1.5566,-1.5156,-1.4836,-1.4836,-1.4408,-1.4401,-1.5514,-1.5578,-1.5708,-1.6255,-1.6579,-1.6231,-1.494,-1.4685,-1.4224,-1.332,-1.3003,-1.2605,-1.2061,-1.2442,-1.2442,-1.2052,-1.1747,-1.0562,-0.8502,-0.7564,-0.5454,-0.2196,-0.0636,-0.0721,-0.2409,-0.3195,-0.5188,-0.8202,-1.1145,-1.4035,-1.6718,-1.8917,-2.0644,-2.1932,-2.168,-2.1097,-2.0218,-1.8969,-1.7913,-1.6888,-1.5165,-1.4823,-1.4846,-1.3012,-1.2792,-1.3062,-1.2033,-1.1994,-1.2444,-1.3484,-1.3457,-1.3055,-1.2929,-1.2881,-1.2881,-1.2881,-1.2881,-1.3017,-1.3457,-1.3334,-1.319,-1.3505,-1.3324,-1.3065,-1.2929,-1.2881,-1.2881,-1.2881,-1.2452,-1.1981,-1.1841,-1.1129,-1.0694,-1.0795,-1.0495,-1.0438,-1.0692,-1.2149,-1.326,-1.3655,-1.474,-1.5537,-1.5991,-1.5475,-1.4551,-1.3304,-1.2956,-1.2623,-1.2364,-1.2468,-1.2551,-1.2637,-1.2832,-1.2881,-1.2881,-1.2881,-1.2939,-1.3077,-1.3524,-1.3779,-1.3981,-1.4746,-1.5016,-1.5123,-1.5723,-1.625,-1.6641,-1.5991,-1.5522,-1.5092,-1.541,-1.541,-1.541,-1.541,-1.5501,-1.5818,-1.6394,-1.6586,-1.6949,-1.7663,-1.7659,-1.7276,-1.6472,-1.5704,-1.4738,-1.3547,-1.3105,-1.2852,-1.2696,-1.2842,-1.2852,-1.2696,-1.2472,-1.1466,-0.9717,-0.8944,-0.6802,-0.3221,-0.1971,-0.1769,-0.2511,-0.3963,-0.5643,-0.7531,-1.1054,-1.3714,-1.559,-1.7691,-1.8962,-1.9611,-1.9252,-1.8424,-1.7262,-1.6303,-1.5453,-1.4609,-1.3263,-1.3022,-1.3127,-1.1769,-1.1531,-1.1747,-1.1007,-1.1065,-1.1516,-1.2199,-1.2414,-1.2393,-1.2393,-1.2393,-1.2501,-1.2822,-1.2881,-1.2968,-1.3334,-1.3152,-1.2968,-1.3324,-1.3152,-1.2881,-1.2881,-1.3037,-1.3105,-1.291,-1.2563,-1.2155,-1.1619,-1.0963,-1.049,-1.0413,-1.0411,-1.0435,-1.0577,-1.1897,-1.3,-1.368,-1.4345,-1.5204,-1.631,-1.5635,-1.487,-1.4129,-1.3709,-1.3286,-1.294,-1.2903,-1.2881,-1.2881,-1.2881,-1.2988,-1.3164,-1.2969,-1.3096,-1.3437,-1.362,-1.3691,-1.3828,-1.4623,-1.5019,-1.5079,-1.5371,-1.5801,-1.6225,-1.5019,-1.4676,-1.4621,-1.541,-1.5468,-1.5584,-1.5584,-1.6208,-1.6708,-1.6821,-1.7457,-1.8186,-1.8819,-1.8442,-1.8054,-1.7969,-1.6338,-1.4707,-1.3539,-1.2918,-1.2842,-1.3484,-1.3035,-1.2939,-1.3474,-1.3094,-1.2206,-1.0661,-0.9858,-0.7913,-0.4793,-0.4082,-0.3355,-0.2757,-0.5009,-0.6243,-0.6651,-1.0902,-1.3153,-1.3896,-1.5901,-1.6705,-1.6646,-1.6421,-1.5432,-1.4003,-1.3907,-1.325,-1.2339,-1.1644,-1.1463,-1.1463,-1.0754,-1.0568,-1.0669,-1.0669,-1.0669,-1.0669,-1.0762,-1.1216,-1.1665,-1.1765,-1.1864,-1.2129,-1.2725,-1.2881,-1.2881,-1.2881,-1.2881,-1.2881,-1.2881,-1.2881,-1.29,-1.2969,-1.3271,-1.3437,-1.3203,-1.2961,-1.2434,-1.1627,-1.1073,-1.0668,-1.026,-1.0711,-1.0975,-1.0691,-1.1752,-1.2627,-1.2984,-1.3734,-1.4734,-1.6045,-1.5654,-1.5231,-1.48,-1.4347,-1.3872,-1.3408,-1.3043,-1.292,-1.3008,-1.2988,-1.3193,-1.3584,-1.3232,-1.3457,-1.4058,-1.3594,-1.3628,-1.4042,-1.4342,-1.4716,-1.5065,-1.4736,-1.5074,-1.5501,-1.3793,-1.3621,-1.4022,-1.541,-1.5921,-1.6322,-1.6322,-1.6922,-1.7633,-1.8286,-1.8943,-1.9659,-2.0357,-2.037,-1.9938,-1.8932,-1.6699,-1.4809,-1.3691,-1.2081,-1.1416,-1.2061,-1.2021,-1.2021,-1.211,-1.2598,-1.1959,-1.0012,-0.8951,-0.7852,-0.6606,-0.5918,-0.5453,-0.5157,-0.6058,-0.7238,-0.8621,-1.0816,-1.2192,-1.2875,-1.3751,-1.407,-1.3969,-1.2978,-1.2384,-1.2052,-1.1534,-1.1225,-1.099,-1.0356,-1.0458,-1.0754,-0.951,-0.9465,-0.9961,-0.9961,-0.9961,-1.0064,-1.061,-1.0864,-1.1065,-1.1665,-1.2236,-1.2774,-1.2881,-1.2881,-1.2881,-1.2881,-1.2881,-1.2881,-1.2881,-1.2881,-1.2988,-1.334,-1.3467,-1.3721,-1.4385,-1.3158,-1.2161,-1.238,-1.1702,-1.1056,-1.0667,-1.1791,-1.2221,-1.1136,-1.2169,-1.2951,-1.3,-1.3734,-1.4734,-1.6045,-1.5654,-1.5361,-1.5302,-1.4505,-1.3764,-1.3017,-1.2939,-1.3056,-1.3401,-1.3406,-1.3633,-1.398,-1.3912,-1.3951,-1.4077,-1.3303,-1.3277,-1.3659,-1.3035,-1.316,-1.3739,-1.4053,-1.4388,-1.4651,-1.3915,-1.3665,-1.3719,-1.5921,-1.6265,-1.6652,-1.7034,-1.7688,-1.8286,-1.8661,-1.9594,-2.0557,-2.1197,-2.0979,-2.0447,-1.9525,-1.6953,-1.4686,-1.3113,-1.1311,-1.0415,-1.0712,-1.1416,-1.1972,-1.2393,-1.2725,-1.2107,-1.0364,-0.9482,-0.8693,-0.79,-0.7982,-0.7533,-0.6712,-0.7439,-0.7949,-0.8371,-0.994,-1.0777,-1.1139,-1.1769,-1.1861,-1.1438,-1.0458,-1.0112,-1.0033,-0.937,-0.9384,-0.9666,-0.9361,-0.9465,-0.9614,-0.9008,-0.9008,-0.9263,-0.9263,-0.9263,-0.9413,-1.0064,-1.0762,-1.1416,-1.1715,-1.2344,-1.2881,-1.2881,-1.2881,-1.2881,-1.2881,-1.2881,-1.2881,-1.2881,-1.2881,-1.2939,-1.3135,-1.3545,-1.3828,-1.3769,-1.3176,-1.2822,-1.3087,-1.2366,-1.1927,-1.2208,-1.2689,-1.2564,-1.1578,-1.1949,-1.2521,-1.2976,-1.3373,-1.4172,-1.5663,-1.5498,-1.5273,-1.5103,-1.4218,-1.369,-1.3555,-1.3338,-1.342,-1.3815,-1.382,-1.4072,-1.4473,-1.4238,-1.4385,-1.4768,-1.3901,-1.3781,-1.4156,-1.3512,-1.3525,-1.3941,-1.364,-1.3777,-1.3955,-1.3259,-1.317,-1.339,-1.6379,-1.6765,-1.7246,-1.7938,-1.8543,-1.9085,-1.9362,-2.0294,-2.1313,-2.2047,-2.163,-2.0965,-2.0284,-1.7296,-1.4471,-1.2482,-1.0473,-0.9392,-0.954,-1.0493,-1.1566,-1.2608,-1.2657,-1.2085,-1.0937,-1.0387,-0.9859,-0.9306,-0.9814,-0.9503,-0.8338,-0.8783,-0.8698,-0.8249,-0.9145,-0.9562,-0.9614,-1.0115,-0.9961,-0.9235,-0.8692,-0.8501,-0.848,-0.7937,-0.8156,-0.8804,-0.8804,-0.8804,-0.8804,-0.8804,-0.8804,-0.8804,-0.8956,-0.891,-0.9008,-0.9961,-1.1124,-1.203,-1.1864,-1.2344,-1.2881,-1.2881,-1.2881,-1.2881,-1.2881,-1.2881,-1.2881,-1.2881,-1.2881,-1.291,-1.3008,-1.3633,-1.3879,-1.3279,-1.3522,-1.3755,-1.3749,-1.3232,-1.3052,-1.3672,-1.3561,-1.3125,-1.2166,-1.2033,-1.2241,-1.2852,-1.2885,-1.3502,-1.5041,-1.5235,-1.5174,-1.4982,-1.4066,-1.3787,-1.4092,-1.3816,-1.3869,-1.4246,-1.4353,-1.4658,-1.5078,-1.4844,-1.5098,-1.5663,-1.4484,-1.4223,-1.4521,-1.3639,-1.3557,-1.3793,-1.312,-1.3042,-1.3317,-1.2592,-1.275,-1.3276,-1.6492,-1.7578,-1.8756,-1.9401,-1.9658,-2.0131,-2.1315,-2.1554,-2.2108,-2.3378,-2.2962,-2.2283,-2.1549,-1.779,-1.443,-1.2295,-0.951,-0.8131,-0.8738,-0.8888,-0.9813,-1.1765,-1.1864,-1.1692,-1.1264,-1.1219,-1.1166,-1.1104,-1.1157,-1.0987,-1.0551,-1.0005,-0.971,-0.9607,-0.9106,-0.8857,-0.8857,-0.891,-0.8527,-0.7824,-0.7771,-0.7777,-0.7777,-0.7723,-0.8156,-0.8804,-0.8804,-0.8804,-0.8804,-0.8804,-0.8804,-0.891,-0.951,-0.9309,-0.9159,-1.1116,-1.2187,-1.2666,-1.1972,-1.2344,-1.2881,-1.2881,-1.2881,-1.2881,-1.2881,-1.2881,-1.2881,-1.2881,-1.2881,-1.2998,-1.3389,-1.3828,-1.4093,-1.4108,-1.4475,-1.4657,-1.4315,-1.4493,-1.4541,-1.4174,-1.4777,-1.4563,-1.2955,-1.2856,-1.2751,-1.248,-1.2455,-1.3007,-1.4203,-1.4658,-1.499,-1.5342,-1.4521,-1.4093,-1.4086,-1.4067,-1.4292,-1.4766,-1.5137,-1.5547,-1.6047,-1.6367,-1.651,-1.6505,-1.4798,-1.4081,-1.3983,-1.228,-1.1805,-1.2077,-1.2013,-1.2188,-1.2372,-1.2305,-1.2907,-1.3719,-1.826,-1.8917,-1.9517,-2.0257,-2.0706,-2.1135,-2.1649,-2.2053,-2.2477,-2.3025,-2.2502,-2.1643,-2.041,-1.6951,-1.4067,-1.2564,-0.9515,-0.8057,-0.8977,-0.8791,-0.96,-1.1715,-1.1814,-1.1737,-1.1634,-1.1583,-1.1756,-1.2018,-1.2193,-1.2121,-1.1843,-1.0877,-1.0218,-0.9762,-0.9113,-0.8804,-0.8752,-0.8315,-0.8027,-0.7781,-0.7456,-0.7656,-0.8113,-0.8023,-0.8465,-0.9051,-0.8871,-0.8804,-0.8804,-0.8804,-0.8804,-0.8857,-0.9113,-0.9008,-0.9106,-1.0712,-1.199,-1.2822,-1.2559,-1.2666,-1.2881,-1.2881,-1.2881,-1.2881,-1.2881,-1.2881,-1.2881,-1.2881,-1.2881,-1.3008,-1.3428,-1.3417,-1.3351,-1.3372,-1.3944,-1.4354,-1.4267,-1.4755,-1.5213,-1.5368,-1.5168,-1.4706,-1.3771,-1.3526,-1.3325,-1.3185,-1.3386,-1.3808,-1.4525,-1.4964,-1.5244,-1.541,-1.5061,-1.4925,-1.4925,-1.4343,-1.4277,-1.4726,-1.5133,-1.5401,-1.5631,-1.6667,-1.6992,-1.6631,-1.5306,-1.4627,-1.4234,-1.2586,-1.2037,-1.2138,-1.2138,-1.2204,-1.2305,-1.2305,-1.3005,-1.4067,-1.9746,-2.0441,-2.1103,-2.1618,-2.2069,-2.2414,-2.2597,-2.2844,-2.2997,-2.2997,-2.2413,-2.1376,-1.9708,-1.6673,-1.4067,-1.2406,-0.9658,-0.8226,-0.8837,-0.9185,-0.9974,-1.1408,-1.1931,-1.2094,-1.2013,-1.2454,-1.2903,-1.3351,-1.3402,-1.3343,-1.3099,-1.1549,-1.0559,-1.0064,-0.9211,-0.8804,-0.8758,-0.8075,-0.7669,-0.7483,-0.7245,-0.747,-0.7993,-0.8175,-0.8621,-0.9143,-0.8911,-0.8804,-0.8804,-0.8804,-0.8804,-0.8804,-0.8804,-0.9113,-0.9614,-1.0517,-1.1881,-1.3047,-1.291,-1.3076,-1.3242,-1.3105,-1.2978,-1.291,-1.3047,-1.2978,-1.2881,-1.2881,-1.2988,-1.3164,-1.3457,-1.3478,-1.3387,-1.3166,-1.4038,-1.4637,-1.4475,-1.5168,-1.5879,-1.6247,-1.5752,-1.5157,-1.4628,-1.4205,-1.3898,-1.3645,-1.3879,-1.4264,-1.4739,-1.5186,-1.541,-1.541,-1.5537,-1.5497,-1.5191,-1.4514,-1.4408,-1.4863,-1.5321,-1.5501,-1.5519,-1.7092,-1.7607,-1.7232,-1.6386,-1.5581,-1.4833,-1.3506,-1.2674,-1.2305,-1.2305,-1.2305,-1.2311,-1.2405,-1.3376,-1.468,-2.0673,-2.2258,-2.3708,-2.3698,-2.3695,-2.3907,-2.4535,-2.408,-2.3677,-2.3677,-2.3083,-2.1904,-1.9799,-1.7218,-1.4543,-1.1768,-0.9721,-0.8497,-0.8241,-0.9866,-1.0813,-1.0813,-1.2157,-1.2769,-1.2498,-1.3902,-1.4832,-1.5236,-1.4782,-1.4609,-1.4549,-1.1986,-1.0813,-1.0771,-0.9413,-0.8811,-0.8771,-0.8147,-0.7389,-0.6628,-0.7118,-0.7226,-0.7208,-0.7942,-0.8621,-0.9205,-0.8911,-0.8804,-0.8804,-0.8804,-0.8804,-0.8804,-0.8811,-0.9718,-1.0821,-1.0821,-1.207,-1.3418,-1.3008,-1.3496,-1.398,-1.3613,-1.3193,-1.2998,-1.3408,-1.3184,-1.2881,-1.2881,-1.3213,-1.3506,-1.3516,-1.4209,-1.4495,-1.375,-1.5018,-1.5811,-1.4994,-1.5927,-1.6728,-1.6728,-1.6728,-1.6387,-1.5508,-1.513,-1.4544,-1.369,-1.3636,-1.3978,-1.4729,-1.5186,-1.541,-1.542,-1.584,-1.5628,-1.4693,-1.4693,-1.4881,-1.533,-1.5716,-1.5905,-1.5999,-1.7808,-1.8572,-1.8592,-1.8128,-1.7098,-1.5765,-1.4821,-1.3599,-1.2298,-1.2298,-1.2305,-1.2338,-1.2714,-1.4074,-1.5765,-2.1928,-2.2526,-2.3267,-2.4162,-2.4322,-2.4517,-2.5129,-2.4717,-2.4025,-2.3132,-2.1969,-2.039,-1.8274,-1.5285,-1.294,-1.1806,-0.9774,-0.8845,-0.9665,-1.1137,-1.1875,-1.1525,-1.3195,-1.4078,-1.4002,-1.5228,-1.6047,-1.6472,-1.5515,-1.5025,-1.4974,-1.2945,-1.1797,-1.1466,-1.0115,-0.951,-0.9427,-0.7859,-0.7038,-0.6849,-0.74,-0.7896,-0.8521,-0.9579,-1.0144,-1.0297,-0.9705,-0.9211,-0.8804,-0.8804,-0.8804,-0.8844,-0.9045,-1.0104,-1.1356,-1.1498,-1.269,-1.3863,-1.3789,-1.3945,-1.398,-1.3613,-1.3408,-1.335,-1.3477,-1.3184,-1.2969,-1.3262,-1.295,-1.2995,-1.4179,-1.3699,-1.3313,-1.3929,-1.4717,-1.5078,-1.449,-1.5482,-1.626,-1.626,-1.626,-1.6279,-1.6328,-1.5979,-1.552,-1.4907,-1.4601,-1.4676,-1.5205,-1.5342,-1.5557,-1.5859,-1.5369,-1.5396,-1.59,-1.5025,-1.4622,-1.4723,-1.5171,-1.5757,-1.6482,-1.8247,-1.8926,-1.8611,-1.8425,-1.7728,-1.6729,-1.5773,-1.4545,-1.3382,-1.4099,-1.4099,-1.3881,-1.4626,-1.57,-1.6846,-2.2923,-2.3435,-2.4161,-2.5166,-2.5395,-2.553,-2.5818,-2.5183,-2.397,-2.2123,-2.0416,-1.8495,-1.6311,-1.3499,-1.1606,-1.1308,-1.0506,-1.0514,-1.1676,-1.2706,-1.3301,-1.3283,-1.4795,-1.5422,-1.4874,-1.6311,-1.7282,-1.7675,-1.6284,-1.5647,-1.5636,-1.3314,-1.1915,-1.1366,-1.0261,-0.9666,-0.9337,-0.8031,-0.7442,-0.7467,-0.8099,-0.8511,-0.8974,-0.9945,-1.0272,-1.0163,-0.9735,-0.9286,-0.8978,-0.8978,-0.8978,-0.9031,-0.9325,-1.0446,-1.1668,-1.1828,-1.3067,-1.4355,-1.4126,-1.433,-1.4541,-1.4111,-1.3877,-1.376,-1.376,-1.3555,-1.3297,-1.3067,-1.3184,-1.3504,-1.4176,-1.3926,-1.3817,-1.4532,-1.4902,-1.4976,-1.4725,-1.5482,-1.6125,-1.6125,-1.6367,-1.6631,-1.6719,-1.6641,-1.6328,-1.5713,-1.543,-1.5332,-1.541,-1.5576,-1.5662,-1.5557,-1.5451,-1.5303,-1.5217,-1.501,-1.5043,-1.5182,-1.5542,-1.6158,-1.6899,-1.8342,-1.8984,-1.8864,-1.9004,-1.8461,-1.7415,-1.6884,-1.569,-1.4394,-1.5176,-1.5219,-1.5075,-1.5938,-1.6879,-1.7759,-2.3652,-2.4555,-2.5697,-2.6386,-2.6489,-2.6468,-2.6479,-2.542,-2.3666,-2.0953,-1.8602,-1.6327,-1.3997,-1.1696,-1.0369,-1.0388,-1.1817,-1.315,-1.4082,-1.4591,-1.5061,-1.5626,-1.6761,-1.6784,-1.5496,-1.7271,-1.8406,-1.8715,-1.7105,-1.6322,-1.6165,-1.3223,-1.1501,-1.0762,-1.0115,-0.948,-0.8931,-0.8531,-0.8328,-0.8324,-0.9007,-0.9057,-0.878,-0.9499,-0.9606,-0.9287,-0.926,-0.9198,-0.9205,-0.928,-0.9239,-0.9292,-0.9785,-1.0895,-1.2008,-1.2097,-1.343,-1.4756,-1.4355,-1.4824,-1.5322,-1.4941,-1.4596,-1.4292,-1.4199,-1.4107,-1.3821,-1.2732,-1.3687,-1.4505,-1.391,-1.4619,-1.5294,-1.541,-1.541,-1.541,-1.541,-1.5752,-1.6096,-1.6113,-1.6836,-1.7197,-1.6875,-1.7168,-1.7031,-1.6253,-1.6123,-1.5947,-1.5547,-1.5908,-1.5775,-1.4899,-1.5806,-1.5417,-1.366,-1.5014,-1.5831,-1.6211,-1.6607,-1.6969,-1.7451,-1.8399,-1.8997,-1.9365,-1.9746,-1.9211,-1.8008,-1.8044,-1.6987,-1.5459,-1.5892,-1.6052,-1.6169,-1.6911,-1.7795,-1.8592,-2.3629,-2.4154,-2.5009,-2.6163,-2.594,-2.5787,-2.629,-2.4942,-2.3121,-2.0913,-1.7506,-1.4473,-1.2262,-0.9303,-0.792,-0.9283,-1.3092,-1.5917,-1.6923,-1.7101,-1.7079,-1.6907,-1.7565,-1.7787,-1.7471,-1.8763,-1.9196,-1.8715,-1.7461,-1.611,-1.4665,-1.3082,-1.1773,-1.0762,-1.0115,-0.9858,-0.9894,-0.8571,-0.8206,-0.8556,-0.8798,-0.9168,-0.9613,-1.0215,-1.0375,-1.0169,-0.9811,-0.9309,-0.9038,-0.9901,-0.9776,-0.9549,-1.1414,-1.2183,-1.2638,-1.3444,-1.4424,-1.5254,-1.5166,-1.5273,-1.5391,-1.5293,-1.5652,-1.5772,-1.4828,-1.4375,-1.4145,-1.4234,-1.4026,-1.407,-1.4859,-1.469,-1.4688,-1.5294,-1.541,-1.541,-1.541,-1.5498,-1.5811,-1.6504,-1.6758,-1.71,-1.7676,-1.7529,-1.7158,-1.6631,-1.6592,-1.6543,-1.6455,-1.6533,-1.6417,-1.6026,-1.553,-1.5137,-1.4739,-1.561,-1.6145,-1.622,-1.762,-1.8492,-1.8841,-1.99,-2.0154,-1.9785,-1.9873,-1.9529,-1.9014,-1.9341,-1.8369,-1.6875,-1.808,-1.8276,-1.8042,-1.8909,-1.9364,-1.9449,-2.3101,-2.3575,-2.434,-2.5699,-2.5639,-2.5528,-2.5873,-2.4403,-2.2332,-1.9813,-1.5796,-1.2312,-0.9965,-0.7602,-0.7587,-1.1128,-1.506,-1.7769,-1.8745,-1.9147,-1.9092,-1.8599,-1.8866,-1.8871,-1.8547,-1.8855,-1.8773,-1.841,-1.6968,-1.5488,-1.3876,-1.2721,-1.1524,-1.032,-0.9961,-0.9797,-0.9728,-0.9028,-0.8964,-0.9292,-0.9369,-0.9633,-0.9951,-1.017,-1.0101,-0.99,-0.9925,-0.9974,-1.0185,-1.1298,-1.1306,-1.1039,-1.2378,-1.3025,-1.3473,-1.4031,-1.4756,-1.541,-1.541,-1.541,-1.5468,-1.5864,-1.642,-1.6571,-1.5147,-1.5034,-1.5069,-1.4373,-1.4364,-1.4561,-1.4768,-1.4805,-1.4923,-1.5352,-1.541,-1.5488,-1.5693,-1.5723,-1.5977,-1.6587,-1.6914,-1.7305,-1.7949,-1.7988,-1.7803,-1.7373,-1.7529,-1.7471,-1.7061,-1.7236,-1.7064,-1.6498,-1.5959,-1.5855,-1.623,-1.6738,-1.762,-1.8897,-1.9452,-1.989,-2.0285,-2.0417,-2.0185,-1.9619,-1.9619,-1.9492,-1.9316,-1.9746,-1.9226,-1.8326,-1.9194,-1.9408,-1.9241,-1.9994,-2.0225,-2.0138,-2.2727,-2.3224,-2.3949,-2.5124,-2.5257,-2.5273,-2.5284,-2.3725,-2.1529,-1.8666,-1.415,-1.0277,-0.784,-0.6954,-0.8675,-1.401,-1.7332,-1.957,-2.0479,-2.1046,-2.107,-2.0469,-2.0059,-1.9507,-1.8871,-1.8039,-1.7677,-1.7772,-1.62,-1.4683,-1.3292,-1.2236,-1.1039,-0.9768,-0.9665,-0.9542,-0.9342,-0.9546,-0.9833,-1.0187,-1.014,-1.0114,-1.0094,-0.9846,-0.9573,-0.9379,-1.0037,-1.073,-1.1596,-1.2726,-1.2898,-1.2714,-1.3254,-1.3786,-1.4213,-1.4392,-1.4874,-1.541,-1.541,-1.541,-1.5526,-1.6151,-1.688,-1.7032,-1.5365,-1.5894,-1.6187,-1.443,-1.4811,-1.5167,-1.451,-1.4932,-1.541,-1.541,-1.5478,-1.5654,-1.6076,-1.6133,-1.6348,-1.6787,-1.7285,-1.7734,-1.8086,-1.8506,-1.8603,-1.8252,-1.8545,-1.8437,-1.7744,-1.8037,-1.7827,-1.6901,-1.6851,-1.7046,-1.759,-1.7955,-1.9489,-2.217,-2.1435,-2.1333,-2.1618,-2.0892,-2.0203,-1.9502,-1.9424,-1.9394,-1.9424,-1.9853,-1.9701,-1.9139,-1.9553,-1.9716,-1.9831,-2.0352,-2.0566,-2.0566,-2.346,-2.3895,-2.4312,-2.4539,-2.4529,-2.4529,-2.4529,-2.2994,-2.0984,-1.8618,-1.3517,-0.9235,-0.6907,-0.8194,-1.1167,-1.6019,-1.9788,-2.2364,-2.3542,-2.3295,-2.2849,-2.2198,-2.0199,-1.8858,-1.822,-1.6671,-1.6049,-1.6441,-1.5615,-1.4175,-1.2134,-1.1724,-1.0872,-0.971,-0.9187,-0.9301,-0.9967,-0.9442,-0.9766,-1.0481,-1.0221,-1.0114,-1.0114,-1.0074,-0.988,-0.9748,-1.0494,-1.1316,-1.2164,-1.3288,-1.3212,-1.2889,-1.4566,-1.4688,-1.4332,-1.505,-1.5294,-1.541,-1.541,-1.541,-1.541,-1.5526,-1.657,-1.7298,-1.6178,-1.6624,-1.7059,-1.6255,-1.5708,-1.5352,-1.5235,-1.5352,-1.541,-1.541,-1.5732,-1.6056,-1.6115,-1.6396,-1.6807,-1.7246,-1.7988,-1.8486,-1.8545,-1.8945,-1.918,-1.9121,-1.916,-1.915,-1.9033,-1.9082,-1.8829,-1.8109,-1.8041,-1.8057,-1.7921,-1.8876,-2.0642,-2.3231,-2.2652,-2.2507,-2.2702,-2.2601,-2.1722,-2.0371,-2.0,-1.9824,-1.9863,-2.0303,-1.9668,-1.8479,-1.8957,-1.9113,-1.9201,-2.0216,-2.0566,-2.0566,-2.2526,-2.2655,-2.2927,-2.3389,-2.3691,-2.3903,-2.3948,-2.2438,-2.0482,-1.8248,-1.382,-1.0093,-0.7887,-1.0441,-1.4189,-1.8783,-2.1778,-2.3652,-2.4256,-2.3815,-2.3069,-2.2108,-2.0329,-1.897,-1.8005,-1.6519,-1.5672,-1.5588,-1.5033,-1.364,-1.1543,-1.1693,-1.0979,-0.9673,-0.9412,-0.9512,-0.986,-0.9599,-0.9806,-1.0287,-0.9993,-1.0074,-1.0409,-1.0646,-1.0723,-1.0777,-1.2045,-1.2866,-1.3429,-1.4361,-1.4484,-1.4338,-1.5119,-1.5167,-1.4932,-1.5294,-1.541,-1.541,-1.541,-1.541,-1.5526,-1.5921,-1.6927,-1.7755,-1.7408,-1.768,-1.7727,-1.6495,-1.6009,-1.5703,-1.5459,-1.541,-1.5488,-1.5732,-1.5937,-1.6292,-1.6728,-1.6973,-1.7344,-1.8008,-1.8408,-1.873,-1.8975,-1.9385,-1.9639,-1.9639,-1.9863,-1.9893,-1.9648,-1.9873,-1.9744,-1.9212,-1.8973,-1.9317,-2.0179,-2.022,-2.1534,-2.4146,-2.3631,-2.3523,-2.367,-2.2573,-2.1364,-2.0207,-2.0019,-1.9919,-1.9958,-2.0448,-2.0207,-1.958,-1.9847,-1.9923,-1.9923,-2.0411,-2.0566,-2.0566]}]]